<?xml version='1.0' encoding='UTF-8'?>
<gpx version="1.1" creator="https://www.komoot.de" xmlns="http://www.topografix.com/GPX/1/1" xmlns:xsi="http://www.w3.org/2001/XMLSchema-instance" xsi:schemaLocation="http://www.topografix.com/GPX/1/1 http://www.topografix.com/GPX/1/1/gpx.xsd">
  <metadata>
    <name>70_1100SchafmattSaal</name>
    <author>
      <link href="https://www.komoot.de">
        <text>komoot</text>
        <type>text/html</type>
      </link>
    </author>
  </metadata>
  <trk>
    <name>70_1100SchafmattSaal</name>
    <trkseg>
      <trkpt lat="47.541430" lon="7.870776">
        <ele>342.262371</ele>
        <time>2021-11-20T17:05:53.589Z</time>
      </trkpt>
      <trkpt lat="47.541410" lon="7.870791">
        <ele>342.262371</ele>
        <time>2021-11-20T17:05:54.195Z</time>
      </trkpt>
      <trkpt lat="47.541306" lon="7.870877">
        <ele>342.262371</ele>
        <time>2021-11-20T17:05:56.845Z</time>
      </trkpt>
      <trkpt lat="47.540933" lon="7.871187">
        <ele>342.262371</ele>
        <time>2021-11-20T17:06:06.755Z</time>
      </trkpt>
      <trkpt lat="47.540894" lon="7.871220">
        <ele>342.262371</ele>
        <time>2021-11-20T17:06:07.888Z</time>
      </trkpt>
      <trkpt lat="47.540693" lon="7.871390">
        <ele>342.262371</ele>
        <time>2021-11-20T17:06:13.445Z</time>
      </trkpt>
      <trkpt lat="47.540463" lon="7.871584">
        <ele>342.666803</ele>
        <time>2021-11-20T17:06:19.760Z</time>
      </trkpt>
      <trkpt lat="47.540265" lon="7.871808">
        <ele>343.144481</ele>
        <time>2021-11-20T17:06:25.287Z</time>
      </trkpt>
      <trkpt lat="47.540216" lon="7.871851">
        <ele>343.253678</ele>
        <time>2021-11-20T17:06:26.749Z</time>
      </trkpt>
      <trkpt lat="47.540034" lon="7.871970">
        <ele>343.635110</ele>
        <time>2021-11-20T17:06:31.484Z</time>
      </trkpt>
      <trkpt lat="47.539930" lon="7.872041">
        <ele>343.854669</ele>
        <time>2021-11-20T17:06:34.061Z</time>
      </trkpt>
      <trkpt lat="47.539841" lon="7.872151">
        <ele>344.076906</ele>
        <time>2021-11-20T17:06:37.084Z</time>
      </trkpt>
      <trkpt lat="47.539678" lon="7.872430">
        <ele>344.554481</ele>
        <time>2021-11-20T17:06:42.595Z</time>
      </trkpt>
      <trkpt lat="47.539222" lon="7.873416">
        <ele>345.920585</ele>
        <time>2021-11-20T17:07:00.137Z</time>
      </trkpt>
      <trkpt lat="47.538278" lon="7.874319">
        <ele>347.077226</ele>
        <time>2021-11-20T17:07:19.790Z</time>
      </trkpt>
      <trkpt lat="47.537716" lon="7.874966">
        <ele>347.990868</ele>
        <time>2021-11-20T17:07:33.765Z</time>
      </trkpt>
      <trkpt lat="47.537261" lon="7.875237">
        <ele>348.864676</ele>
        <time>2021-11-20T17:07:43.282Z</time>
      </trkpt>
      <trkpt lat="47.537182" lon="7.875293">
        <ele>349.020728</ele>
        <time>2021-11-20T17:07:45.271Z</time>
      </trkpt>
      <trkpt lat="47.536921" lon="7.875537">
        <ele>349.570658</ele>
        <time>2021-11-20T17:07:51.238Z</time>
      </trkpt>
      <trkpt lat="47.536757" lon="7.875759">
        <ele>349.966520</ele>
        <time>2021-11-20T17:07:55.839Z</time>
      </trkpt>
      <trkpt lat="47.536632" lon="7.875912">
        <ele>350.255450</ele>
        <time>2021-11-20T17:07:59.007Z</time>
      </trkpt>
      <trkpt lat="47.536444" lon="7.876177">
        <ele>350.717869</ele>
        <time>2021-11-20T17:08:05.969Z</time>
      </trkpt>
      <trkpt lat="47.535851" lon="7.877319">
        <ele>355.164773</ele>
        <time>2021-11-20T17:08:37.283Z</time>
      </trkpt>
      <trkpt lat="47.535770" lon="7.877432">
        <ele>355.682565</ele>
        <time>2021-11-20T17:08:41.463Z</time>
      </trkpt>
      <trkpt lat="47.535635" lon="7.877484">
        <ele>356.331675</ele>
        <time>2021-11-20T17:08:47.330Z</time>
      </trkpt>
      <trkpt lat="47.535551" lon="7.877487">
        <ele>356.722679</ele>
        <time>2021-11-20T17:08:49.239Z</time>
      </trkpt>
      <trkpt lat="47.535322" lon="7.877590">
        <ele>357.836368</ele>
        <time>2021-11-20T17:08:59.290Z</time>
      </trkpt>
      <trkpt lat="47.535088" lon="7.877742">
        <ele>359.025387</ele>
        <time>2021-11-20T17:09:07.122Z</time>
      </trkpt>
      <trkpt lat="47.534855" lon="7.878090">
        <ele>360.713772</ele>
        <time>2021-11-20T17:09:19.105Z</time>
      </trkpt>
      <trkpt lat="47.534778" lon="7.878270">
        <ele>361.452900</ele>
        <time>2021-11-20T17:09:26.412Z</time>
      </trkpt>
      <trkpt lat="47.534825" lon="7.878414">
        <ele>362.007687</ele>
        <time>2021-11-20T17:09:29.039Z</time>
      </trkpt>
      <trkpt lat="47.534946" lon="7.878790">
        <ele>363.452465</ele>
        <time>2021-11-20T17:09:41.087Z</time>
      </trkpt>
      <trkpt lat="47.534908" lon="7.878975">
        <ele>364.123199</ele>
        <time>2021-11-20T17:09:45.145Z</time>
      </trkpt>
      <trkpt lat="47.534616" lon="7.879490">
        <ele>366.455915</ele>
        <time>2021-11-20T17:10:02.091Z</time>
      </trkpt>
      <trkpt lat="47.533892" lon="7.880353">
        <ele>369.761166</ele>
        <time>2021-11-20T17:10:29.831Z</time>
      </trkpt>
      <trkpt lat="47.533606" lon="7.880961">
        <ele>371.007657</ele>
        <time>2021-11-20T17:10:42.139Z</time>
      </trkpt>
      <trkpt lat="47.533374" lon="7.881639">
        <ele>372.286263</ele>
        <time>2021-11-20T17:10:53.185Z</time>
      </trkpt>
      <trkpt lat="47.533014" lon="7.882949">
        <ele>372.900133</ele>
        <time>2021-11-20T17:11:11.100Z</time>
      </trkpt>
      <trkpt lat="47.532859" lon="7.883508">
        <ele>372.923272</ele>
        <time>2021-11-20T17:11:16.978Z</time>
      </trkpt>
      <trkpt lat="47.532713" lon="7.884122">
        <ele>372.948197</ele>
        <time>2021-11-20T17:11:22.675Z</time>
      </trkpt>
      <trkpt lat="47.532699" lon="7.884224">
        <ele>372.952183</ele>
        <time>2021-11-20T17:11:23.629Z</time>
      </trkpt>
      <trkpt lat="47.532670" lon="7.884773">
        <ele>372.635366</ele>
        <time>2021-11-20T17:11:28.123Z</time>
      </trkpt>
      <trkpt lat="47.532658" lon="7.884989">
        <ele>372.414741</ele>
        <time>2021-11-20T17:11:29.735Z</time>
      </trkpt>
      <trkpt lat="47.532650" lon="7.885569">
        <ele>371.824193</ele>
        <time>2021-11-20T17:11:34.237Z</time>
      </trkpt>
      <trkpt lat="47.532505" lon="7.887120">
        <ele>370.228523</ele>
        <time>2021-11-20T17:11:46.188Z</time>
      </trkpt>
      <trkpt lat="47.532288" lon="7.887728">
        <ele>369.464484</ele>
        <time>2021-11-20T17:11:51.365Z</time>
      </trkpt>
      <trkpt lat="47.532011" lon="7.888896">
        <ele>368.089143</ele>
        <time>2021-11-20T17:12:00.595Z</time>
      </trkpt>
      <trkpt lat="47.531843" lon="7.889349">
        <ele>367.514946</ele>
        <time>2021-11-20T17:12:04.632Z</time>
      </trkpt>
      <trkpt lat="47.531560" lon="7.889776">
        <ele>367.254864</ele>
        <time>2021-11-20T17:12:09.572Z</time>
      </trkpt>
      <trkpt lat="47.531265" lon="7.889937">
        <ele>367.214016</ele>
        <time>2021-11-20T17:12:13.540Z</time>
      </trkpt>
      <trkpt lat="47.531076" lon="7.890029">
        <ele>367.188167</ele>
        <time>2021-11-20T17:12:16.381Z</time>
      </trkpt>
      <trkpt lat="47.530606" lon="7.890373">
        <ele>367.120051</ele>
        <time>2021-11-20T17:12:24.230Z</time>
      </trkpt>
      <trkpt lat="47.530322" lon="7.890690">
        <ele>367.073845</ele>
        <time>2021-11-20T17:12:30.223Z</time>
      </trkpt>
      <trkpt lat="47.529972" lon="7.891210">
        <ele>367.425456</ele>
        <time>2021-11-20T17:12:39.385Z</time>
      </trkpt>
      <trkpt lat="47.529714" lon="7.891609">
        <ele>367.811261</ele>
        <time>2021-11-20T17:12:46.719Z</time>
      </trkpt>
      <trkpt lat="47.529695" lon="7.891638">
        <ele>367.839480</ele>
        <time>2021-11-20T17:12:47.705Z</time>
      </trkpt>
      <trkpt lat="47.529235" lon="7.892158">
        <ele>368.438000</ele>
        <time>2021-11-20T17:12:58.639Z</time>
      </trkpt>
      <trkpt lat="47.528331" lon="7.892682">
        <ele>369.612892</ele>
        <time>2021-11-20T17:13:17.341Z</time>
      </trkpt>
      <trkpt lat="47.528003" lon="7.892732">
        <ele>370.064717</ele>
        <time>2021-11-20T17:13:23.047Z</time>
      </trkpt>
      <trkpt lat="47.527498" lon="7.892650">
        <ele>370.760853</ele>
        <time>2021-11-20T17:13:32.520Z</time>
      </trkpt>
      <trkpt lat="47.527011" lon="7.893061">
        <ele>371.678871</ele>
        <time>2021-11-20T17:13:45.713Z</time>
      </trkpt>
      <trkpt lat="47.526709" lon="7.893617">
        <ele>373.007386</ele>
        <time>2021-11-20T17:13:58.245Z</time>
      </trkpt>
      <trkpt lat="47.526504" lon="7.894030">
        <ele>373.961719</ele>
        <time>2021-11-20T17:14:08.426Z</time>
      </trkpt>
      <trkpt lat="47.526451" lon="7.893983">
        <ele>374.132050</ele>
        <time>2021-11-20T17:14:09.815Z</time>
      </trkpt>
      <trkpt lat="47.526401" lon="7.893964">
        <ele>374.274379</ele>
        <time>2021-11-20T17:14:10.632Z</time>
      </trkpt>
      <trkpt lat="47.526335" lon="7.893960">
        <ele>374.456509</ele>
        <time>2021-11-20T17:14:12.706Z</time>
      </trkpt>
      <trkpt lat="47.526257" lon="7.894278">
        <ele>375.086425</ele>
        <time>2021-11-20T17:14:18.918Z</time>
      </trkpt>
      <trkpt lat="47.525725" lon="7.895110">
        <ele>376.893374</ele>
        <time>2021-11-20T17:14:38.000Z</time>
      </trkpt>
      <trkpt lat="47.525603" lon="7.895265">
        <ele>377.172130</ele>
        <time>2021-11-20T17:14:43.616Z</time>
      </trkpt>
      <trkpt lat="47.525631" lon="7.895442">
        <ele>377.385009</ele>
        <time>2021-11-20T17:14:46.466Z</time>
      </trkpt>
      <trkpt lat="47.525631" lon="7.895583">
        <ele>377.550120</ele>
        <time>2021-11-20T17:14:47.657Z</time>
      </trkpt>
      <trkpt lat="47.525622" lon="7.895944">
        <ele>377.973141</ele>
        <time>2021-11-20T17:14:55.091Z</time>
      </trkpt>
      <trkpt lat="47.525590" lon="7.896117">
        <ele>378.183187</ele>
        <time>2021-11-20T17:14:56.642Z</time>
      </trkpt>
      <trkpt lat="47.525518" lon="7.896336">
        <ele>378.468418</ele>
        <time>2021-11-20T17:15:01.450Z</time>
      </trkpt>
      <trkpt lat="47.524834" lon="7.897636">
        <ele>379.453655</ele>
        <time>2021-11-20T17:15:18.375Z</time>
      </trkpt>
      <trkpt lat="47.524719" lon="7.897943">
        <ele>379.451221</ele>
        <time>2021-11-20T17:15:21.482Z</time>
      </trkpt>
      <trkpt lat="47.524617" lon="7.898216">
        <ele>379.449057</ele>
        <time>2021-11-20T17:15:24.596Z</time>
      </trkpt>
      <trkpt lat="47.524360" lon="7.898951">
        <ele>379.443316</ele>
        <time>2021-11-20T17:15:32.135Z</time>
      </trkpt>
      <trkpt lat="47.524309" lon="7.899115">
        <ele>379.442064</ele>
        <time>2021-11-20T17:15:34.052Z</time>
      </trkpt>
      <trkpt lat="47.523896" lon="7.900001">
        <ele>380.290653</ele>
        <time>2021-11-20T17:15:45.977Z</time>
      </trkpt>
      <trkpt lat="47.523861" lon="7.900049">
        <ele>380.358398</ele>
        <time>2021-11-20T17:15:46.957Z</time>
      </trkpt>
      <trkpt lat="47.523890" lon="7.900131">
        <ele>380.447167</ele>
        <time>2021-11-20T17:15:47.912Z</time>
      </trkpt>
      <trkpt lat="47.523945" lon="7.900256">
        <ele>380.590241</ele>
        <time>2021-11-20T17:15:49.503Z</time>
      </trkpt>
      <trkpt lat="47.523989" lon="7.900340">
        <ele>380.692189</ele>
        <time>2021-11-20T17:15:50.553Z</time>
      </trkpt>
      <trkpt lat="47.523957" lon="7.900371">
        <ele>380.746493</ele>
        <time>2021-11-20T17:15:51.258Z</time>
      </trkpt>
      <trkpt lat="47.523878" lon="7.900445">
        <ele>380.879243</ele>
        <time>2021-11-20T17:15:53.375Z</time>
      </trkpt>
      <trkpt lat="47.523739" lon="7.900557">
        <ele>381.103969</ele>
        <time>2021-11-20T17:15:56.306Z</time>
      </trkpt>
      <trkpt lat="47.523648" lon="7.900606">
        <ele>381.241479</ele>
        <time>2021-11-20T17:15:58.485Z</time>
      </trkpt>
      <trkpt lat="47.523620" lon="7.900698">
        <ele>381.338252</ele>
        <time>2021-11-20T17:16:00.448Z</time>
      </trkpt>
      <trkpt lat="47.523567" lon="7.900820">
        <ele>381.477369</ele>
        <time>2021-11-20T17:16:02.545Z</time>
      </trkpt>
      <trkpt lat="47.523433" lon="7.901043">
        <ele>381.763632</ele>
        <time>2021-11-20T17:16:07.789Z</time>
      </trkpt>
      <trkpt lat="47.523340" lon="7.901197">
        <ele>381.961758</ele>
        <time>2021-11-20T17:16:11.832Z</time>
      </trkpt>
      <trkpt lat="47.523036" lon="7.901580">
        <ele>383.519329</ele>
        <time>2021-11-20T17:16:23.528Z</time>
      </trkpt>
      <trkpt lat="47.522688" lon="7.901843">
        <ele>385.104481</ele>
        <time>2021-11-20T17:16:35.845Z</time>
      </trkpt>
      <trkpt lat="47.522554" lon="7.901999">
        <ele>385.796041</ele>
        <time>2021-11-20T17:16:42.167Z</time>
      </trkpt>
      <trkpt lat="47.522260" lon="7.902356">
        <ele>387.338617</ele>
        <time>2021-11-20T17:16:54.540Z</time>
      </trkpt>
      <trkpt lat="47.522132" lon="7.902476">
        <ele>387.953266</ele>
        <time>2021-11-20T17:16:59.098Z</time>
      </trkpt>
      <trkpt lat="47.522065" lon="7.902526">
        <ele>388.257667</ele>
        <time>2021-11-20T17:17:01.292Z</time>
      </trkpt>
      <trkpt lat="47.522038" lon="7.902562">
        <ele>388.405074</ele>
        <time>2021-11-20T17:17:02.796Z</time>
      </trkpt>
      <trkpt lat="47.522013" lon="7.902637">
        <ele>388.634234</ele>
        <time>2021-11-20T17:17:04.929Z</time>
      </trkpt>
      <trkpt lat="47.521792" lon="7.903347">
        <ele>390.444525</ele>
        <time>2021-11-20T17:17:20.998Z</time>
      </trkpt>
      <trkpt lat="47.521297" lon="7.904312">
        <ele>393.022475</ele>
        <time>2021-11-20T17:17:44.970Z</time>
      </trkpt>
      <trkpt lat="47.520989" lon="7.905130">
        <ele>394.971649</ele>
        <time>2021-11-20T17:18:00.304Z</time>
      </trkpt>
      <trkpt lat="47.520678" lon="7.906050">
        <ele>395.481985</ele>
        <time>2021-11-20T17:18:13.787Z</time>
      </trkpt>
      <trkpt lat="47.520574" lon="7.906627">
        <ele>395.778219</ele>
        <time>2021-11-20T17:18:20.471Z</time>
      </trkpt>
      <trkpt lat="47.520566" lon="7.906668">
        <ele>395.799388</ele>
        <time>2021-11-20T17:18:20.886Z</time>
      </trkpt>
      <trkpt lat="47.520528" lon="7.906930">
        <ele>395.932314</ele>
        <time>2021-11-20T17:18:24.097Z</time>
      </trkpt>
      <trkpt lat="47.520515" lon="7.907103">
        <ele>396.018659</ele>
        <time>2021-11-20T17:18:25.860Z</time>
      </trkpt>
      <trkpt lat="47.520506" lon="7.907236">
        <ele>396.084963</ele>
        <time>2021-11-20T17:18:26.966Z</time>
      </trkpt>
      <trkpt lat="47.520551" lon="7.907422">
        <ele>396.182968</ele>
        <time>2021-11-20T17:18:29.340Z</time>
      </trkpt>
      <trkpt lat="47.520733" lon="7.907655">
        <ele>396.294474</ele>
        <time>2021-11-20T17:18:32.547Z</time>
      </trkpt>
      <trkpt lat="47.520738" lon="7.907839">
        <ele>396.311393</ele>
        <time>2021-11-20T17:18:34.657Z</time>
      </trkpt>
      <trkpt lat="47.520493" lon="7.908683">
        <ele>396.395798</ele>
        <time>2021-11-20T17:18:42.876Z</time>
      </trkpt>
      <trkpt lat="47.519997" lon="7.910833">
        <ele>397.096688</ele>
        <time>2021-11-20T17:19:08.822Z</time>
      </trkpt>
      <trkpt lat="47.519891" lon="7.911129">
        <ele>397.316394</ele>
        <time>2021-11-20T17:19:13.412Z</time>
      </trkpt>
      <trkpt lat="47.519720" lon="7.911522">
        <ele>397.622966</ele>
        <time>2021-11-20T17:19:19.496Z</time>
      </trkpt>
      <trkpt lat="47.519421" lon="7.912098">
        <ele>398.099375</ele>
        <time>2021-11-20T17:19:29.063Z</time>
      </trkpt>
      <trkpt lat="47.517688" lon="7.914418">
        <ele>400.549558</ele>
        <time>2021-11-20T17:20:13.641Z</time>
      </trkpt>
      <trkpt lat="47.517281" lon="7.915238">
        <ele>401.196898</ele>
        <time>2021-11-20T17:20:26.654Z</time>
      </trkpt>
      <trkpt lat="47.517140" lon="7.915259">
        <ele>401.330376</ele>
        <time>2021-11-20T17:20:29.154Z</time>
      </trkpt>
      <trkpt lat="47.516806" lon="7.914896">
        <ele>401.720621</ele>
        <time>2021-11-20T17:20:36.727Z</time>
      </trkpt>
      <trkpt lat="47.516748" lon="7.914873">
        <ele>401.777176</ele>
        <time>2021-11-20T17:20:37.896Z</time>
      </trkpt>
      <trkpt lat="47.516662" lon="7.914835">
        <ele>401.861710</ele>
        <time>2021-11-20T17:20:39.671Z</time>
      </trkpt>
      <trkpt lat="47.516626" lon="7.914830">
        <ele>401.895767</ele>
        <time>2021-11-20T17:20:40.367Z</time>
      </trkpt>
      <trkpt lat="47.516590" lon="7.914840">
        <ele>401.929255</ele>
        <time>2021-11-20T17:20:40.963Z</time>
      </trkpt>
      <trkpt lat="47.516569" lon="7.914864">
        <ele>401.953293</ele>
        <time>2021-11-20T17:20:41.498Z</time>
      </trkpt>
      <trkpt lat="47.516544" lon="7.914936">
        <ele>402.002837</ele>
        <time>2021-11-20T17:20:42.346Z</time>
      </trkpt>
      <trkpt lat="47.516391" lon="7.915243">
        <ele>402.236326</ele>
        <time>2021-11-20T17:20:47.127Z</time>
      </trkpt>
      <trkpt lat="47.515696" lon="7.916145">
        <ele>403.073759</ele>
        <time>2021-11-20T17:21:04.028Z</time>
      </trkpt>
      <trkpt lat="47.515629" lon="7.916232">
        <ele>403.154509</ele>
        <time>2021-11-20T17:21:05.791Z</time>
      </trkpt>
      <trkpt lat="47.515014" lon="7.917030">
        <ele>404.061441</ele>
        <time>2021-11-20T17:21:20.905Z</time>
      </trkpt>
      <trkpt lat="47.514635" lon="7.917349">
        <ele>404.637544</ele>
        <time>2021-11-20T17:21:29.028Z</time>
      </trkpt>
      <trkpt lat="47.514561" lon="7.917409">
        <ele>404.749035</ele>
        <time>2021-11-20T17:21:30.924Z</time>
      </trkpt>
      <trkpt lat="47.514255" lon="7.917714">
        <ele>405.236493</ele>
        <time>2021-11-20T17:21:38.395Z</time>
      </trkpt>
      <trkpt lat="47.513378" lon="7.918393">
        <ele>406.815817</ele>
        <time>2021-11-20T17:22:00.140Z</time>
      </trkpt>
      <trkpt lat="47.513160" lon="7.918764">
        <ele>407.442673</ele>
        <time>2021-11-20T17:22:07.642Z</time>
      </trkpt>
      <trkpt lat="47.513058" lon="7.918896">
        <ele>407.698355</ele>
        <time>2021-11-20T17:22:10.797Z</time>
      </trkpt>
      <trkpt lat="47.512938" lon="7.919052">
        <ele>407.999752</ele>
        <time>2021-11-20T17:22:14.577Z</time>
      </trkpt>
      <trkpt lat="47.512664" lon="7.919306">
        <ele>408.609887</ele>
        <time>2021-11-20T17:22:21.902Z</time>
      </trkpt>
      <trkpt lat="47.512255" lon="7.919538">
        <ele>409.389569</ele>
        <time>2021-11-20T17:22:31.587Z</time>
      </trkpt>
      <trkpt lat="47.512085" lon="7.919732">
        <ele>409.650130</ele>
        <time>2021-11-20T17:22:36.212Z</time>
      </trkpt>
      <trkpt lat="47.511964" lon="7.919989">
        <ele>409.906999</ele>
        <time>2021-11-20T17:22:40.749Z</time>
      </trkpt>
      <trkpt lat="47.511883" lon="7.920133">
        <ele>410.060655</ele>
        <time>2021-11-20T17:22:43.403Z</time>
      </trkpt>
      <trkpt lat="47.511632" lon="7.920105">
        <ele>410.366220</ele>
        <time>2021-11-20T17:22:50.053Z</time>
      </trkpt>
      <trkpt lat="47.511613" lon="7.920183">
        <ele>410.434209</ele>
        <time>2021-11-20T17:22:50.968Z</time>
      </trkpt>
      <trkpt lat="47.511186" lon="7.920984">
        <ele>411.270905</ele>
        <time>2021-11-20T17:23:03.645Z</time>
      </trkpt>
      <trkpt lat="47.511067" lon="7.921207">
        <ele>411.501440</ele>
        <time>2021-11-20T17:23:06.960Z</time>
      </trkpt>
      <trkpt lat="47.511052" lon="7.921232">
        <ele>411.524457</ele>
        <time>2021-11-20T17:23:07.405Z</time>
      </trkpt>
      <trkpt lat="47.510872" lon="7.921477">
        <ele>411.773638</ele>
        <time>2021-11-20T17:23:11.727Z</time>
      </trkpt>
      <trkpt lat="47.510639" lon="7.921796">
        <ele>412.097057</ele>
        <time>2021-11-20T17:23:17.241Z</time>
      </trkpt>
      <trkpt lat="47.509688" lon="7.922616">
        <ele>413.218614</ele>
        <time>2021-11-20T17:23:37.738Z</time>
      </trkpt>
      <trkpt lat="47.509615" lon="7.922742">
        <ele>413.344574</ele>
        <time>2021-11-20T17:23:40.711Z</time>
      </trkpt>
      <trkpt lat="47.509583" lon="7.922962">
        <ele>413.656961</ele>
        <time>2021-11-20T17:23:43.476Z</time>
      </trkpt>
      <trkpt lat="47.509550" lon="7.923245">
        <ele>414.055611</ele>
        <time>2021-11-20T17:23:48.186Z</time>
      </trkpt>
      <trkpt lat="47.509595" lon="7.923295">
        <ele>414.171237</ele>
        <time>2021-11-20T17:23:49.289Z</time>
      </trkpt>
      <trkpt lat="47.509668" lon="7.923400">
        <ele>414.380401</ele>
        <time>2021-11-20T17:23:51.218Z</time>
      </trkpt>
      <trkpt lat="47.509740" lon="7.923547">
        <ele>414.632455</ele>
        <time>2021-11-20T17:23:54.070Z</time>
      </trkpt>
      <trkpt lat="47.509817" lon="7.923703">
        <ele>414.900657</ele>
        <time>2021-11-20T17:23:57.385Z</time>
      </trkpt>
      <trkpt lat="47.509869" lon="7.923971">
        <ele>415.287716</ele>
        <time>2021-11-20T17:24:01.309Z</time>
      </trkpt>
      <trkpt lat="47.509886" lon="7.924134">
        <ele>415.516660</ele>
        <time>2021-11-20T17:24:04.619Z</time>
      </trkpt>
      <trkpt lat="47.509806" lon="7.924174">
        <ele>415.690188</ele>
        <time>2021-11-20T17:24:06.376Z</time>
      </trkpt>
      <trkpt lat="47.509676" lon="7.924247">
        <ele>415.975917</ele>
        <time>2021-11-20T17:24:09.292Z</time>
      </trkpt>
      <trkpt lat="47.509605" lon="7.924290">
        <ele>416.133563</ele>
        <time>2021-11-20T17:24:11.301Z</time>
      </trkpt>
      <trkpt lat="47.509572" lon="7.924311">
        <ele>416.207380</ele>
        <time>2021-11-20T17:24:12.517Z</time>
      </trkpt>
      <trkpt lat="47.509223" lon="7.924628">
        <ele>417.048533</ele>
        <time>2021-11-20T17:24:22.581Z</time>
      </trkpt>
      <trkpt lat="47.509032" lon="7.924863">
        <ele>417.554123</ele>
        <time>2021-11-20T17:24:28.530Z</time>
      </trkpt>
      <trkpt lat="47.509016" lon="7.924882">
        <ele>417.595879</ele>
        <time>2021-11-20T17:24:29.123Z</time>
      </trkpt>
      <trkpt lat="47.508667" lon="7.925295">
        <ele>418.505461</ele>
        <time>2021-11-20T17:24:40.224Z</time>
      </trkpt>
      <trkpt lat="47.508355" lon="7.925609">
        <ele>419.273498</ele>
        <time>2021-11-20T17:24:48.440Z</time>
      </trkpt>
      <trkpt lat="47.508106" lon="7.925799">
        <ele>419.843782</ele>
        <time>2021-11-20T17:24:54.594Z</time>
      </trkpt>
      <trkpt lat="47.508002" lon="7.925879">
        <ele>420.082380</ele>
        <time>2021-11-20T17:24:56.872Z</time>
      </trkpt>
      <trkpt lat="47.507856" lon="7.925990">
        <ele>420.416509</ele>
        <time>2021-11-20T17:25:00.616Z</time>
      </trkpt>
      <trkpt lat="47.507200" lon="7.926526">
        <ele>422.478252</ele>
        <time>2021-11-20T17:25:16.762Z</time>
      </trkpt>
      <trkpt lat="47.506112" lon="7.927414">
        <ele>426.133250</ele>
        <time>2021-11-20T17:25:51.726Z</time>
      </trkpt>
      <trkpt lat="47.505881" lon="7.927601">
        <ele>427.107929</ele>
        <time>2021-11-20T17:26:01.175Z</time>
      </trkpt>
      <trkpt lat="47.505868" lon="7.927611">
        <ele>427.162165</ele>
        <time>2021-11-20T17:26:01.654Z</time>
      </trkpt>
      <trkpt lat="47.505814" lon="7.927657">
        <ele>427.392809</ele>
        <time>2021-11-20T17:26:03.527Z</time>
      </trkpt>
      <trkpt lat="47.505253" lon="7.928170">
        <ele>429.833931</ele>
        <time>2021-11-20T17:26:25.259Z</time>
      </trkpt>
      <trkpt lat="47.504799" lon="7.928777">
        <ele>432.098684</ele>
        <time>2021-11-20T17:26:41.051Z</time>
      </trkpt>
      <trkpt lat="47.504724" lon="7.928871">
        <ele>432.462486</ele>
        <time>2021-11-20T17:26:45.568Z</time>
      </trkpt>
      <trkpt lat="47.504650" lon="7.928941">
        <ele>432.645971</ele>
        <time>2021-11-20T17:26:47.540Z</time>
      </trkpt>
      <trkpt lat="47.504005" lon="7.929312">
        <ele>433.646626</ele>
        <time>2021-11-20T17:27:02.879Z</time>
      </trkpt>
      <trkpt lat="47.503815" lon="7.929426">
        <ele>433.943092</ele>
        <time>2021-11-20T17:27:05.748Z</time>
      </trkpt>
      <trkpt lat="47.503598" lon="7.929585">
        <ele>434.293228</ele>
        <time>2021-11-20T17:27:11.159Z</time>
      </trkpt>
      <trkpt lat="47.503528" lon="7.929650">
        <ele>434.412720</ele>
        <time>2021-11-20T17:27:12.218Z</time>
      </trkpt>
      <trkpt lat="47.503485" lon="7.929688">
        <ele>434.485139</ele>
        <time>2021-11-20T17:27:13.762Z</time>
      </trkpt>
      <trkpt lat="47.503014" lon="7.930220">
        <ele>435.265737</ele>
        <time>2021-11-20T17:27:23.921Z</time>
      </trkpt>
      <trkpt lat="47.502761" lon="7.930610">
        <ele>435.577394</ele>
        <time>2021-11-20T17:27:30.276Z</time>
      </trkpt>
      <trkpt lat="47.502613" lon="7.930856">
        <ele>435.767266</ele>
        <time>2021-11-20T17:27:34.044Z</time>
      </trkpt>
      <trkpt lat="47.502400" lon="7.931256">
        <ele>436.060840</ele>
        <time>2021-11-20T17:27:40.844Z</time>
      </trkpt>
      <trkpt lat="47.502301" lon="7.931494">
        <ele>436.221943</ele>
        <time>2021-11-20T17:27:44.654Z</time>
      </trkpt>
      <trkpt lat="47.502023" lon="7.932158">
        <ele>436.672215</ele>
        <time>2021-11-20T17:27:53.862Z</time>
      </trkpt>
      <trkpt lat="47.501901" lon="7.932351">
        <ele>436.769458</ele>
        <time>2021-11-20T17:27:57.751Z</time>
      </trkpt>
      <trkpt lat="47.501794" lon="7.932466">
        <ele>436.835799</ele>
        <time>2021-11-20T17:27:59.553Z</time>
      </trkpt>
      <trkpt lat="47.501463" lon="7.932668">
        <ele>437.015425</ele>
        <time>2021-11-20T17:28:05.693Z</time>
      </trkpt>
      <trkpt lat="47.501075" lon="7.932885">
        <ele>437.223521</ele>
        <time>2021-11-20T17:28:13.214Z</time>
      </trkpt>
      <trkpt lat="47.500990" lon="7.932950">
        <ele>437.271521</ele>
        <time>2021-11-20T17:28:15.166Z</time>
      </trkpt>
      <trkpt lat="47.500843" lon="7.933102">
        <ele>437.361485</ele>
        <time>2021-11-20T17:28:17.887Z</time>
      </trkpt>
      <trkpt lat="47.500435" lon="7.933872">
        <ele>437.758754</ele>
        <time>2021-11-20T17:28:27.751Z</time>
      </trkpt>
      <trkpt lat="47.500386" lon="7.933937">
        <ele>437.813420</ele>
        <time>2021-11-20T17:28:28.587Z</time>
      </trkpt>
      <trkpt lat="47.500352" lon="7.933976">
        <ele>437.849158</ele>
        <time>2021-11-20T17:28:29.345Z</time>
      </trkpt>
      <trkpt lat="47.500275" lon="7.934029">
        <ele>437.919710</ele>
        <time>2021-11-20T17:28:30.498Z</time>
      </trkpt>
      <trkpt lat="47.500208" lon="7.934071">
        <ele>437.980162</ele>
        <time>2021-11-20T17:28:31.779Z</time>
      </trkpt>
      <trkpt lat="47.500193" lon="7.934023">
        <ele>438.009847</ele>
        <time>2021-11-20T17:28:32.241Z</time>
      </trkpt>
      <trkpt lat="47.500169" lon="7.933984">
        <ele>438.039458</ele>
        <time>2021-11-20T17:28:32.664Z</time>
      </trkpt>
      <trkpt lat="47.500138" lon="7.933956">
        <ele>438.069630</ele>
        <time>2021-11-20T17:28:33.182Z</time>
      </trkpt>
      <trkpt lat="47.500067" lon="7.933946">
        <ele>438.128886</ele>
        <time>2021-11-20T17:28:34.109Z</time>
      </trkpt>
      <trkpt lat="47.500034" lon="7.933965">
        <ele>438.158304</ele>
        <time>2021-11-20T17:28:34.924Z</time>
      </trkpt>
      <trkpt lat="47.499993" lon="7.933864">
        <ele>438.224443</ele>
        <time>2021-11-20T17:28:36.551Z</time>
      </trkpt>
      <trkpt lat="47.499822" lon="7.933272">
        <ele>438.585831</ele>
        <time>2021-11-20T17:28:44.429Z</time>
      </trkpt>
      <trkpt lat="47.499538" lon="7.932868">
        <ele>438.913090</ele>
        <time>2021-11-20T17:28:52.386Z</time>
      </trkpt>
      <trkpt lat="47.499421" lon="7.932805">
        <ele>439.016529</ele>
        <time>2021-11-20T17:28:55.437Z</time>
      </trkpt>
      <trkpt lat="47.499354" lon="7.932769">
        <ele>439.075749</ele>
        <time>2021-11-20T17:28:57.165Z</time>
      </trkpt>
      <trkpt lat="47.499088" lon="7.932741">
        <ele>439.540680</ele>
        <time>2021-11-20T17:29:03.042Z</time>
      </trkpt>
      <trkpt lat="47.498997" lon="7.932758">
        <ele>439.705309</ele>
        <time>2021-11-20T17:29:05.079Z</time>
      </trkpt>
      <trkpt lat="47.498925" lon="7.932781">
        <ele>439.837516</ele>
        <time>2021-11-20T17:29:06.786Z</time>
      </trkpt>
      <trkpt lat="47.498481" lon="7.933011">
        <ele>440.681836</ele>
        <time>2021-11-20T17:29:16.040Z</time>
      </trkpt>
      <trkpt lat="47.498431" lon="7.932995">
        <ele>440.773654</ele>
        <time>2021-11-20T17:29:17.263Z</time>
      </trkpt>
      <trkpt lat="47.498391" lon="7.932972">
        <ele>440.850676</ele>
        <time>2021-11-20T17:29:18.181Z</time>
      </trkpt>
      <trkpt lat="47.498196" lon="7.932613">
        <ele>441.409263</ele>
        <time>2021-11-20T17:29:24.905Z</time>
      </trkpt>
      <trkpt lat="47.498138" lon="7.932522">
        <ele>441.560969</ele>
        <time>2021-11-20T17:29:26.905Z</time>
      </trkpt>
      <trkpt lat="47.498068" lon="7.932426">
        <ele>441.732252</ele>
        <time>2021-11-20T17:29:29.353Z</time>
      </trkpt>
      <trkpt lat="47.497907" lon="7.932254">
        <ele>442.088637</ele>
        <time>2021-11-20T17:29:34.055Z</time>
      </trkpt>
      <trkpt lat="47.497676" lon="7.932013">
        <ele>442.555630</ele>
        <time>2021-11-20T17:29:40.533Z</time>
      </trkpt>
      <trkpt lat="47.497430" lon="7.931757">
        <ele>443.017749</ele>
        <time>2021-11-20T17:29:48.125Z</time>
      </trkpt>
      <trkpt lat="47.497221" lon="7.931528">
        <ele>443.417352</ele>
        <time>2021-11-20T17:29:54.121Z</time>
      </trkpt>
      <trkpt lat="47.497104" lon="7.931414">
        <ele>443.632610</ele>
        <time>2021-11-20T17:29:56.919Z</time>
      </trkpt>
      <trkpt lat="47.496998" lon="7.931330">
        <ele>443.817381</ele>
        <time>2021-11-20T17:29:59.331Z</time>
      </trkpt>
      <trkpt lat="47.496424" lon="7.931075">
        <ele>444.738337</ele>
        <time>2021-11-20T17:30:10.079Z</time>
      </trkpt>
      <trkpt lat="47.496205" lon="7.930904">
        <ele>445.132944</ele>
        <time>2021-11-20T17:30:14.099Z</time>
      </trkpt>
      <trkpt lat="47.496162" lon="7.930842">
        <ele>445.258630</ele>
        <time>2021-11-20T17:30:15.665Z</time>
      </trkpt>
      <trkpt lat="47.496117" lon="7.930763">
        <ele>445.404798</ele>
        <time>2021-11-20T17:30:16.933Z</time>
      </trkpt>
      <trkpt lat="47.496051" lon="7.930607">
        <ele>445.665166</ele>
        <time>2021-11-20T17:30:19.715Z</time>
      </trkpt>
      <trkpt lat="47.495985" lon="7.930428">
        <ele>445.953628</ele>
        <time>2021-11-20T17:30:22.547Z</time>
      </trkpt>
      <trkpt lat="47.495801" lon="7.929891">
        <ele>446.805360</ele>
        <time>2021-11-20T17:30:32.204Z</time>
      </trkpt>
      <trkpt lat="47.495622" lon="7.929400">
        <ele>447.594582</ele>
        <time>2021-11-20T17:30:40.817Z</time>
      </trkpt>
      <trkpt lat="47.495562" lon="7.929221">
        <ele>447.877242</ele>
        <time>2021-11-20T17:30:43.777Z</time>
      </trkpt>
      <trkpt lat="47.495530" lon="7.929063">
        <ele>448.110574</ele>
        <time>2021-11-20T17:30:46.251Z</time>
      </trkpt>
      <trkpt lat="47.495455" lon="7.928595">
        <ele>448.790972</ele>
        <time>2021-11-20T17:30:55.078Z</time>
      </trkpt>
      <trkpt lat="47.495268" lon="7.927740">
        <ele>450.999350</ele>
        <time>2021-11-20T17:31:12.087Z</time>
      </trkpt>
      <trkpt lat="47.495031" lon="7.927006">
        <ele>453.036616</ele>
        <time>2021-11-20T17:31:28.989Z</time>
      </trkpt>
      <trkpt lat="47.494945" lon="7.926765">
        <ele>453.719157</ele>
        <time>2021-11-20T17:31:35.633Z</time>
      </trkpt>
      <trkpt lat="47.494515" lon="7.925509">
        <ele>457.162163</ele>
        <time>2021-11-20T17:32:04.052Z</time>
      </trkpt>
      <trkpt lat="47.494438" lon="7.925289">
        <ele>457.752874</ele>
        <time>2021-11-20T17:32:09.485Z</time>
      </trkpt>
      <trkpt lat="47.494034" lon="7.924101">
        <ele>460.923788</ele>
        <time>2021-11-20T17:32:34.548Z</time>
      </trkpt>
      <trkpt lat="47.493708" lon="7.923049">
        <ele>463.731792</ele>
        <time>2021-11-20T17:32:56.120Z</time>
      </trkpt>
      <trkpt lat="47.493397" lon="7.921760">
        <ele>467.082080</ele>
        <time>2021-11-20T17:33:23.100Z</time>
      </trkpt>
      <trkpt lat="47.493307" lon="7.921373">
        <ele>468.083907</ele>
        <time>2021-11-20T17:33:31.594Z</time>
      </trkpt>
      <trkpt lat="47.493236" lon="7.921091">
        <ele>468.946952</ele>
        <time>2021-11-20T17:33:37.975Z</time>
      </trkpt>
      <trkpt lat="47.493132" lon="7.920716">
        <ele>470.220723</ele>
        <time>2021-11-20T17:33:47.025Z</time>
      </trkpt>
      <trkpt lat="47.492813" lon="7.919900">
        <ele>473.183116</ele>
        <time>2021-11-20T17:34:08.508Z</time>
      </trkpt>
      <trkpt lat="47.492584" lon="7.919482">
        <ele>474.874122</ele>
        <time>2021-11-20T17:34:21.280Z</time>
      </trkpt>
      <trkpt lat="47.492227" lon="7.918989">
        <ele>477.104591</ele>
        <time>2021-11-20T17:34:38.182Z</time>
      </trkpt>
      <trkpt lat="47.491324" lon="7.917985">
        <ele>481.834295</ele>
        <time>2021-11-20T17:35:14.967Z</time>
      </trkpt>
      <trkpt lat="47.490822" lon="7.917158">
        <ele>484.728113</ele>
        <time>2021-11-20T17:35:37.127Z</time>
      </trkpt>
      <trkpt lat="47.490607" lon="7.916690">
        <ele>485.759809</ele>
        <time>2021-11-20T17:35:47.325Z</time>
      </trkpt>
      <trkpt lat="47.490429" lon="7.916164">
        <ele>486.832268</ele>
        <time>2021-11-20T17:35:57.194Z</time>
      </trkpt>
      <trkpt lat="47.490283" lon="7.915612">
        <ele>487.912941</ele>
        <time>2021-11-20T17:36:07.022Z</time>
      </trkpt>
      <trkpt lat="47.489987" lon="7.914083">
        <ele>490.688107</ele>
        <time>2021-11-20T17:36:32.803Z</time>
      </trkpt>
      <trkpt lat="47.489951" lon="7.913893">
        <ele>491.021327</ele>
        <time>2021-11-20T17:36:35.796Z</time>
      </trkpt>
      <trkpt lat="47.489922" lon="7.913738">
        <ele>491.292918</ele>
        <time>2021-11-20T17:36:38.302Z</time>
      </trkpt>
      <trkpt lat="47.489843" lon="7.913398">
        <ele>491.900059</ele>
        <time>2021-11-20T17:36:43.648Z</time>
      </trkpt>
      <trkpt lat="47.489607" lon="7.912646">
        <ele>493.300213</ele>
        <time>2021-11-20T17:36:57.877Z</time>
      </trkpt>
      <trkpt lat="47.489216" lon="7.911685">
        <ele>496.124212</ele>
        <time>2021-11-20T17:37:20.191Z</time>
      </trkpt>
      <trkpt lat="47.489040" lon="7.911300">
        <ele>497.372525</ele>
        <time>2021-11-20T17:37:29.658Z</time>
      </trkpt>
      <trkpt lat="47.488908" lon="7.911009">
        <ele>498.313773</ele>
        <time>2021-11-20T17:37:38.219Z</time>
      </trkpt>
      <trkpt lat="47.488699" lon="7.910498">
        <ele>499.917895</ele>
        <time>2021-11-20T17:37:51.882Z</time>
      </trkpt>
      <trkpt lat="47.488366" lon="7.909318">
        <ele>502.981832</ele>
        <time>2021-11-20T17:38:17.754Z</time>
      </trkpt>
      <trkpt lat="47.488241" lon="7.908835">
        <ele>504.171818</ele>
        <time>2021-11-20T17:38:26.941Z</time>
      </trkpt>
      <trkpt lat="47.488185" lon="7.908663">
        <ele>504.611091</ele>
        <time>2021-11-20T17:38:30.993Z</time>
      </trkpt>
      <trkpt lat="47.488080" lon="7.908344">
        <ele>505.427480</ele>
        <time>2021-11-20T17:38:36.954Z</time>
      </trkpt>
      <trkpt lat="47.487763" lon="7.907711">
        <ele>507.274759</ele>
        <time>2021-11-20T17:38:52.011Z</time>
      </trkpt>
      <trkpt lat="47.487587" lon="7.907459">
        <ele>508.191258</ele>
        <time>2021-11-20T17:38:58.471Z</time>
      </trkpt>
      <trkpt lat="47.487378" lon="7.907191">
        <ele>509.226209</ele>
        <time>2021-11-20T17:39:05.669Z</time>
      </trkpt>
      <trkpt lat="47.487197" lon="7.906946">
        <ele>510.144211</ele>
        <time>2021-11-20T17:39:11.811Z</time>
      </trkpt>
      <trkpt lat="47.486969" lon="7.906583">
        <ele>511.397527</ele>
        <time>2021-11-20T17:39:20.119Z</time>
      </trkpt>
      <trkpt lat="47.486769" lon="7.905976">
        <ele>513.105357</ele>
        <time>2021-11-20T17:39:36.148Z</time>
      </trkpt>
      <trkpt lat="47.486724" lon="7.905485">
        <ele>514.817898</ele>
        <time>2021-11-20T17:39:48.820Z</time>
      </trkpt>
      <trkpt lat="47.486755" lon="7.904487">
        <ele>518.923254</ele>
        <time>2021-11-20T17:40:15.687Z</time>
      </trkpt>
      <trkpt lat="47.486721" lon="7.904326">
        <ele>519.616396</ele>
        <time>2021-11-20T17:40:20.701Z</time>
      </trkpt>
      <trkpt lat="47.486688" lon="7.904238">
        <ele>520.029957</ele>
        <time>2021-11-20T17:40:23.857Z</time>
      </trkpt>
      <trkpt lat="47.486480" lon="7.904016">
        <ele>521.589446</ele>
        <time>2021-11-20T17:40:32.960Z</time>
      </trkpt>
      <trkpt lat="47.486247" lon="7.904043">
        <ele>523.010637</ele>
        <time>2021-11-20T17:40:41.628Z</time>
      </trkpt>
      <trkpt lat="47.486049" lon="7.904262">
        <ele>524.513816</ele>
        <time>2021-11-20T17:40:53.024Z</time>
      </trkpt>
      <trkpt lat="47.485593" lon="7.905145">
        <ele>527.362638</ele>
        <time>2021-11-20T17:41:22.791Z</time>
      </trkpt>
      <trkpt lat="47.485331" lon="7.905337">
        <ele>528.464784</ele>
        <time>2021-11-20T17:41:31.374Z</time>
      </trkpt>
      <trkpt lat="47.485073" lon="7.905345">
        <ele>529.437586</ele>
        <time>2021-11-20T17:41:37.987Z</time>
      </trkpt>
      <trkpt lat="47.485049" lon="7.905336">
        <ele>529.530920</ele>
        <time>2021-11-20T17:41:39.584Z</time>
      </trkpt>
      <trkpt lat="47.484936" lon="7.905289">
        <ele>529.973406</ele>
        <time>2021-11-20T17:41:42.212Z</time>
      </trkpt>
      <trkpt lat="47.484713" lon="7.905133">
        <ele>530.903260</ele>
        <time>2021-11-20T17:41:47.832Z</time>
      </trkpt>
      <trkpt lat="47.484481" lon="7.904947">
        <ele>530.869477</ele>
        <time>2021-11-20T17:41:51.209Z</time>
      </trkpt>
      <trkpt lat="47.484248" lon="7.904856">
        <ele>530.100499</ele>
        <time>2021-11-20T17:41:54.237Z</time>
      </trkpt>
      <trkpt lat="47.484124" lon="7.904824">
        <ele>529.698835</ele>
        <time>2021-11-20T17:41:55.715Z</time>
      </trkpt>
      <trkpt lat="47.484064" lon="7.904808">
        <ele>529.504287</ele>
        <time>2021-11-20T17:41:56.383Z</time>
      </trkpt>
      <trkpt lat="47.484005" lon="7.904793">
        <ele>529.313256</ele>
        <time>2021-11-20T17:41:57.115Z</time>
      </trkpt>
      <trkpt lat="47.483385" lon="7.904708">
        <ele>527.326326</ele>
        <time>2021-11-20T17:42:03.569Z</time>
      </trkpt>
      <trkpt lat="47.483329" lon="7.904705">
        <ele>527.147509</ele>
        <time>2021-11-20T17:42:04.077Z</time>
      </trkpt>
      <trkpt lat="47.483101" lon="7.904680">
        <ele>526.417953</ele>
        <time>2021-11-20T17:42:06.206Z</time>
      </trkpt>
      <trkpt lat="47.482433" lon="7.904538">
        <ele>522.707860</ele>
        <time>2021-11-20T17:42:12.177Z</time>
      </trkpt>
      <trkpt lat="47.482157" lon="7.904346">
        <ele>520.601560</ele>
        <time>2021-11-20T17:42:14.891Z</time>
      </trkpt>
      <trkpt lat="47.481709" lon="7.903892">
        <ele>516.851439</ele>
        <time>2021-11-20T17:42:19.730Z</time>
      </trkpt>
      <trkpt lat="47.481588" lon="7.903776">
        <ele>515.855705</ele>
        <time>2021-11-20T17:42:21.015Z</time>
      </trkpt>
      <trkpt lat="47.481478" lon="7.903693">
        <ele>515.002931</ele>
        <time>2021-11-20T17:42:22.148Z</time>
      </trkpt>
      <trkpt lat="47.480980" lon="7.903461">
        <ele>511.808193</ele>
        <time>2021-11-20T17:42:26.978Z</time>
      </trkpt>
      <trkpt lat="47.478367" lon="7.903166">
        <ele>497.478271</ele>
        <time>2021-11-20T17:42:51.611Z</time>
      </trkpt>
      <trkpt lat="47.478182" lon="7.903109">
        <ele>496.403228</ele>
        <time>2021-11-20T17:42:53.354Z</time>
      </trkpt>
      <trkpt lat="47.478118" lon="7.903075">
        <ele>496.016373</ele>
        <time>2021-11-20T17:42:53.953Z</time>
      </trkpt>
      <trkpt lat="47.476982" lon="7.902234">
        <ele>488.303267</ele>
        <time>2021-11-20T17:43:05.446Z</time>
      </trkpt>
      <trkpt lat="47.476536" lon="7.901977">
        <ele>485.292340</ele>
        <time>2021-11-20T17:43:09.814Z</time>
      </trkpt>
      <trkpt lat="47.476364" lon="7.901870">
        <ele>484.118587</ele>
        <time>2021-11-20T17:43:11.509Z</time>
      </trkpt>
      <trkpt lat="47.475300" lon="7.901112">
        <ele>477.330585</ele>
        <time>2021-11-20T17:43:22.418Z</time>
      </trkpt>
      <trkpt lat="47.475163" lon="7.901034">
        <ele>476.517030</ele>
        <time>2021-11-20T17:43:23.744Z</time>
      </trkpt>
      <trkpt lat="47.474888" lon="7.900841">
        <ele>474.830153</ele>
        <time>2021-11-20T17:43:26.596Z</time>
      </trkpt>
      <trkpt lat="47.474617" lon="7.900560">
        <ele>472.996084</ele>
        <time>2021-11-20T17:43:29.726Z</time>
      </trkpt>
      <trkpt lat="47.474336" lon="7.900125">
        <ele>470.931583</ele>
        <time>2021-11-20T17:43:33.567Z</time>
      </trkpt>
      <trkpt lat="47.474186" lon="7.899915">
        <ele>469.945997</ele>
        <time>2021-11-20T17:43:35.502Z</time>
      </trkpt>
      <trkpt lat="47.474087" lon="7.899774">
        <ele>469.290163</ele>
        <time>2021-11-20T17:43:36.813Z</time>
      </trkpt>
      <trkpt lat="47.473931" lon="7.899567">
        <ele>468.290071</ele>
        <time>2021-11-20T17:43:38.773Z</time>
      </trkpt>
      <trkpt lat="47.473317" lon="7.898945">
        <ele>464.738628</ele>
        <time>2021-11-20T17:43:46.014Z</time>
      </trkpt>
      <trkpt lat="47.471910" lon="7.898392">
        <ele>457.218976</ele>
        <time>2021-11-20T17:43:59.607Z</time>
      </trkpt>
      <trkpt lat="47.471825" lon="7.898370">
        <ele>456.766069</ele>
        <time>2021-11-20T17:44:00.395Z</time>
      </trkpt>
      <trkpt lat="47.471597" lon="7.898344">
        <ele>455.565840</ele>
        <time>2021-11-20T17:44:02.547Z</time>
      </trkpt>
      <trkpt lat="47.471002" lon="7.898222">
        <ele>452.697856</ele>
        <time>2021-11-20T17:44:08.142Z</time>
      </trkpt>
      <trkpt lat="47.469999" lon="7.897879">
        <ele>448.216395</ele>
        <time>2021-11-20T17:44:17.893Z</time>
      </trkpt>
      <trkpt lat="47.469806" lon="7.897795">
        <ele>447.340609</ele>
        <time>2021-11-20T17:44:19.922Z</time>
      </trkpt>
      <trkpt lat="47.469534" lon="7.897638">
        <ele>446.181350</ele>
        <time>2021-11-20T17:44:23.008Z</time>
      </trkpt>
      <trkpt lat="47.469598" lon="7.897405">
        <ele>445.893356</ele>
        <time>2021-11-20T17:44:24.799Z</time>
      </trkpt>
      <trkpt lat="47.469652" lon="7.897139">
        <ele>445.575319</ele>
        <time>2021-11-20T17:44:26.823Z</time>
      </trkpt>
      <trkpt lat="47.469678" lon="7.896938">
        <ele>445.340977</ele>
        <time>2021-11-20T17:44:28.286Z</time>
      </trkpt>
      <trkpt lat="47.469692" lon="7.896826">
        <ele>445.210551</ele>
        <time>2021-11-20T17:44:29.182Z</time>
      </trkpt>
      <trkpt lat="47.469738" lon="7.896220">
        <ele>444.512259</ele>
        <time>2021-11-20T17:44:33.781Z</time>
      </trkpt>
      <trkpt lat="47.469747" lon="7.895922">
        <ele>444.170678</ele>
        <time>2021-11-20T17:44:36.021Z</time>
      </trkpt>
      <trkpt lat="47.469734" lon="7.895575">
        <ele>443.772719</ele>
        <time>2021-11-20T17:44:39.060Z</time>
      </trkpt>
      <trkpt lat="47.469728" lon="7.895384">
        <ele>443.553768</ele>
        <time>2021-11-20T17:44:40.656Z</time>
      </trkpt>
      <trkpt lat="47.469714" lon="7.895204">
        <ele>443.346290</ele>
        <time>2021-11-20T17:44:42.328Z</time>
      </trkpt>
      <trkpt lat="47.469691" lon="7.894970">
        <ele>443.152724</ele>
        <time>2021-11-20T17:44:44.464Z</time>
      </trkpt>
      <trkpt lat="47.469658" lon="7.894567">
        <ele>442.963621</ele>
        <time>2021-11-20T17:44:48.130Z</time>
      </trkpt>
      <trkpt lat="47.469496" lon="7.893085">
        <ele>442.264289</ele>
        <time>2021-11-20T17:45:01.345Z</time>
      </trkpt>
      <trkpt lat="47.469288" lon="7.891996">
        <ele>441.614848</ele>
        <time>2021-11-20T17:45:10.857Z</time>
      </trkpt>
      <trkpt lat="47.468951" lon="7.890216">
        <ele>440.294033</ele>
        <time>2021-11-20T17:45:25.860Z</time>
      </trkpt>
      <trkpt lat="47.468718" lon="7.888938">
        <ele>439.659838</ele>
        <time>2021-11-20T17:45:36.738Z</time>
      </trkpt>
      <trkpt lat="47.468546" lon="7.888014">
        <ele>439.272753</ele>
        <time>2021-11-20T17:45:45.065Z</time>
      </trkpt>
      <trkpt lat="47.468250" lon="7.886308">
        <ele>440.069857</ele>
        <time>2021-11-20T17:46:03.279Z</time>
      </trkpt>
      <trkpt lat="47.468174" lon="7.885724">
        <ele>440.674367</ele>
        <time>2021-11-20T17:46:12.017Z</time>
      </trkpt>
      <trkpt lat="47.468160" lon="7.885412">
        <ele>440.992199</ele>
        <time>2021-11-20T17:46:17.290Z</time>
      </trkpt>
      <trkpt lat="47.468160" lon="7.885131">
        <ele>441.277824</ele>
        <time>2021-11-20T17:46:21.602Z</time>
      </trkpt>
      <trkpt lat="47.468170" lon="7.884753">
        <ele>441.662338</ele>
        <time>2021-11-20T17:46:28.044Z</time>
      </trkpt>
      <trkpt lat="47.468175" lon="7.884520">
        <ele>442.098148</ele>
        <time>2021-11-20T17:46:32.264Z</time>
      </trkpt>
      <trkpt lat="47.468175" lon="7.884477">
        <ele>442.184366</ele>
        <time>2021-11-20T17:46:33.774Z</time>
      </trkpt>
      <trkpt lat="47.468085" lon="7.883534">
        <ele>444.093902</ele>
        <time>2021-11-20T17:46:52.905Z</time>
      </trkpt>
      <trkpt lat="47.467832" lon="7.882502">
        <ele>446.295014</ele>
        <time>2021-11-20T17:47:14.419Z</time>
      </trkpt>
      <trkpt lat="47.467789" lon="7.882188">
        <ele>446.937399</ele>
        <time>2021-11-20T17:47:20.483Z</time>
      </trkpt>
      <trkpt lat="47.467755" lon="7.881902">
        <ele>446.493509</ele>
        <time>2021-11-20T17:47:24.605Z</time>
      </trkpt>
      <trkpt lat="47.467712" lon="7.880819">
        <ele>444.112384</ele>
        <time>2021-11-20T17:47:33.357Z</time>
      </trkpt>
      <trkpt lat="47.467695" lon="7.879712">
        <ele>441.682051</ele>
        <time>2021-11-20T17:47:40.226Z</time>
      </trkpt>
      <trkpt lat="47.467758" lon="7.879308">
        <ele>440.206522</ele>
        <time>2021-11-20T17:47:42.711Z</time>
      </trkpt>
      <trkpt lat="47.467814" lon="7.879126">
        <ele>439.173669</ele>
        <time>2021-11-20T17:47:43.880Z</time>
      </trkpt>
      <trkpt lat="47.467908" lon="7.878819">
        <ele>437.432898</ele>
        <time>2021-11-20T17:47:45.907Z</time>
      </trkpt>
      <trkpt lat="47.468067" lon="7.878427">
        <ele>435.071662</ele>
        <time>2021-11-20T17:47:48.684Z</time>
      </trkpt>
      <trkpt lat="47.468104" lon="7.878354">
        <ele>434.600396</ele>
        <time>2021-11-20T17:47:49.194Z</time>
      </trkpt>
      <trkpt lat="47.468268" lon="7.878083">
        <ele>432.721707</ele>
        <time>2021-11-20T17:47:51.399Z</time>
      </trkpt>
      <trkpt lat="47.468308" lon="7.877998">
        <ele>432.186769</ele>
        <time>2021-11-20T17:47:52.038Z</time>
      </trkpt>
      <trkpt lat="47.468327" lon="7.877957">
        <ele>431.930018</ele>
        <time>2021-11-20T17:47:52.316Z</time>
      </trkpt>
      <trkpt lat="47.468377" lon="7.877826">
        <ele>431.152989</ele>
        <time>2021-11-20T17:47:53.193Z</time>
      </trkpt>
      <trkpt lat="47.468438" lon="7.877521">
        <ele>429.510137</ele>
        <time>2021-11-20T17:47:55.181Z</time>
      </trkpt>
      <trkpt lat="47.468557" lon="7.876917">
        <ele>426.867391</ele>
        <time>2021-11-20T17:47:58.888Z</time>
      </trkpt>
      <trkpt lat="47.468639" lon="7.876439">
        <ele>425.622907</ele>
        <time>2021-11-20T17:48:02.083Z</time>
      </trkpt>
      <trkpt lat="47.468698" lon="7.876140">
        <ele>424.836882</ele>
        <time>2021-11-20T17:48:04.184Z</time>
      </trkpt>
      <trkpt lat="47.468806" lon="7.875696">
        <ele>423.646107</ele>
        <time>2021-11-20T17:48:07.464Z</time>
      </trkpt>
      <trkpt lat="47.468925" lon="7.875205">
        <ele>422.329830</ele>
        <time>2021-11-20T17:48:11.397Z</time>
      </trkpt>
      <trkpt lat="47.468989" lon="7.874967">
        <ele>421.683457</ele>
        <time>2021-11-20T17:48:13.193Z</time>
      </trkpt>
      <trkpt lat="47.469050" lon="7.874738">
        <ele>421.062325</ele>
        <time>2021-11-20T17:48:15.078Z</time>
      </trkpt>
      <trkpt lat="47.469068" lon="7.874689">
        <ele>420.921595</ele>
        <time>2021-11-20T17:48:15.511Z</time>
      </trkpt>
      <trkpt lat="47.469097" lon="7.874606">
        <ele>420.708895</ele>
        <time>2021-11-20T17:48:16.146Z</time>
      </trkpt>
      <trkpt lat="47.469136" lon="7.874516">
        <ele>420.572235</ele>
        <time>2021-11-20T17:48:16.900Z</time>
      </trkpt>
      <trkpt lat="47.469173" lon="7.874432">
        <ele>420.444069</ele>
        <time>2021-11-20T17:48:17.653Z</time>
      </trkpt>
      <trkpt lat="47.469224" lon="7.874328">
        <ele>420.279824</ele>
        <time>2021-11-20T17:48:18.695Z</time>
      </trkpt>
      <trkpt lat="47.469422" lon="7.873965">
        <ele>419.683561</ele>
        <time>2021-11-20T17:48:22.143Z</time>
      </trkpt>
      <trkpt lat="47.469489" lon="7.873809">
        <ele>419.447295</ele>
        <time>2021-11-20T17:48:23.585Z</time>
      </trkpt>
      <trkpt lat="47.469626" lon="7.873477">
        <ele>418.950062</ele>
        <time>2021-11-20T17:48:26.461Z</time>
      </trkpt>
      <trkpt lat="47.469682" lon="7.873326">
        <ele>418.729893</ele>
        <time>2021-11-20T17:48:27.801Z</time>
      </trkpt>
      <trkpt lat="47.469710" lon="7.873249">
        <ele>418.618123</ele>
        <time>2021-11-20T17:48:28.382Z</time>
      </trkpt>
      <trkpt lat="47.469969" lon="7.872276">
        <ele>417.291309</ele>
        <time>2021-11-20T17:48:36.368Z</time>
      </trkpt>
      <trkpt lat="47.470156" lon="7.871491">
        <ele>416.439757</ele>
        <time>2021-11-20T17:48:42.665Z</time>
      </trkpt>
      <trkpt lat="47.470217" lon="7.871214">
        <ele>416.141697</ele>
        <time>2021-11-20T17:48:44.830Z</time>
      </trkpt>
      <trkpt lat="47.470245" lon="7.871088">
        <ele>416.005999</ele>
        <time>2021-11-20T17:48:45.828Z</time>
      </trkpt>
      <trkpt lat="47.470316" lon="7.870753">
        <ele>415.646807</ele>
        <time>2021-11-20T17:48:48.703Z</time>
      </trkpt>
      <trkpt lat="47.470333" lon="7.870669">
        <ele>415.557098</ele>
        <time>2021-11-20T17:48:49.320Z</time>
      </trkpt>
      <trkpt lat="47.470350" lon="7.870570">
        <ele>415.452593</ele>
        <time>2021-11-20T17:48:50.113Z</time>
      </trkpt>
      <trkpt lat="47.470379" lon="7.870338">
        <ele>415.211209</ele>
        <time>2021-11-20T17:48:52.100Z</time>
      </trkpt>
      <trkpt lat="47.470397" lon="7.870147">
        <ele>415.013907</ele>
        <time>2021-11-20T17:48:54.194Z</time>
      </trkpt>
      <trkpt lat="47.470378" lon="7.869626">
        <ele>414.549640</ele>
        <time>2021-11-20T17:49:00.209Z</time>
      </trkpt>
      <trkpt lat="47.470309" lon="7.869201">
        <ele>414.343863</ele>
        <time>2021-11-20T17:49:05.570Z</time>
      </trkpt>
      <trkpt lat="47.470234" lon="7.868884">
        <ele>414.185744</ele>
        <time>2021-11-20T17:49:09.581Z</time>
      </trkpt>
      <trkpt lat="47.470127" lon="7.868484">
        <ele>413.983217</ele>
        <time>2021-11-20T17:49:14.996Z</time>
      </trkpt>
      <trkpt lat="47.469934" lon="7.867585">
        <ele>413.539140</ele>
        <time>2021-11-20T17:49:26.946Z</time>
      </trkpt>
      <trkpt lat="47.469916" lon="7.867497">
        <ele>413.495855</ele>
        <time>2021-11-20T17:49:28.111Z</time>
      </trkpt>
      <trkpt lat="47.469915" lon="7.867494">
        <ele>413.494280</ele>
        <time>2021-11-20T17:49:28.165Z</time>
      </trkpt>
      <trkpt lat="47.469808" lon="7.866690">
        <ele>412.902446</ele>
        <time>2021-11-20T17:49:37.887Z</time>
      </trkpt>
      <trkpt lat="47.469764" lon="7.866452">
        <ele>412.689662</ele>
        <time>2021-11-20T17:49:40.900Z</time>
      </trkpt>
      <trkpt lat="47.469710" lon="7.866208">
        <ele>412.468251</ele>
        <time>2021-11-20T17:49:43.865Z</time>
      </trkpt>
      <trkpt lat="47.469629" lon="7.865918">
        <ele>412.197652</ele>
        <time>2021-11-20T17:49:47.622Z</time>
      </trkpt>
      <trkpt lat="47.469305" lon="7.864692">
        <ele>411.062441</ele>
        <time>2021-11-20T17:50:02.022Z</time>
      </trkpt>
      <trkpt lat="47.469011" lon="7.863405">
        <ele>409.416300</ele>
        <time>2021-11-20T17:50:16.733Z</time>
      </trkpt>
      <trkpt lat="47.468986" lon="7.863323">
        <ele>409.307277</ele>
        <time>2021-11-20T17:50:17.589Z</time>
      </trkpt>
      <trkpt lat="47.468943" lon="7.863195">
        <ele>409.134041</ele>
        <time>2021-11-20T17:50:19.137Z</time>
      </trkpt>
      <trkpt lat="47.468859" lon="7.862978">
        <ele>408.830971</ele>
        <time>2021-11-20T17:50:21.900Z</time>
      </trkpt>
      <trkpt lat="47.468825" lon="7.862900">
        <ele>408.718486</ele>
        <time>2021-11-20T17:50:22.877Z</time>
      </trkpt>
      <trkpt lat="47.468543" lon="7.862357">
        <ele>407.888579</ele>
        <time>2021-11-20T17:50:30.287Z</time>
      </trkpt>
      <trkpt lat="47.468224" lon="7.861805">
        <ele>407.495192</ele>
        <time>2021-11-20T17:50:38.449Z</time>
      </trkpt>
      <trkpt lat="47.467944" lon="7.861300">
        <ele>407.168756</ele>
        <time>2021-11-20T17:50:45.822Z</time>
      </trkpt>
      <trkpt lat="47.467266" lon="7.860107">
        <ele>406.579711</ele>
        <time>2021-11-20T17:51:06.862Z</time>
      </trkpt>
      <trkpt lat="47.467047" lon="7.859682">
        <ele>406.745456</ele>
        <time>2021-11-20T17:51:14.329Z</time>
      </trkpt>
      <trkpt lat="47.466922" lon="7.859398">
        <ele>406.850565</ele>
        <time>2021-11-20T17:51:18.974Z</time>
      </trkpt>
      <trkpt lat="47.466861" lon="7.859463">
        <ele>406.885057</ele>
        <time>2021-11-20T17:51:24.158Z</time>
      </trkpt>
      <trkpt lat="47.466684" lon="7.859660">
        <ele>406.986685</ele>
        <time>2021-11-20T17:51:27.875Z</time>
      </trkpt>
      <trkpt lat="47.466499" lon="7.859736">
        <ele>407.074776</ele>
        <time>2021-11-20T17:51:31.600Z</time>
      </trkpt>
      <trkpt lat="47.466367" lon="7.859349">
        <ele>407.209221</ele>
        <time>2021-11-20T17:51:38.154Z</time>
      </trkpt>
      <trkpt lat="47.466192" lon="7.858910">
        <ele>407.409122</ele>
        <time>2021-11-20T17:51:46.040Z</time>
      </trkpt>
      <trkpt lat="47.466155" lon="7.858859">
        <ele>407.459987</ele>
        <time>2021-11-20T17:51:47.320Z</time>
      </trkpt>
      <trkpt lat="47.465862" lon="7.858578">
        <ele>407.811191</ele>
        <time>2021-11-20T17:51:53.393Z</time>
      </trkpt>
      <trkpt lat="47.465229" lon="7.858145">
        <ele>408.512614</ele>
        <time>2021-11-20T17:52:06.734Z</time>
      </trkpt>
      <trkpt lat="47.465155" lon="7.858104">
        <ele>408.592089</ele>
        <time>2021-11-20T17:52:08.495Z</time>
      </trkpt>
      <trkpt lat="47.465111" lon="7.858014">
        <ele>408.667608</ele>
        <time>2021-11-20T17:52:09.528Z</time>
      </trkpt>
      <trkpt lat="47.465021" lon="7.857835">
        <ele>408.819287</ele>
        <time>2021-11-20T17:52:12.448Z</time>
      </trkpt>
      <trkpt lat="47.464877" lon="7.857457">
        <ele>409.114299</ele>
        <time>2021-11-20T17:52:18.346Z</time>
      </trkpt>
      <trkpt lat="47.464779" lon="7.857320">
        <ele>409.210300</ele>
        <time>2021-11-20T17:52:21.740Z</time>
      </trkpt>
      <trkpt lat="47.464641" lon="7.857232">
        <ele>409.306363</ele>
        <time>2021-11-20T17:52:23.817Z</time>
      </trkpt>
      <trkpt lat="47.464510" lon="7.857563">
        <ele>409.472114</ele>
        <time>2021-11-20T17:52:29.604Z</time>
      </trkpt>
      <trkpt lat="47.464354" lon="7.858424">
        <ele>409.857330</ele>
        <time>2021-11-20T17:52:38.195Z</time>
      </trkpt>
      <trkpt lat="47.464375" lon="7.858610">
        <ele>409.938824</ele>
        <time>2021-11-20T17:52:41.700Z</time>
      </trkpt>
      <trkpt lat="47.464294" lon="7.858576">
        <ele>409.992647</ele>
        <time>2021-11-20T17:52:42.546Z</time>
      </trkpt>
      <trkpt lat="47.464083" lon="7.858541">
        <ele>410.128371</ele>
        <time>2021-11-20T17:52:47.210Z</time>
      </trkpt>
      <trkpt lat="47.463904" lon="7.858706">
        <ele>410.263194</ele>
        <time>2021-11-20T17:52:50.199Z</time>
      </trkpt>
      <trkpt lat="47.463612" lon="7.859016">
        <ele>410.233239</ele>
        <time>2021-11-20T17:52:56.765Z</time>
      </trkpt>
      <trkpt lat="47.463411" lon="7.859675">
        <ele>410.143951</ele>
        <time>2021-11-20T17:53:03.852Z</time>
      </trkpt>
      <trkpt lat="47.463351" lon="7.859872">
        <ele>410.117266</ele>
        <time>2021-11-20T17:53:05.717Z</time>
      </trkpt>
      <trkpt lat="47.463241" lon="7.860203">
        <ele>410.071714</ele>
        <time>2021-11-20T17:53:08.596Z</time>
      </trkpt>
      <trkpt lat="47.463190" lon="7.860331">
        <ele>410.053365</ele>
        <time>2021-11-20T17:53:09.990Z</time>
      </trkpt>
      <trkpt lat="47.463125" lon="7.860492">
        <ele>410.030205</ele>
        <time>2021-11-20T17:53:11.499Z</time>
      </trkpt>
      <trkpt lat="47.462844" lon="7.861110">
        <ele>410.054129</ele>
        <time>2021-11-20T17:53:18.417Z</time>
      </trkpt>
      <trkpt lat="47.462785" lon="7.861204">
        <ele>410.114275</ele>
        <time>2021-11-20T17:53:20.044Z</time>
      </trkpt>
      <trkpt lat="47.462605" lon="7.861066">
        <ele>410.254898</ele>
        <time>2021-11-20T17:53:23.045Z</time>
      </trkpt>
      <trkpt lat="47.462470" lon="7.860949">
        <ele>410.363424</ele>
        <time>2021-11-20T17:53:26.056Z</time>
      </trkpt>
      <trkpt lat="47.462314" lon="7.860800">
        <ele>410.492224</ele>
        <time>2021-11-20T17:53:29.149Z</time>
      </trkpt>
      <trkpt lat="47.462285" lon="7.860769">
        <ele>410.517042</ele>
        <time>2021-11-20T17:53:29.644Z</time>
      </trkpt>
      <trkpt lat="47.462231" lon="7.860873">
        <ele>410.578533</ele>
        <time>2021-11-20T17:53:31.643Z</time>
      </trkpt>
      <trkpt lat="47.461855" lon="7.861499">
        <ele>410.971198</ele>
        <time>2021-11-20T17:53:41.871Z</time>
      </trkpt>
      <trkpt lat="47.461541" lon="7.862217">
        <ele>411.559919</ele>
        <time>2021-11-20T17:53:53.204Z</time>
      </trkpt>
      <trkpt lat="47.461527" lon="7.862242">
        <ele>411.592754</ele>
        <time>2021-11-20T17:53:53.641Z</time>
      </trkpt>
      <trkpt lat="47.461353" lon="7.862539">
        <ele>411.990255</ele>
        <time>2021-11-20T17:53:59.555Z</time>
      </trkpt>
      <trkpt lat="47.461098" lon="7.862848">
        <ele>412.483432</ele>
        <time>2021-11-20T17:54:07.067Z</time>
      </trkpt>
      <trkpt lat="47.460786" lon="7.863164">
        <ele>413.049150</ele>
        <time>2021-11-20T17:54:15.455Z</time>
      </trkpt>
      <trkpt lat="47.460527" lon="7.863440">
        <ele>413.526723</ele>
        <time>2021-11-20T17:54:22.217Z</time>
      </trkpt>
      <trkpt lat="47.460398" lon="7.863603">
        <ele>413.780551</ele>
        <time>2021-11-20T17:54:25.632Z</time>
      </trkpt>
      <trkpt lat="47.460271" lon="7.863810">
        <ele>414.034064</ele>
        <time>2021-11-20T17:54:29.160Z</time>
      </trkpt>
      <trkpt lat="47.460115" lon="7.864146">
        <ele>414.372192</ele>
        <time>2021-11-20T17:54:33.923Z</time>
      </trkpt>
      <trkpt lat="47.460001" lon="7.864512">
        <ele>414.706484</ele>
        <time>2021-11-20T17:54:38.710Z</time>
      </trkpt>
      <trkpt lat="47.459616" lon="7.865526">
        <ele>415.671235</ele>
        <time>2021-11-20T17:54:54.943Z</time>
      </trkpt>
      <trkpt lat="47.459563" lon="7.865651">
        <ele>415.793636</ele>
        <time>2021-11-20T17:54:56.811Z</time>
      </trkpt>
      <trkpt lat="47.459497" lon="7.865844">
        <ele>415.973058</ele>
        <time>2021-11-20T17:54:59.750Z</time>
      </trkpt>
      <trkpt lat="47.459383" lon="7.866214">
        <ele>416.367357</ele>
        <time>2021-11-20T17:55:05.353Z</time>
      </trkpt>
      <trkpt lat="47.459231" lon="7.866811">
        <ele>417.045383</ele>
        <time>2021-11-20T17:55:14.039Z</time>
      </trkpt>
      <trkpt lat="47.459152" lon="7.867074">
        <ele>417.351261</ele>
        <time>2021-11-20T17:55:18.092Z</time>
      </trkpt>
      <trkpt lat="47.459058" lon="7.867339">
        <ele>417.669329</ele>
        <time>2021-11-20T17:55:22.167Z</time>
      </trkpt>
      <trkpt lat="47.458844" lon="7.867795">
        <ele>418.259307</ele>
        <time>2021-11-20T17:55:30.117Z</time>
      </trkpt>
      <trkpt lat="47.458680" lon="7.868173">
        <ele>418.736676</ele>
        <time>2021-11-20T17:55:37.373Z</time>
      </trkpt>
      <trkpt lat="47.458252" lon="7.869378">
        <ele>420.498976</ele>
        <time>2021-11-20T17:55:57.765Z</time>
      </trkpt>
      <trkpt lat="47.458055" lon="7.870048">
        <ele>421.471854</ele>
        <time>2021-11-20T17:56:08.532Z</time>
      </trkpt>
      <trkpt lat="47.457897" lon="7.870571">
        <ele>422.234636</ele>
        <time>2021-11-20T17:56:17.309Z</time>
      </trkpt>
      <trkpt lat="47.457834" lon="7.870782">
        <ele>422.583737</ele>
        <time>2021-11-20T17:56:21.287Z</time>
      </trkpt>
      <trkpt lat="47.457598" lon="7.871461">
        <ele>424.264167</ele>
        <time>2021-11-20T17:56:33.425Z</time>
      </trkpt>
      <trkpt lat="47.457107" lon="7.872555">
        <ele>427.154364</ele>
        <time>2021-11-20T17:57:00.350Z</time>
      </trkpt>
      <trkpt lat="47.456956" lon="7.873025">
        <ele>428.299727</ele>
        <time>2021-11-20T17:57:11.273Z</time>
      </trkpt>
      <trkpt lat="47.456839" lon="7.873690">
        <ele>429.419475</ele>
        <time>2021-11-20T17:57:24.254Z</time>
      </trkpt>
      <trkpt lat="47.456816" lon="7.873911">
        <ele>429.780996</ele>
        <time>2021-11-20T17:57:28.670Z</time>
      </trkpt>
      <trkpt lat="47.456788" lon="7.874217">
        <ele>430.280247</ele>
        <time>2021-11-20T17:57:33.902Z</time>
      </trkpt>
      <trkpt lat="47.456714" lon="7.874531">
        <ele>430.817878</ele>
        <time>2021-11-20T17:57:39.464Z</time>
      </trkpt>
      <trkpt lat="47.456658" lon="7.874665">
        <ele>431.072572</ele>
        <time>2021-11-20T17:57:41.317Z</time>
      </trkpt>
      <trkpt lat="47.456403" lon="7.875046">
        <ele>431.939328</ele>
        <time>2021-11-20T17:57:49.174Z</time>
      </trkpt>
      <trkpt lat="47.455780" lon="7.875652">
        <ele>432.797254</ele>
        <time>2021-11-20T17:58:04.667Z</time>
      </trkpt>
      <trkpt lat="47.455446" lon="7.875966">
        <ele>432.939431</ele>
        <time>2021-11-20T17:58:10.358Z</time>
      </trkpt>
      <trkpt lat="47.455123" lon="7.876253">
        <ele>433.074797</ele>
        <time>2021-11-20T17:58:15.333Z</time>
      </trkpt>
      <trkpt lat="47.454502" lon="7.876895">
        <ele>433.404131</ele>
        <time>2021-11-20T17:58:26.442Z</time>
      </trkpt>
      <trkpt lat="47.454362" lon="7.877045">
        <ele>433.519090</ele>
        <time>2021-11-20T17:58:29.370Z</time>
      </trkpt>
      <trkpt lat="47.453945" lon="7.877554">
        <ele>433.878631</ele>
        <time>2021-11-20T17:58:39.510Z</time>
      </trkpt>
      <trkpt lat="47.453517" lon="7.878069">
        <ele>434.245540</ele>
        <time>2021-11-20T17:58:49.645Z</time>
      </trkpt>
      <trkpt lat="47.453302" lon="7.878355">
        <ele>434.437835</ele>
        <time>2021-11-20T17:58:54.977Z</time>
      </trkpt>
      <trkpt lat="47.453057" lon="7.878652">
        <ele>434.670948</ele>
        <time>2021-11-20T17:59:00.577Z</time>
      </trkpt>
      <trkpt lat="47.452813" lon="7.878981">
        <ele>434.919082</ele>
        <time>2021-11-20T17:59:06.259Z</time>
      </trkpt>
      <trkpt lat="47.452655" lon="7.879223">
        <ele>435.090020</ele>
        <time>2021-11-20T17:59:10.119Z</time>
      </trkpt>
      <trkpt lat="47.452247" lon="7.879980">
        <ele>435.581932</ele>
        <time>2021-11-20T17:59:21.673Z</time>
      </trkpt>
      <trkpt lat="47.451953" lon="7.880518">
        <ele>435.988215</ele>
        <time>2021-11-20T17:59:30.014Z</time>
      </trkpt>
      <trkpt lat="47.451581" lon="7.881111">
        <ele>436.611862</ele>
        <time>2021-11-20T17:59:40.578Z</time>
      </trkpt>
      <trkpt lat="47.451351" lon="7.881477">
        <ele>436.997089</ele>
        <time>2021-11-20T17:59:47.129Z</time>
      </trkpt>
      <trkpt lat="47.451309" lon="7.881545">
        <ele>437.068096</ele>
        <time>2021-11-20T17:59:48.375Z</time>
      </trkpt>
      <trkpt lat="47.451241" lon="7.881654">
        <ele>437.182438</ele>
        <time>2021-11-20T17:59:50.333Z</time>
      </trkpt>
      <trkpt lat="47.451051" lon="7.881948">
        <ele>437.495986</ele>
        <time>2021-11-20T17:59:55.917Z</time>
      </trkpt>
      <trkpt lat="47.450772" lon="7.882435">
        <ele>438.000576</ele>
        <time>2021-11-20T18:00:04.697Z</time>
      </trkpt>
      <trkpt lat="47.450733" lon="7.882508">
        <ele>438.080452</ele>
        <time>2021-11-20T18:00:05.962Z</time>
      </trkpt>
      <trkpt lat="47.450650" lon="7.882664">
        <ele>438.250876</ele>
        <time>2021-11-20T18:00:08.684Z</time>
      </trkpt>
      <trkpt lat="47.450548" lon="7.882846">
        <ele>438.453827</ele>
        <time>2021-11-20T18:00:11.912Z</time>
      </trkpt>
      <trkpt lat="47.450472" lon="7.882973">
        <ele>438.599432</ele>
        <time>2021-11-20T18:00:14.138Z</time>
      </trkpt>
      <trkpt lat="47.450274" lon="7.883264">
        <ele>438.953863</ele>
        <time>2021-11-20T18:00:19.743Z</time>
      </trkpt>
      <trkpt lat="47.449712" lon="7.884119">
        <ele>439.977602</ele>
        <time>2021-11-20T18:00:35.464Z</time>
      </trkpt>
      <trkpt lat="47.449068" lon="7.885121">
        <ele>441.246508</ele>
        <time>2021-11-20T18:00:53.791Z</time>
      </trkpt>
      <trkpt lat="47.449022" lon="7.885187">
        <ele>441.334543</ele>
        <time>2021-11-20T18:00:55.122Z</time>
      </trkpt>
      <trkpt lat="47.448867" lon="7.885429">
        <ele>441.644142</ele>
        <time>2021-11-20T18:00:59.719Z</time>
      </trkpt>
      <trkpt lat="47.448801" lon="7.885554">
        <ele>441.791446</ele>
        <time>2021-11-20T18:01:01.996Z</time>
      </trkpt>
      <trkpt lat="47.448759" lon="7.885611">
        <ele>441.869747</ele>
        <time>2021-11-20T18:01:02.951Z</time>
      </trkpt>
      <trkpt lat="47.448727" lon="7.885648">
        <ele>441.925541</ele>
        <time>2021-11-20T18:01:03.719Z</time>
      </trkpt>
      <trkpt lat="47.448623" lon="7.885730">
        <ele>442.087425</ele>
        <time>2021-11-20T18:01:06.238Z</time>
      </trkpt>
      <trkpt lat="47.448497" lon="7.885784">
        <ele>442.267612</ele>
        <time>2021-11-20T18:01:09.257Z</time>
      </trkpt>
      <trkpt lat="47.448256" lon="7.885830">
        <ele>442.601378</ele>
        <time>2021-11-20T18:01:14.430Z</time>
      </trkpt>
      <trkpt lat="47.447948" lon="7.885889">
        <ele>443.142106</ele>
        <time>2021-11-20T18:01:20.847Z</time>
      </trkpt>
      <trkpt lat="47.447927" lon="7.885893">
        <ele>443.179581</ele>
        <time>2021-11-20T18:01:21.621Z</time>
      </trkpt>
      <trkpt lat="47.447843" lon="7.885915">
        <ele>443.330570</ele>
        <time>2021-11-20T18:01:23.781Z</time>
      </trkpt>
      <trkpt lat="47.447578" lon="7.886047">
        <ele>443.825498</ele>
        <time>2021-11-20T18:01:29.439Z</time>
      </trkpt>
      <trkpt lat="47.447271" lon="7.886367">
        <ele>444.490297</ele>
        <time>2021-11-20T18:01:37.761Z</time>
      </trkpt>
      <trkpt lat="47.446926" lon="7.886788">
        <ele>445.282004</ele>
        <time>2021-11-20T18:01:47.797Z</time>
      </trkpt>
      <trkpt lat="47.446791" lon="7.886928">
        <ele>445.573849</ele>
        <time>2021-11-20T18:01:51.276Z</time>
      </trkpt>
      <trkpt lat="47.446303" lon="7.887408">
        <ele>446.650606</ele>
        <time>2021-11-20T18:02:04.443Z</time>
      </trkpt>
      <trkpt lat="47.446228" lon="7.887482">
        <ele>446.818095</ele>
        <time>2021-11-20T18:02:06.451Z</time>
      </trkpt>
      <trkpt lat="47.446159" lon="7.887548">
        <ele>446.970749</ele>
        <time>2021-11-20T18:02:08.270Z</time>
      </trkpt>
      <trkpt lat="47.445865" lon="7.887829">
        <ele>447.621041</ele>
        <time>2021-11-20T18:02:16.054Z</time>
      </trkpt>
      <trkpt lat="47.445713" lon="7.887975">
        <ele>447.957740</ele>
        <time>2021-11-20T18:02:19.955Z</time>
      </trkpt>
      <trkpt lat="47.445254" lon="7.888414">
        <ele>448.973197</ele>
        <time>2021-11-20T18:02:31.792Z</time>
      </trkpt>
      <trkpt lat="47.445147" lon="7.888511">
        <ele>449.232565</ele>
        <time>2021-11-20T18:02:34.508Z</time>
      </trkpt>
      <trkpt lat="47.444943" lon="7.888709">
        <ele>449.927223</ele>
        <time>2021-11-20T18:02:40.586Z</time>
      </trkpt>
      <trkpt lat="47.444488" lon="7.889150">
        <ele>451.475932</ele>
        <time>2021-11-20T18:02:53.233Z</time>
      </trkpt>
      <trkpt lat="47.444393" lon="7.889238">
        <ele>451.795054</ele>
        <time>2021-11-20T18:02:56.380Z</time>
      </trkpt>
      <trkpt lat="47.444034" lon="7.889556">
        <ele>452.986368</ele>
        <time>2021-11-20T18:03:06.963Z</time>
      </trkpt>
      <trkpt lat="47.443891" lon="7.889667">
        <ele>453.446129</ele>
        <time>2021-11-20T18:03:11.319Z</time>
      </trkpt>
      <trkpt lat="47.443758" lon="7.889758">
        <ele>453.863310</ele>
        <time>2021-11-20T18:03:15.803Z</time>
      </trkpt>
      <trkpt lat="47.443195" lon="7.890087">
        <ele>457.580833</ele>
        <time>2021-11-20T18:03:34.979Z</time>
      </trkpt>
      <trkpt lat="47.442695" lon="7.890269">
        <ele>461.279230</ele>
        <time>2021-11-20T18:03:56.415Z</time>
      </trkpt>
      <trkpt lat="47.441565" lon="7.890682">
        <ele>470.922268</ele>
        <time>2021-11-20T18:04:56.894Z</time>
      </trkpt>
      <trkpt lat="47.441263" lon="7.890792">
        <ele>474.328721</ele>
        <time>2021-11-20T18:05:15.420Z</time>
      </trkpt>
      <trkpt lat="47.440728" lon="7.890993">
        <ele>480.374360</ele>
        <time>2021-11-20T18:05:48.218Z</time>
      </trkpt>
      <trkpt lat="47.440254" lon="7.891376">
        <ele>486.290373</ele>
        <time>2021-11-20T18:06:22.012Z</time>
      </trkpt>
      <trkpt lat="47.439256" lon="7.892823">
        <ele>501.641731</ele>
        <time>2021-11-20T18:07:49.602Z</time>
      </trkpt>
      <trkpt lat="47.439228" lon="7.892871">
        <ele>502.112628</ele>
        <time>2021-11-20T18:07:52.492Z</time>
      </trkpt>
      <trkpt lat="47.439042" lon="7.893234">
        <ele>505.495859</ele>
        <time>2021-11-20T18:08:08.155Z</time>
      </trkpt>
      <trkpt lat="47.438836" lon="7.893774">
        <ele>508.023459</ele>
        <time>2021-11-20T18:08:28.648Z</time>
      </trkpt>
      <trkpt lat="47.438723" lon="7.894209">
        <ele>509.400555</ele>
        <time>2021-11-20T18:08:42.119Z</time>
      </trkpt>
      <trkpt lat="47.438683" lon="7.894397">
        <ele>509.982988</ele>
        <time>2021-11-20T18:08:47.312Z</time>
      </trkpt>
      <trkpt lat="47.438392" lon="7.895853">
        <ele>514.469812</ele>
        <time>2021-11-20T18:09:14.672Z</time>
      </trkpt>
      <trkpt lat="47.438129" lon="7.896764">
        <ele>512.077020</ele>
        <time>2021-11-20T18:09:21.657Z</time>
      </trkpt>
      <trkpt lat="47.438061" lon="7.896935">
        <ele>511.583213</ele>
        <time>2021-11-20T18:09:22.987Z</time>
      </trkpt>
      <trkpt lat="47.438020" lon="7.897061">
        <ele>511.235138</ele>
        <time>2021-11-20T18:09:23.815Z</time>
      </trkpt>
      <trkpt lat="47.437727" lon="7.897775">
        <ele>509.156152</ele>
        <time>2021-11-20T18:09:29.249Z</time>
      </trkpt>
      <trkpt lat="47.437513" lon="7.898238">
        <ele>507.708904</ele>
        <time>2021-11-20T18:09:32.759Z</time>
      </trkpt>
      <trkpt lat="47.437451" lon="7.898374">
        <ele>507.139031</ele>
        <time>2021-11-20T18:09:33.712Z</time>
      </trkpt>
      <trkpt lat="47.436614" lon="7.900163">
        <ele>499.580581</ele>
        <time>2021-11-20T18:09:47.190Z</time>
      </trkpt>
      <trkpt lat="47.436392" lon="7.900644">
        <ele>499.051804</ele>
        <time>2021-11-20T18:09:51.754Z</time>
      </trkpt>
      <trkpt lat="47.436162" lon="7.901123">
        <ele>499.802781</ele>
        <time>2021-11-20T18:09:57.853Z</time>
      </trkpt>
      <trkpt lat="47.435966" lon="7.901542">
        <ele>500.454064</ele>
        <time>2021-11-20T18:10:05.336Z</time>
      </trkpt>
      <trkpt lat="47.435289" lon="7.902539">
        <ele>502.588660</ele>
        <time>2021-11-20T18:10:36.027Z</time>
      </trkpt>
      <trkpt lat="47.434454" lon="7.903404">
        <ele>507.518560</ele>
        <time>2021-11-20T18:11:16.248Z</time>
      </trkpt>
      <trkpt lat="47.433904" lon="7.903847">
        <ele>510.546986</ele>
        <time>2021-11-20T18:11:34.883Z</time>
      </trkpt>
      <trkpt lat="47.433528" lon="7.904076">
        <ele>512.245370</ele>
        <time>2021-11-20T18:11:46.174Z</time>
      </trkpt>
      <trkpt lat="47.433057" lon="7.904364">
        <ele>514.336290</ele>
        <time>2021-11-20T18:11:58.799Z</time>
      </trkpt>
      <trkpt lat="47.432000" lon="7.904989">
        <ele>519.450353</ele>
        <time>2021-11-20T18:12:38.351Z</time>
      </trkpt>
      <trkpt lat="47.431501" lon="7.905134">
        <ele>522.586847</ele>
        <time>2021-11-20T18:12:57.386Z</time>
      </trkpt>
      <trkpt lat="47.431347" lon="7.905140">
        <ele>523.536976</ele>
        <time>2021-11-20T18:13:05.425Z</time>
      </trkpt>
      <trkpt lat="47.430772" lon="7.905115">
        <ele>527.084841</ele>
        <time>2021-11-20T18:13:28.884Z</time>
      </trkpt>
      <trkpt lat="47.429366" lon="7.905049">
        <ele>533.861502</ele>
        <time>2021-11-20T18:14:24.751Z</time>
      </trkpt>
      <trkpt lat="47.427817" lon="7.905261">
        <ele>537.264534</ele>
        <time>2021-11-20T18:14:58.725Z</time>
      </trkpt>
      <trkpt lat="47.426850" lon="7.905086">
        <ele>537.471420</ele>
        <time>2021-11-20T18:15:10.688Z</time>
      </trkpt>
      <trkpt lat="47.426720" lon="7.905004">
        <ele>537.105464</ele>
        <time>2021-11-20T18:15:12.368Z</time>
      </trkpt>
      <trkpt lat="47.426720" lon="7.905004">
        <ele>537.105464</ele>
        <time>2021-11-20T18:15:12.371Z</time>
      </trkpt>
      <trkpt lat="47.426613" lon="7.904841">
        <ele>536.686715</ele>
        <time>2021-11-20T18:15:14.871Z</time>
      </trkpt>
      <trkpt lat="47.426552" lon="7.904727">
        <ele>536.418733</ele>
        <time>2021-11-20T18:15:15.787Z</time>
      </trkpt>
      <trkpt lat="47.426425" lon="7.904463">
        <ele>535.821477</ele>
        <time>2021-11-20T18:15:18.269Z</time>
      </trkpt>
      <trkpt lat="47.426367" lon="7.904349">
        <ele>535.558488</ele>
        <time>2021-11-20T18:15:19.294Z</time>
      </trkpt>
      <trkpt lat="47.426138" lon="7.904113">
        <ele>534.797688</ele>
        <time>2021-11-20T18:15:22.198Z</time>
      </trkpt>
      <trkpt lat="47.425619" lon="7.903851">
        <ele>533.303058</ele>
        <time>2021-11-20T18:15:27.580Z</time>
      </trkpt>
      <trkpt lat="47.425434" lon="7.903707">
        <ele>532.733248</ele>
        <time>2021-11-20T18:15:29.903Z</time>
      </trkpt>
      <trkpt lat="47.425311" lon="7.903615">
        <ele>532.311497</ele>
        <time>2021-11-20T18:15:31.138Z</time>
      </trkpt>
      <trkpt lat="47.423589" lon="7.902766">
        <ele>526.521744</ele>
        <time>2021-11-20T18:15:49.424Z</time>
      </trkpt>
      <trkpt lat="47.423452" lon="7.902645">
        <ele>526.371081</ele>
        <time>2021-11-20T18:15:51.040Z</time>
      </trkpt>
      <trkpt lat="47.423374" lon="7.902581">
        <ele>526.286862</ele>
        <time>2021-11-20T18:15:52.022Z</time>
      </trkpt>
      <trkpt lat="47.423315" lon="7.902540">
        <ele>526.225315</ele>
        <time>2021-11-20T18:15:52.864Z</time>
      </trkpt>
      <trkpt lat="47.423238" lon="7.902495">
        <ele>526.147149</ele>
        <time>2021-11-20T18:15:53.791Z</time>
      </trkpt>
      <trkpt lat="47.423044" lon="7.902393">
        <ele>525.952765</ele>
        <time>2021-11-20T18:15:56.020Z</time>
      </trkpt>
      <trkpt lat="47.422906" lon="7.902320">
        <ele>525.814396</ele>
        <time>2021-11-20T18:15:57.956Z</time>
      </trkpt>
      <trkpt lat="47.421602" lon="7.901655">
        <ele>525.185813</ele>
        <time>2021-11-20T18:16:19.326Z</time>
      </trkpt>
      <trkpt lat="47.421521" lon="7.901542">
        <ele>525.257196</ele>
        <time>2021-11-20T18:16:21.505Z</time>
      </trkpt>
      <trkpt lat="47.421502" lon="7.901465">
        <ele>525.292735</ele>
        <time>2021-11-20T18:16:24.236Z</time>
      </trkpt>
      <trkpt lat="47.421410" lon="7.901506">
        <ele>525.354317</ele>
        <time>2021-11-20T18:16:25.336Z</time>
      </trkpt>
      <trkpt lat="47.421321" lon="7.901553">
        <ele>525.414886</ele>
        <time>2021-11-20T18:16:26.396Z</time>
      </trkpt>
      <trkpt lat="47.421222" lon="7.901610">
        <ele>525.482976</ele>
        <time>2021-11-20T18:16:28.061Z</time>
      </trkpt>
      <trkpt lat="47.421180" lon="7.901635">
        <ele>525.511993</ele>
        <time>2021-11-20T18:16:30.520Z</time>
      </trkpt>
      <trkpt lat="47.420695" lon="7.901920">
        <ele>525.846481</ele>
        <time>2021-11-20T18:16:37.980Z</time>
      </trkpt>
      <trkpt lat="47.420637" lon="7.901954">
        <ele>525.886468</ele>
        <time>2021-11-20T18:16:38.681Z</time>
      </trkpt>
      <trkpt lat="47.420085" lon="7.902235">
        <ele>526.642456</ele>
        <time>2021-11-20T18:16:51.055Z</time>
      </trkpt>
      <trkpt lat="47.419578" lon="7.902441">
        <ele>527.640920</ele>
        <time>2021-11-20T18:17:00.395Z</time>
      </trkpt>
      <trkpt lat="47.419204" lon="7.902583">
        <ele>528.374171</ele>
        <time>2021-11-20T18:17:09.058Z</time>
      </trkpt>
      <trkpt lat="47.419043" lon="7.902685">
        <ele>528.706801</ele>
        <time>2021-11-20T18:17:14.110Z</time>
      </trkpt>
      <trkpt lat="47.418932" lon="7.902787">
        <ele>528.955000</ele>
        <time>2021-11-20T18:17:17.188Z</time>
      </trkpt>
      <trkpt lat="47.418668" lon="7.903098">
        <ele>529.743670</ele>
        <time>2021-11-20T18:17:26.691Z</time>
      </trkpt>
      <trkpt lat="47.418532" lon="7.903258">
        <ele>530.499145</ele>
        <time>2021-11-20T18:17:31.437Z</time>
      </trkpt>
      <trkpt lat="47.418268" lon="7.903613">
        <ele>532.050365</ele>
        <time>2021-11-20T18:17:41.971Z</time>
      </trkpt>
      <trkpt lat="47.418232" lon="7.903669">
        <ele>532.277520</ele>
        <time>2021-11-20T18:17:43.955Z</time>
      </trkpt>
      <trkpt lat="47.418168" lon="7.903812">
        <ele>532.781710</ele>
        <time>2021-11-20T18:17:47.778Z</time>
      </trkpt>
      <trkpt lat="47.417991" lon="7.904019">
        <ele>533.762683</ele>
        <time>2021-11-20T18:17:54.895Z</time>
      </trkpt>
      <trkpt lat="47.417618" lon="7.904179">
        <ele>535.450671</ele>
        <time>2021-11-20T18:18:08.298Z</time>
      </trkpt>
      <trkpt lat="47.417531" lon="7.904238">
        <ele>535.866688</ele>
        <time>2021-11-20T18:18:12.022Z</time>
      </trkpt>
      <trkpt lat="47.417427" lon="7.904326">
        <ele>536.387521</ele>
        <time>2021-11-20T18:18:15.914Z</time>
      </trkpt>
      <trkpt lat="47.417265" lon="7.904453">
        <ele>537.184510</ele>
        <time>2021-11-20T18:18:22.963Z</time>
      </trkpt>
      <trkpt lat="47.416980" lon="7.904605">
        <ele>538.560751</ele>
        <time>2021-11-20T18:18:33.120Z</time>
      </trkpt>
      <trkpt lat="47.416822" lon="7.904701">
        <ele>539.339881</ele>
        <time>2021-11-20T18:18:40.116Z</time>
      </trkpt>
      <trkpt lat="47.416808" lon="7.904773">
        <ele>539.571073</ele>
        <time>2021-11-20T18:18:41.426Z</time>
      </trkpt>
      <trkpt lat="47.416773" lon="7.904932">
        <ele>540.087074</ele>
        <time>2021-11-20T18:18:44.564Z</time>
      </trkpt>
      <trkpt lat="47.416651" lon="7.905415">
        <ele>541.678130</ele>
        <time>2021-11-20T18:18:55.670Z</time>
      </trkpt>
      <trkpt lat="47.416580" lon="7.905705">
        <ele>542.629882</ele>
        <time>2021-11-20T18:19:02.663Z</time>
      </trkpt>
      <trkpt lat="47.416460" lon="7.906294">
        <ele>544.528211</ele>
        <time>2021-11-20T18:19:15.425Z</time>
      </trkpt>
      <trkpt lat="47.416398" lon="7.906605">
        <ele>545.528581</ele>
        <time>2021-11-20T18:19:21.982Z</time>
      </trkpt>
      <trkpt lat="47.416410" lon="7.906687">
        <ele>545.785551</ele>
        <time>2021-11-20T18:19:24.656Z</time>
      </trkpt>
      <trkpt lat="47.416442" lon="7.906759">
        <ele>546.049401</ele>
        <time>2021-11-20T18:19:26.271Z</time>
      </trkpt>
      <trkpt lat="47.416540" lon="7.906940">
        <ele>546.759430</ele>
        <time>2021-11-20T18:19:31.555Z</time>
      </trkpt>
      <trkpt lat="47.416608" lon="7.907067">
        <ele>547.255478</ele>
        <time>2021-11-20T18:19:35.743Z</time>
      </trkpt>
      <trkpt lat="47.416637" lon="7.907164">
        <ele>547.580292</ele>
        <time>2021-11-20T18:19:38.446Z</time>
      </trkpt>
      <trkpt lat="47.416673" lon="7.907346">
        <ele>548.161081</ele>
        <time>2021-11-20T18:19:42.690Z</time>
      </trkpt>
      <trkpt lat="47.416753" lon="7.907390">
        <ele>548.547472</ele>
        <time>2021-11-20T18:19:45.330Z</time>
      </trkpt>
      <trkpt lat="47.416851" lon="7.907423">
        <ele>549.002445</ele>
        <time>2021-11-20T18:19:49.177Z</time>
      </trkpt>
      <trkpt lat="47.416991" lon="7.907401">
        <ele>549.639738</ele>
        <time>2021-11-20T18:19:53.759Z</time>
      </trkpt>
      <trkpt lat="47.417045" lon="7.907386">
        <ele>549.888453</ele>
        <time>2021-11-20T18:19:55.026Z</time>
      </trkpt>
      <trkpt lat="47.417211" lon="7.907291">
        <ele>550.694237</ele>
        <time>2021-11-20T18:20:00.996Z</time>
      </trkpt>
      <trkpt lat="47.417526" lon="7.907135">
        <ele>552.198036</ele>
        <time>2021-11-20T18:20:11.021Z</time>
      </trkpt>
      <trkpt lat="47.417654" lon="7.907109">
        <ele>552.782884</ele>
        <time>2021-11-20T18:20:14.878Z</time>
      </trkpt>
      <trkpt lat="47.417654" lon="7.907109">
        <ele>552.782884</ele>
        <time>2021-11-20T18:20:15.006Z</time>
      </trkpt>
      <trkpt lat="47.417520" lon="7.907671">
        <ele>554.958238</ele>
        <time>2021-11-20T18:20:30.373Z</time>
      </trkpt>
      <trkpt lat="47.417369" lon="7.908044">
        <ele>556.773043</ele>
        <time>2021-11-20T18:20:42.350Z</time>
      </trkpt>
      <trkpt lat="47.417016" lon="7.908958">
        <ele>561.167097</ele>
        <time>2021-11-20T18:21:15.335Z</time>
      </trkpt>
      <trkpt lat="47.416301" lon="7.911097">
        <ele>571.348910</ele>
        <time>2021-11-20T18:22:33.962Z</time>
      </trkpt>
      <trkpt lat="47.415997" lon="7.911628">
        <ele>574.353378</ele>
        <time>2021-11-20T18:22:53.305Z</time>
      </trkpt>
      <trkpt lat="47.415760" lon="7.912376">
        <ele>577.159699</ele>
        <time>2021-11-20T18:23:11.502Z</time>
      </trkpt>
      <trkpt lat="47.415709" lon="7.912548">
        <ele>577.607026</ele>
        <time>2021-11-20T18:23:16.792Z</time>
      </trkpt>
      <trkpt lat="47.415639" lon="7.912609">
        <ele>577.893098</ele>
        <time>2021-11-20T18:23:19.067Z</time>
      </trkpt>
      <trkpt lat="47.415289" lon="7.913076">
        <ele>579.553095</ele>
        <time>2021-11-20T18:23:34.681Z</time>
      </trkpt>
      <trkpt lat="47.415068" lon="7.913592">
        <ele>581.007782</ele>
        <time>2021-11-20T18:23:47.174Z</time>
      </trkpt>
      <trkpt lat="47.415027" lon="7.913784">
        <ele>581.487381</ele>
        <time>2021-11-20T18:23:52.176Z</time>
      </trkpt>
      <trkpt lat="47.414979" lon="7.914028">
        <ele>582.092681</ele>
        <time>2021-11-20T18:23:56.911Z</time>
      </trkpt>
      <trkpt lat="47.414790" lon="7.914515">
        <ele>583.660602</ele>
        <time>2021-11-20T18:24:09.094Z</time>
      </trkpt>
      <trkpt lat="47.414743" lon="7.914645">
        <ele>584.104263</ele>
        <time>2021-11-20T18:24:12.060Z</time>
      </trkpt>
      <trkpt lat="47.414683" lon="7.914749">
        <ele>584.515645</ele>
        <time>2021-11-20T18:24:15.209Z</time>
      </trkpt>
      <trkpt lat="47.414533" lon="7.915331">
        <ele>586.390292</ele>
        <time>2021-11-20T18:24:29.455Z</time>
      </trkpt>
      <trkpt lat="47.414571" lon="7.915814">
        <ele>587.853967</ele>
        <time>2021-11-20T18:24:41.675Z</time>
      </trkpt>
      <trkpt lat="47.414593" lon="7.915964">
        <ele>588.315967</ele>
        <time>2021-11-20T18:24:45.906Z</time>
      </trkpt>
      <trkpt lat="47.414614" lon="7.916201">
        <ele>589.035452</ele>
        <time>2021-11-20T18:24:52.384Z</time>
      </trkpt>
      <trkpt lat="47.414611" lon="7.916472">
        <ele>589.851300</ele>
        <time>2021-11-20T18:24:59.960Z</time>
      </trkpt>
      <trkpt lat="47.414655" lon="7.916711">
        <ele>590.659637</ele>
        <time>2021-11-20T18:25:07.242Z</time>
      </trkpt>
      <trkpt lat="47.415093" lon="7.918531">
        <ele>605.459178</ele>
        <time>2021-11-20T18:26:19.585Z</time>
      </trkpt>
      <trkpt lat="47.415743" lon="7.919244">
        <ele>618.048167</ele>
        <time>2021-11-20T18:27:35.047Z</time>
      </trkpt>
      <trkpt lat="47.415878" lon="7.919394">
        <ele>621.728306</ele>
        <time>2021-11-20T18:27:53.897Z</time>
      </trkpt>
      <trkpt lat="47.416067" lon="7.919724">
        <ele>628.102575</ele>
        <time>2021-11-20T18:28:25.608Z</time>
      </trkpt>
      <trkpt lat="47.416241" lon="7.920142">
        <ele>635.338242</ele>
        <time>2021-11-20T18:29:01.875Z</time>
      </trkpt>
      <trkpt lat="47.416280" lon="7.920320">
        <ele>638.096775</ele>
        <time>2021-11-20T18:29:16.100Z</time>
      </trkpt>
      <trkpt lat="47.416295" lon="7.920442">
        <ele>639.924963</ele>
        <time>2021-11-20T18:29:25.478Z</time>
      </trkpt>
      <trkpt lat="47.416422" lon="7.920803">
        <ele>645.923803</ele>
        <time>2021-11-20T18:29:56.167Z</time>
      </trkpt>
      <trkpt lat="47.416551" lon="7.921143">
        <ele>651.527720</ele>
        <time>2021-11-20T18:30:25.716Z</time>
      </trkpt>
      <trkpt lat="47.416551" lon="7.922152">
        <ele>665.038742</ele>
        <time>2021-11-20T18:31:41.817Z</time>
      </trkpt>
      <trkpt lat="47.416740" lon="7.922487">
        <ele>670.879209</ele>
        <time>2021-11-20T18:32:14.715Z</time>
      </trkpt>
      <trkpt lat="47.416907" lon="7.922626">
        <ele>674.672072</ele>
        <time>2021-11-20T18:32:31.506Z</time>
      </trkpt>
      <trkpt lat="47.417060" lon="7.923009">
        <ele>680.627644</ele>
        <time>2021-11-20T18:32:57.317Z</time>
      </trkpt>
      <trkpt lat="47.417315" lon="7.923258">
        <ele>686.321235</ele>
        <time>2021-11-20T18:33:20.050Z</time>
      </trkpt>
      <trkpt lat="47.417440" lon="7.923660">
        <ele>690.082850</ele>
        <time>2021-11-20T18:33:42.157Z</time>
      </trkpt>
      <trkpt lat="47.417590" lon="7.923893">
        <ele>692.817298</ele>
        <time>2021-11-20T18:33:57.955Z</time>
      </trkpt>
      <trkpt lat="47.417664" lon="7.924293">
        <ele>696.343095</ele>
        <time>2021-11-20T18:34:18.089Z</time>
      </trkpt>
      <trkpt lat="47.417788" lon="7.924508">
        <ele>698.745053</ele>
        <time>2021-11-20T18:34:31.702Z</time>
      </trkpt>
      <trkpt lat="47.417884" lon="7.925463">
        <ele>706.953962</ele>
        <time>2021-11-20T18:35:15.674Z</time>
      </trkpt>
      <trkpt lat="47.418164" lon="7.926180">
        <ele>712.963456</ele>
        <time>2021-11-20T18:35:50.932Z</time>
      </trkpt>
      <trkpt lat="47.418236" lon="7.926706">
        <ele>716.700635</ele>
        <time>2021-11-20T18:36:13.219Z</time>
      </trkpt>
      <trkpt lat="47.418735" lon="7.928053">
        <ele>727.359774</ele>
        <time>2021-11-20T18:37:15.625Z</time>
      </trkpt>
      <trkpt lat="47.418844" lon="7.928621">
        <ele>731.222836</ele>
        <time>2021-11-20T18:37:39.543Z</time>
      </trkpt>
      <trkpt lat="47.418827" lon="7.928951">
        <ele>733.388308</ele>
        <time>2021-11-20T18:37:52.896Z</time>
      </trkpt>
      <trkpt lat="47.419061" lon="7.929738">
        <ele>739.012956</ele>
        <time>2021-11-20T18:38:27.200Z</time>
      </trkpt>
      <trkpt lat="47.419019" lon="7.930038">
        <ele>741.017455</ele>
        <time>2021-11-20T18:38:39.501Z</time>
      </trkpt>
      <trkpt lat="47.419056" lon="7.930533">
        <ele>744.261653</ele>
        <time>2021-11-20T18:38:58.789Z</time>
      </trkpt>
      <trkpt lat="47.419186" lon="7.930749">
        <ele>745.746099</ele>
        <time>2021-11-20T18:39:09.469Z</time>
      </trkpt>
      <trkpt lat="47.419326" lon="7.931556">
        <ele>750.024073</ele>
        <time>2021-11-20T18:39:42.969Z</time>
      </trkpt>
      <trkpt lat="47.419571" lon="7.932270">
        <ele>754.134957</ele>
        <time>2021-11-20T18:40:09.626Z</time>
      </trkpt>
      <trkpt lat="47.419799" lon="7.932769">
        <ele>757.226810</ele>
        <time>2021-11-20T18:40:27.476Z</time>
      </trkpt>
      <trkpt lat="47.419807" lon="7.932908">
        <ele>757.883024</ele>
        <time>2021-11-20T18:40:32.535Z</time>
      </trkpt>
      <trkpt lat="47.419808" lon="7.932981">
        <ele>757.988600</ele>
        <time>2021-11-20T18:40:34.640Z</time>
      </trkpt>
      <trkpt lat="47.419780" lon="7.933237">
        <ele>758.363566</ele>
        <time>2021-11-20T18:40:40.303Z</time>
      </trkpt>
      <trkpt lat="47.419737" lon="7.933541">
        <ele>758.812636</ele>
        <time>2021-11-20T18:40:48.816Z</time>
      </trkpt>
      <trkpt lat="47.419697" lon="7.933825">
        <ele>759.232087</ele>
        <time>2021-11-20T18:40:57.541Z</time>
      </trkpt>
      <trkpt lat="47.419497" lon="7.934707">
        <ele>760.577127</ele>
        <time>2021-11-20T18:41:26.295Z</time>
      </trkpt>
      <trkpt lat="47.419297" lon="7.934952">
        <ele>761.132259</ele>
        <time>2021-11-20T18:41:37.505Z</time>
      </trkpt>
      <trkpt lat="47.419161" lon="7.935303">
        <ele>761.692374</ele>
        <time>2021-11-20T18:41:46.669Z</time>
      </trkpt>
      <trkpt lat="47.418955" lon="7.936370">
        <ele>760.450156</ele>
        <time>2021-11-20T18:42:09.787Z</time>
      </trkpt>
      <trkpt lat="47.418877" lon="7.936595">
        <ele>760.167124</ele>
        <time>2021-11-20T18:42:15.269Z</time>
      </trkpt>
      <trkpt lat="47.418903" lon="7.937717">
        <ele>758.910266</ele>
        <time>2021-11-20T18:42:39.313Z</time>
      </trkpt>
      <trkpt lat="47.418879" lon="7.937864">
        <ele>758.740971</ele>
        <time>2021-11-20T18:42:42.427Z</time>
      </trkpt>
      <trkpt lat="47.418854" lon="7.937970">
        <ele>758.748094</ele>
        <time>2021-11-20T18:42:43.629Z</time>
      </trkpt>
      <trkpt lat="47.418782" lon="7.938308">
        <ele>758.822222</ele>
        <time>2021-11-20T18:42:47.996Z</time>
      </trkpt>
      <trkpt lat="47.418774" lon="7.938414">
        <ele>758.844533</ele>
        <time>2021-11-20T18:42:49.081Z</time>
      </trkpt>
      <trkpt lat="47.418762" lon="7.938641">
        <ele>758.892164</ele>
        <time>2021-11-20T18:42:51.274Z</time>
      </trkpt>
      <trkpt lat="47.418789" lon="7.939219">
        <ele>759.013365</ele>
        <time>2021-11-20T18:42:56.703Z</time>
      </trkpt>
      <trkpt lat="47.419082" lon="7.940220">
        <ele>759.241517</ele>
        <time>2021-11-20T18:43:09.243Z</time>
      </trkpt>
      <trkpt lat="47.419184" lon="7.941194">
        <ele>761.498482</ele>
        <time>2021-11-20T18:43:28.355Z</time>
      </trkpt>
      <trkpt lat="47.419425" lon="7.942445">
        <ele>765.164142</ele>
        <time>2021-11-20T18:43:57.897Z</time>
      </trkpt>
      <trkpt lat="47.419469" lon="7.942694">
        <ele>765.889403</ele>
        <time>2021-11-20T18:44:03.235Z</time>
      </trkpt>
      <trkpt lat="47.419480" lon="7.942782">
        <ele>766.141599</ele>
        <time>2021-11-20T18:44:07.559Z</time>
      </trkpt>
      <trkpt lat="47.419436" lon="7.943185">
        <ele>767.574530</ele>
        <time>2021-11-20T18:44:14.588Z</time>
      </trkpt>
      <trkpt lat="47.419403" lon="7.943280">
        <ele>768.039827</ele>
        <time>2021-11-20T18:44:19.797Z</time>
      </trkpt>
      <trkpt lat="47.419252" lon="7.943180">
        <ele>769.105367</ele>
        <time>2021-11-20T18:44:24.166Z</time>
      </trkpt>
      <trkpt lat="47.419144" lon="7.943099">
        <ele>769.885271</ele>
        <time>2021-11-20T18:44:27.432Z</time>
      </trkpt>
      <trkpt lat="47.419089" lon="7.943057">
        <ele>770.283935</ele>
        <time>2021-11-20T18:44:31.939Z</time>
      </trkpt>
      <trkpt lat="47.418829" lon="7.942895">
        <ele>772.100945</ele>
        <time>2021-11-20T18:44:42.514Z</time>
      </trkpt>
      <trkpt lat="47.418683" lon="7.942880">
        <ele>773.043396</ele>
        <time>2021-11-20T18:44:51.101Z</time>
      </trkpt>
      <trkpt lat="47.417902" lon="7.943117">
        <ele>778.177651</ele>
        <time>2021-11-20T18:45:25.838Z</time>
      </trkpt>
      <trkpt lat="47.417676" lon="7.943269">
        <ele>779.371908</ele>
        <time>2021-11-20T18:45:33.784Z</time>
      </trkpt>
      <trkpt lat="47.417619" lon="7.943333">
        <ele>779.701446</ele>
        <time>2021-11-20T18:45:37.814Z</time>
      </trkpt>
      <trkpt lat="47.417536" lon="7.943431">
        <ele>780.190503</ele>
        <time>2021-11-20T18:45:41.555Z</time>
      </trkpt>
      <trkpt lat="47.417382" lon="7.943636">
        <ele>781.144625</ele>
        <time>2021-11-20T18:45:47.875Z</time>
      </trkpt>
      <trkpt lat="47.417289" lon="7.943781">
        <ele>781.766953</ele>
        <time>2021-11-20T18:45:53.528Z</time>
      </trkpt>
      <trkpt lat="47.417184" lon="7.944017">
        <ele>782.646757</ele>
        <time>2021-11-20T18:45:58.517Z</time>
      </trkpt>
      <trkpt lat="47.416949" lon="7.944622">
        <ele>784.819742</ele>
        <time>2021-11-20T18:46:15.024Z</time>
      </trkpt>
      <trkpt lat="47.416738" lon="7.945120">
        <ele>786.641787</ele>
        <time>2021-11-20T18:46:27.190Z</time>
      </trkpt>
      <trkpt lat="47.416482" lon="7.945601">
        <ele>787.322104</ele>
        <time>2021-11-20T18:46:36.705Z</time>
      </trkpt>
      <trkpt lat="47.416165" lon="7.946005">
        <ele>788.009825</ele>
        <time>2021-11-20T18:46:44.619Z</time>
      </trkpt>
      <trkpt lat="47.416132" lon="7.946117">
        <ele>788.145629</ele>
        <time>2021-11-20T18:46:46.207Z</time>
      </trkpt>
      <trkpt lat="47.416139" lon="7.946189">
        <ele>788.226495</ele>
        <time>2021-11-20T18:46:46.917Z</time>
      </trkpt>
      <trkpt lat="47.416928" lon="7.949327">
        <ele>791.877465</ele>
        <time>2021-11-20T18:47:31.323Z</time>
      </trkpt>
      <trkpt lat="47.417121" lon="7.950299">
        <ele>793.934705</ele>
        <time>2021-11-20T18:47:48.778Z</time>
      </trkpt>
      <trkpt lat="47.417062" lon="7.950832">
        <ele>795.616558</ele>
        <time>2021-11-20T18:47:58.880Z</time>
      </trkpt>
      <trkpt lat="47.417106" lon="7.951355">
        <ele>797.257747</ele>
        <time>2021-11-20T18:48:11.794Z</time>
      </trkpt>
      <trkpt lat="47.416951" lon="7.951828">
        <ele>798.894333</ele>
        <time>2021-11-20T18:48:25.384Z</time>
      </trkpt>
      <trkpt lat="47.416889" lon="7.952227">
        <ele>800.169185</ele>
        <time>2021-11-20T18:48:37.827Z</time>
      </trkpt>
      <trkpt lat="47.416861" lon="7.953060">
        <ele>801.603797</ele>
        <time>2021-11-20T18:48:57.938Z</time>
      </trkpt>
      <trkpt lat="47.416853" lon="7.953281">
        <ele>801.898304</ele>
        <time>2021-11-20T18:49:06.196Z</time>
      </trkpt>
      <trkpt lat="47.416829" lon="7.954125">
        <ele>803.022415</ele>
        <time>2021-11-20T18:49:15.939Z</time>
      </trkpt>
      <trkpt lat="47.416799" lon="7.954846">
        <ele>803.983669</ele>
        <time>2021-11-20T18:49:25.682Z</time>
      </trkpt>
      <trkpt lat="47.416796" lon="7.955121">
        <ele>803.954034</ele>
        <time>2021-11-20T18:49:27.380Z</time>
      </trkpt>
      <trkpt lat="47.416775" lon="7.955506">
        <ele>801.799093</ele>
        <time>2021-11-20T18:49:30.765Z</time>
      </trkpt>
      <trkpt lat="47.416736" lon="7.955692">
        <ele>800.712690</ele>
        <time>2021-11-20T18:49:31.940Z</time>
      </trkpt>
      <trkpt lat="47.416719" lon="7.955770">
        <ele>800.255499</ele>
        <time>2021-11-20T18:49:32.866Z</time>
      </trkpt>
      <trkpt lat="47.416649" lon="7.955987">
        <ele>798.914285</ele>
        <time>2021-11-20T18:49:34.376Z</time>
      </trkpt>
      <trkpt lat="47.416504" lon="7.956534">
        <ele>795.636654</ele>
        <time>2021-11-20T18:49:37.893Z</time>
      </trkpt>
      <trkpt lat="47.416424" lon="7.956834">
        <ele>793.837614</ele>
        <time>2021-11-20T18:49:39.788Z</time>
      </trkpt>
      <trkpt lat="47.416408" lon="7.957014">
        <ele>792.824731</ele>
        <time>2021-11-20T18:49:40.803Z</time>
      </trkpt>
      <trkpt lat="47.416406" lon="7.957040">
        <ele>792.678738</ele>
        <time>2021-11-20T18:49:40.948Z</time>
      </trkpt>
      <trkpt lat="47.416407" lon="7.957239">
        <ele>791.568448</ele>
        <time>2021-11-20T18:49:42.115Z</time>
      </trkpt>
      <trkpt lat="47.416416" lon="7.957361">
        <ele>790.883753</ele>
        <time>2021-11-20T18:49:42.804Z</time>
      </trkpt>
      <trkpt lat="47.416412" lon="7.957433">
        <ele>790.480699</ele>
        <time>2021-11-20T18:49:43.216Z</time>
      </trkpt>
      <trkpt lat="47.416406" lon="7.957472">
        <ele>790.257558</ele>
        <time>2021-11-20T18:49:43.478Z</time>
      </trkpt>
      <trkpt lat="47.416383" lon="7.957563">
        <ele>789.715590</ele>
        <time>2021-11-20T18:49:44.022Z</time>
      </trkpt>
      <trkpt lat="47.416010" lon="7.958385">
        <ele>778.947693</ele>
        <time>2021-11-20T18:49:49.569Z</time>
      </trkpt>
      <trkpt lat="47.415866" lon="7.958514">
        <ele>776.171832</ele>
        <time>2021-11-20T18:49:50.970Z</time>
      </trkpt>
      <trkpt lat="47.415798" lon="7.958508">
        <ele>775.048884</ele>
        <time>2021-11-20T18:49:51.534Z</time>
      </trkpt>
      <trkpt lat="47.415782" lon="7.958489">
        <ele>774.710529</ele>
        <time>2021-11-20T18:49:51.706Z</time>
      </trkpt>
      <trkpt lat="47.415762" lon="7.958435">
        <ele>774.023852</ele>
        <time>2021-11-20T18:49:52.051Z</time>
      </trkpt>
      <trkpt lat="47.415841" lon="7.958052">
        <ele>769.557538</ele>
        <time>2021-11-20T18:49:54.313Z</time>
      </trkpt>
      <trkpt lat="47.415820" lon="7.957871">
        <ele>767.509082</ele>
        <time>2021-11-20T18:49:55.329Z</time>
      </trkpt>
      <trkpt lat="47.415769" lon="7.957799">
        <ele>766.346401</ele>
        <time>2021-11-20T18:49:55.909Z</time>
      </trkpt>
      <trkpt lat="47.415726" lon="7.957781">
        <ele>765.609675</ele>
        <time>2021-11-20T18:49:56.275Z</time>
      </trkpt>
      <trkpt lat="47.415687" lon="7.957776">
        <ele>764.964362</ele>
        <time>2021-11-20T18:49:56.614Z</time>
      </trkpt>
      <trkpt lat="47.415604" lon="7.957753">
        <ele>763.572295</ele>
        <time>2021-11-20T18:49:57.304Z</time>
      </trkpt>
      <trkpt lat="47.415141" lon="7.957051">
        <ele>753.086581</ele>
        <time>2021-11-20T18:50:02.747Z</time>
      </trkpt>
      <trkpt lat="47.414788" lon="7.956679">
        <ele>746.388118</ele>
        <time>2021-11-20T18:50:06.314Z</time>
      </trkpt>
      <trkpt lat="47.414733" lon="7.956650">
        <ele>745.485907</ele>
        <time>2021-11-20T18:50:06.795Z</time>
      </trkpt>
      <trkpt lat="47.414645" lon="7.956620">
        <ele>744.090610</ele>
        <time>2021-11-20T18:50:07.544Z</time>
      </trkpt>
      <trkpt lat="47.414381" lon="7.956571">
        <ele>739.979799</ele>
        <time>2021-11-20T18:50:09.751Z</time>
      </trkpt>
      <trkpt lat="47.414322" lon="7.956501">
        <ele>738.810828</ele>
        <time>2021-11-20T18:50:10.378Z</time>
      </trkpt>
      <trkpt lat="47.414102" lon="7.955575">
        <ele>729.760558</ele>
        <time>2021-11-20T18:50:16.079Z</time>
      </trkpt>
      <trkpt lat="47.414092" lon="7.955456">
        <ele>728.946097</ele>
        <time>2021-11-20T18:50:16.754Z</time>
      </trkpt>
      <trkpt lat="47.414088" lon="7.955357">
        <ele>728.272488</ele>
        <time>2021-11-20T18:50:17.591Z</time>
      </trkpt>
      <trkpt lat="47.414164" lon="7.954860">
        <ele>724.811731</ele>
        <time>2021-11-20T18:50:20.507Z</time>
      </trkpt>
      <trkpt lat="47.414179" lon="7.954777">
        <ele>724.228234</ele>
        <time>2021-11-20T18:50:21.269Z</time>
      </trkpt>
      <trkpt lat="47.414187" lon="7.954692">
        <ele>723.645355</ele>
        <time>2021-11-20T18:50:21.752Z</time>
      </trkpt>
      <trkpt lat="47.413981" lon="7.953526">
        <ele>715.460375</ele>
        <time>2021-11-20T18:50:28.881Z</time>
      </trkpt>
      <trkpt lat="47.413849" lon="7.953404">
        <ele>713.893539</ele>
        <time>2021-11-20T18:50:30.226Z</time>
      </trkpt>
      <trkpt lat="47.413744" lon="7.953544">
        <ele>712.364708</ele>
        <time>2021-11-20T18:50:31.424Z</time>
      </trkpt>
      <trkpt lat="47.413623" lon="7.954242">
        <ele>707.093676</ele>
        <time>2021-11-20T18:50:35.568Z</time>
      </trkpt>
      <trkpt lat="47.413426" lon="7.954821">
        <ele>702.352795</ele>
        <time>2021-11-20T18:50:39.295Z</time>
      </trkpt>
      <trkpt lat="47.413320" lon="7.955524">
        <ele>697.083921</ele>
        <time>2021-11-20T18:50:43.430Z</time>
      </trkpt>
      <trkpt lat="47.413320" lon="7.955812">
        <ele>694.977071</ele>
        <time>2021-11-20T18:50:45.092Z</time>
      </trkpt>
      <trkpt lat="47.413414" lon="7.956469">
        <ele>691.695746</ele>
        <time>2021-11-20T18:50:49.025Z</time>
      </trkpt>
      <trkpt lat="47.413585" lon="7.957139">
        <ele>688.380571</ele>
        <time>2021-11-20T18:50:53.333Z</time>
      </trkpt>
      <trkpt lat="47.413610" lon="7.957331">
        <ele>687.475368</ele>
        <time>2021-11-20T18:50:54.505Z</time>
      </trkpt>
      <trkpt lat="47.413613" lon="7.957356">
        <ele>687.357820</ele>
        <time>2021-11-20T18:50:54.649Z</time>
      </trkpt>
      <trkpt lat="47.413656" lon="7.957923">
        <ele>684.716363</ele>
        <time>2021-11-20T18:50:58.284Z</time>
      </trkpt>
      <trkpt lat="47.413817" lon="7.958660">
        <ele>681.455697</ele>
        <time>2021-11-20T18:51:03.728Z</time>
      </trkpt>
      <trkpt lat="47.413812" lon="7.958809">
        <ele>680.974443</ele>
        <time>2021-11-20T18:51:04.737Z</time>
      </trkpt>
      <trkpt lat="47.413802" lon="7.958891">
        <ele>680.705656</ele>
        <time>2021-11-20T18:51:05.294Z</time>
      </trkpt>
      <trkpt lat="47.413718" lon="7.959495">
        <ele>678.716472</ele>
        <time>2021-11-20T18:51:09.358Z</time>
      </trkpt>
      <trkpt lat="47.413635" lon="7.961024">
        <ele>673.768174</ele>
        <time>2021-11-20T18:51:19.293Z</time>
      </trkpt>
      <trkpt lat="47.413561" lon="7.961181">
        <ele>672.427059</ele>
        <time>2021-11-20T18:51:20.417Z</time>
      </trkpt>
      <trkpt lat="47.413534" lon="7.961193">
        <ele>672.088551</ele>
        <time>2021-11-20T18:51:22.389Z</time>
      </trkpt>
      <trkpt lat="47.413492" lon="7.961198">
        <ele>671.582662</ele>
        <time>2021-11-20T18:51:22.751Z</time>
      </trkpt>
      <trkpt lat="47.413402" lon="7.961116">
        <ele>670.313245</ele>
        <time>2021-11-20T18:51:23.769Z</time>
      </trkpt>
      <trkpt lat="47.413382" lon="7.961061">
        <ele>669.805965</ele>
        <time>2021-11-20T18:51:24.135Z</time>
      </trkpt>
      <trkpt lat="47.413372" lon="7.960997">
        <ele>669.272312</ele>
        <time>2021-11-20T18:51:24.501Z</time>
      </trkpt>
      <trkpt lat="47.413278" lon="7.960174">
        <ele>662.491221</ele>
        <time>2021-11-20T18:51:29.342Z</time>
      </trkpt>
      <trkpt lat="47.413184" lon="7.959787">
        <ele>659.150601</ele>
        <time>2021-11-20T18:51:31.683Z</time>
      </trkpt>
      <trkpt lat="47.412873" lon="7.958952">
        <ele>651.332168</ele>
        <time>2021-11-20T18:51:36.997Z</time>
      </trkpt>
      <trkpt lat="47.412748" lon="7.958706">
        <ele>648.534570</ele>
        <time>2021-11-20T18:51:38.716Z</time>
      </trkpt>
      <trkpt lat="47.412390" lon="7.958040">
        <ele>640.799663</ele>
        <time>2021-11-20T18:51:43.510Z</time>
      </trkpt>
      <trkpt lat="47.412275" lon="7.957771">
        <ele>637.906079</ele>
        <time>2021-11-20T18:51:45.321Z</time>
      </trkpt>
      <trkpt lat="47.412225" lon="7.957627">
        <ele>636.434203</ele>
        <time>2021-11-20T18:51:46.229Z</time>
      </trkpt>
      <trkpt lat="47.412141" lon="7.957339">
        <ele>633.582182</ele>
        <time>2021-11-20T18:51:48.005Z</time>
      </trkpt>
      <trkpt lat="47.411467" lon="7.954793">
        <ele>614.933881</ele>
        <time>2021-11-20T18:52:03.962Z</time>
      </trkpt>
      <trkpt lat="47.411309" lon="7.953076">
        <ele>606.511452</ele>
        <time>2021-11-20T18:52:14.674Z</time>
      </trkpt>
      <trkpt lat="47.411318" lon="7.952940">
        <ele>605.929332</ele>
        <time>2021-11-20T18:52:15.468Z</time>
      </trkpt>
      <trkpt lat="47.411318" lon="7.952940">
        <ele>605.929332</ele>
        <time>2021-11-20T18:52:15.470Z</time>
      </trkpt>
      <trkpt lat="47.411332" lon="7.952744">
        <ele>605.089738</ele>
        <time>2021-11-20T18:52:16.929Z</time>
      </trkpt>
      <trkpt lat="47.411342" lon="7.952556">
        <ele>604.286392</ele>
        <time>2021-11-20T18:52:18.103Z</time>
      </trkpt>
      <trkpt lat="47.411339" lon="7.952393">
        <ele>603.591759</ele>
        <time>2021-11-20T18:52:19.078Z</time>
      </trkpt>
      <trkpt lat="47.411332" lon="7.952247">
        <ele>602.968244</ele>
        <time>2021-11-20T18:52:20.103Z</time>
      </trkpt>
      <trkpt lat="47.411253" lon="7.951659">
        <ele>600.414487</ele>
        <time>2021-11-20T18:52:23.833Z</time>
      </trkpt>
      <trkpt lat="47.411181" lon="7.951510">
        <ele>599.592270</ele>
        <time>2021-11-20T18:52:24.902Z</time>
      </trkpt>
      <trkpt lat="47.411087" lon="7.951459">
        <ele>598.916020</ele>
        <time>2021-11-20T18:52:25.780Z</time>
      </trkpt>
      <trkpt lat="47.411058" lon="7.951457">
        <ele>598.719960</ele>
        <time>2021-11-20T18:52:26.467Z</time>
      </trkpt>
      <trkpt lat="47.411018" lon="7.951463">
        <ele>598.448439</ele>
        <time>2021-11-20T18:52:26.889Z</time>
      </trkpt>
      <trkpt lat="47.410965" lon="7.951503">
        <ele>598.046530</ele>
        <time>2021-11-20T18:52:27.436Z</time>
      </trkpt>
      <trkpt lat="47.410937" lon="7.951545">
        <ele>597.777085</ele>
        <time>2021-11-20T18:52:27.821Z</time>
      </trkpt>
      <trkpt lat="47.410917" lon="7.951577">
        <ele>597.578009</ele>
        <time>2021-11-20T18:52:28.060Z</time>
      </trkpt>
      <trkpt lat="47.410881" lon="7.951747">
        <ele>596.763921</ele>
        <time>2021-11-20T18:52:29.112Z</time>
      </trkpt>
      <trkpt lat="47.410744" lon="7.952382">
        <ele>593.717914</ele>
        <time>2021-11-20T18:52:33.409Z</time>
      </trkpt>
      <trkpt lat="47.410722" lon="7.952476">
        <ele>593.263346</ele>
        <time>2021-11-20T18:52:33.989Z</time>
      </trkpt>
      <trkpt lat="47.410697" lon="7.952552">
        <ele>592.877149</ele>
        <time>2021-11-20T18:52:34.508Z</time>
      </trkpt>
      <trkpt lat="47.410662" lon="7.952589">
        <ele>592.586523</ele>
        <time>2021-11-20T18:52:34.858Z</time>
      </trkpt>
      <trkpt lat="47.410406" lon="7.952799">
        <ele>590.609136</ele>
        <time>2021-11-20T18:52:37.560Z</time>
      </trkpt>
      <trkpt lat="47.410364" lon="7.952834">
        <ele>590.283501</ele>
        <time>2021-11-20T18:52:37.968Z</time>
      </trkpt>
      <trkpt lat="47.410262" lon="7.952936">
        <ele>589.451748</ele>
        <time>2021-11-20T18:52:39.060Z</time>
      </trkpt>
      <trkpt lat="47.410083" lon="7.953253">
        <ele>587.767493</ele>
        <time>2021-11-20T18:52:41.523Z</time>
      </trkpt>
      <trkpt lat="47.409973" lon="7.953914">
        <ele>585.908826</ele>
        <time>2021-11-20T18:52:45.769Z</time>
      </trkpt>
      <trkpt lat="47.409946" lon="7.954038">
        <ele>585.553142</ele>
        <time>2021-11-20T18:52:46.600Z</time>
      </trkpt>
      <trkpt lat="47.409923" lon="7.954123">
        <ele>585.303179</ele>
        <time>2021-11-20T18:52:47.147Z</time>
      </trkpt>
      <trkpt lat="47.409692" lon="7.954658">
        <ele>583.570319</ele>
        <time>2021-11-20T18:52:51.355Z</time>
      </trkpt>
      <trkpt lat="47.409622" lon="7.954762">
        <ele>583.169800</ele>
        <time>2021-11-20T18:52:52.301Z</time>
      </trkpt>
      <trkpt lat="47.409574" lon="7.954824">
        <ele>582.912565</ele>
        <time>2021-11-20T18:52:53.033Z</time>
      </trkpt>
      <trkpt lat="47.409423" lon="7.955015">
        <ele>582.110566</ele>
        <time>2021-11-20T18:52:55.231Z</time>
      </trkpt>
      <trkpt lat="47.409242" lon="7.955185">
        <ele>581.245218</ele>
        <time>2021-11-20T18:52:57.798Z</time>
      </trkpt>
      <trkpt lat="47.409003" lon="7.955345">
        <ele>580.843564</ele>
        <time>2021-11-20T18:53:01.108Z</time>
      </trkpt>
      <trkpt lat="47.408553" lon="7.955462">
        <ele>580.939700</ele>
        <time>2021-11-20T18:53:08.213Z</time>
      </trkpt>
      <trkpt lat="47.407402" lon="7.955496">
        <ele>581.181924</ele>
        <time>2021-11-20T18:53:31.353Z</time>
      </trkpt>
      <trkpt lat="47.407007" lon="7.955456">
        <ele>580.689592</ele>
        <time>2021-11-20T18:53:35.807Z</time>
      </trkpt>
      <trkpt lat="47.406239" lon="7.955187">
        <ele>579.594282</ele>
        <time>2021-11-20T18:53:44.485Z</time>
      </trkpt>
      <trkpt lat="47.406005" lon="7.955150">
        <ele>579.267700</ele>
        <time>2021-11-20T18:53:47.135Z</time>
      </trkpt>
      <trkpt lat="47.405912" lon="7.955153">
        <ele>579.138611</ele>
        <time>2021-11-20T18:53:48.041Z</time>
      </trkpt>
      <trkpt lat="47.405091" lon="7.955275">
        <ele>577.067868</ele>
        <time>2021-11-20T18:53:58.109Z</time>
      </trkpt>
      <trkpt lat="47.404813" lon="7.955410">
        <ele>576.124674</ele>
        <time>2021-11-20T18:54:01.455Z</time>
      </trkpt>
      <trkpt lat="47.404353" lon="7.955814">
        <ele>574.399858</ele>
        <time>2021-11-20T18:54:06.696Z</time>
      </trkpt>
      <trkpt lat="47.404138" lon="7.956088">
        <ele>573.484705</ele>
        <time>2021-11-20T18:54:09.684Z</time>
      </trkpt>
      <trkpt lat="47.404003" lon="7.956362">
        <ele>572.399949</ele>
        <time>2021-11-20T18:54:11.787Z</time>
      </trkpt>
      <trkpt lat="47.404002" lon="7.956367">
        <ele>572.362512</ele>
        <time>2021-11-20T18:54:12.460Z</time>
      </trkpt>
      <trkpt lat="47.403957" lon="7.956530">
        <ele>571.098460</ele>
        <time>2021-11-20T18:54:13.548Z</time>
      </trkpt>
      <trkpt lat="47.403697" lon="7.957714">
        <ele>562.160386</ele>
        <time>2021-11-20T18:54:20.788Z</time>
      </trkpt>
      <trkpt lat="47.403495" lon="7.958633">
        <ele>555.222151</ele>
        <time>2021-11-20T18:54:26.290Z</time>
      </trkpt>
      <trkpt lat="47.403402" lon="7.959004">
        <ele>552.119974</ele>
        <time>2021-11-20T18:54:28.501Z</time>
      </trkpt>
      <trkpt lat="47.403376" lon="7.959117">
        <ele>551.106637</ele>
        <time>2021-11-20T18:54:29.167Z</time>
      </trkpt>
      <trkpt lat="47.403358" lon="7.959239">
        <ele>550.046484</ele>
        <time>2021-11-20T18:54:29.865Z</time>
      </trkpt>
      <trkpt lat="47.403303" lon="7.959529">
        <ele>547.489431</ele>
        <time>2021-11-20T18:54:31.576Z</time>
      </trkpt>
      <trkpt lat="47.403264" lon="7.959687">
        <ele>546.061521</ele>
        <time>2021-11-20T18:54:32.520Z</time>
      </trkpt>
      <trkpt lat="47.402938" lon="7.960616">
        <ele>537.176813</ele>
        <time>2021-11-20T18:54:38.512Z</time>
      </trkpt>
      <trkpt lat="47.402888" lon="7.960792">
        <ele>535.556196</ele>
        <time>2021-11-20T18:54:39.588Z</time>
      </trkpt>
      <trkpt lat="47.402832" lon="7.961034">
        <ele>533.384733</ele>
        <time>2021-11-20T18:54:41.054Z</time>
      </trkpt>
      <trkpt lat="47.402629" lon="7.961912">
        <ele>528.262365</ele>
        <time>2021-11-20T18:54:46.490Z</time>
      </trkpt>
      <trkpt lat="47.402461" lon="7.962233">
        <ele>526.469685</ele>
        <time>2021-11-20T18:54:48.958Z</time>
      </trkpt>
      <trkpt lat="47.402376" lon="7.962347">
        <ele>525.720360</ele>
        <time>2021-11-20T18:54:50.037Z</time>
      </trkpt>
      <trkpt lat="47.402229" lon="7.962487">
        <ele>524.578768</ele>
        <time>2021-11-20T18:54:51.638Z</time>
      </trkpt>
      <trkpt lat="47.402126" lon="7.962577">
        <ele>523.797675</ele>
        <time>2021-11-20T18:54:52.705Z</time>
      </trkpt>
      <trkpt lat="47.402044" lon="7.962645">
        <ele>523.183888</ele>
        <time>2021-11-20T18:54:53.622Z</time>
      </trkpt>
      <trkpt lat="47.401926" lon="7.962736">
        <ele>522.315051</ele>
        <time>2021-11-20T18:54:54.905Z</time>
      </trkpt>
      <trkpt lat="47.401601" lon="7.962926">
        <ele>520.033633</ele>
        <time>2021-11-20T18:54:58.274Z</time>
      </trkpt>
      <trkpt lat="47.399352" lon="7.963734">
        <ele>512.543932</ele>
        <time>2021-11-20T18:55:22.782Z</time>
      </trkpt>
      <trkpt lat="47.398964" lon="7.963937">
        <ele>510.679124</ele>
        <time>2021-11-20T18:55:26.641Z</time>
      </trkpt>
      <trkpt lat="47.398900" lon="7.963982">
        <ele>510.358008</ele>
        <time>2021-11-20T18:55:27.508Z</time>
      </trkpt>
      <trkpt lat="47.398579" lon="7.964208">
        <ele>508.747016</ele>
        <time>2021-11-20T18:55:30.846Z</time>
      </trkpt>
      <trkpt lat="47.398181" lon="7.964489">
        <ele>506.748544</ele>
        <time>2021-11-20T18:55:34.962Z</time>
      </trkpt>
      <trkpt lat="47.398053" lon="7.964572">
        <ele>505.995503</ele>
        <time>2021-11-20T18:55:36.259Z</time>
      </trkpt>
      <trkpt lat="47.398002" lon="7.964618">
        <ele>505.597406</ele>
        <time>2021-11-20T18:55:36.777Z</time>
      </trkpt>
      <trkpt lat="47.397976" lon="7.964653">
        <ele>505.363060</ele>
        <time>2021-11-20T18:55:37.078Z</time>
      </trkpt>
      <trkpt lat="47.397941" lon="7.964854">
        <ele>504.427099</ele>
        <time>2021-11-20T18:55:38.399Z</time>
      </trkpt>
      <trkpt lat="47.398139" lon="7.965867">
        <ele>499.672142</ele>
        <time>2021-11-20T18:55:44.744Z</time>
      </trkpt>
      <trkpt lat="47.398101" lon="7.966103">
        <ele>498.578160</ele>
        <time>2021-11-20T18:55:46.214Z</time>
      </trkpt>
      <trkpt lat="47.397898" lon="7.966526">
        <ele>496.239778</ele>
        <time>2021-11-20T18:55:49.334Z</time>
      </trkpt>
      <trkpt lat="47.397787" lon="7.966754">
        <ele>494.973247</ele>
        <time>2021-11-20T18:55:51.025Z</time>
      </trkpt>
      <trkpt lat="47.397695" lon="7.966945">
        <ele>494.064542</ele>
        <time>2021-11-20T18:55:52.562Z</time>
      </trkpt>
      <trkpt lat="47.397311" lon="7.967962">
        <ele>490.469696</ele>
        <time>2021-11-20T18:56:00.211Z</time>
      </trkpt>
      <trkpt lat="47.397289" lon="7.968025">
        <ele>490.250861</ele>
        <time>2021-11-20T18:56:00.643Z</time>
      </trkpt>
      <trkpt lat="47.397222" lon="7.968222">
        <ele>489.570279</ele>
        <time>2021-11-20T18:56:02.134Z</time>
      </trkpt>
      <trkpt lat="47.397045" lon="7.968665">
        <ele>487.982282</ele>
        <time>2021-11-20T18:56:05.483Z</time>
      </trkpt>
      <trkpt lat="47.397016" lon="7.968712">
        <ele>487.785961</ele>
        <time>2021-11-20T18:56:05.879Z</time>
      </trkpt>
      <trkpt lat="47.396991" lon="7.968750">
        <ele>487.622379</ele>
        <time>2021-11-20T18:56:06.202Z</time>
      </trkpt>
      <trkpt lat="47.396859" lon="7.968860">
        <ele>486.931233</ele>
        <time>2021-11-20T18:56:07.725Z</time>
      </trkpt>
      <trkpt lat="47.396492" lon="7.968998">
        <ele>485.306844</ele>
        <time>2021-11-20T18:56:11.441Z</time>
      </trkpt>
      <trkpt lat="47.395948" lon="7.969708">
        <ele>482.343226</ele>
        <time>2021-11-20T18:56:18.540Z</time>
      </trkpt>
      <trkpt lat="47.395879" lon="7.969792">
        <ele>481.978189</ele>
        <time>2021-11-20T18:56:19.411Z</time>
      </trkpt>
      <trkpt lat="47.395766" lon="7.969901">
        <ele>481.427203</ele>
        <time>2021-11-20T18:56:20.659Z</time>
      </trkpt>
      <trkpt lat="47.395534" lon="7.970042">
        <ele>480.402990</ele>
        <time>2021-11-20T18:56:23.174Z</time>
      </trkpt>
      <trkpt lat="47.395073" lon="7.970323">
        <ele>478.433096</ele>
        <time>2021-11-20T18:56:28.027Z</time>
      </trkpt>
      <trkpt lat="47.394466" lon="7.970490">
        <ele>476.264209</ele>
        <time>2021-11-20T18:56:34.009Z</time>
      </trkpt>
      <trkpt lat="47.393747" lon="7.970632">
        <ele>473.716089</ele>
        <time>2021-11-20T18:56:41.331Z</time>
      </trkpt>
      <trkpt lat="47.393748" lon="7.970677">
        <ele>473.609023</ele>
        <time>2021-11-20T18:56:41.651Z</time>
      </trkpt>
      <trkpt lat="47.393745" lon="7.970768">
        <ele>473.392372</ele>
        <time>2021-11-20T18:56:42.296Z</time>
      </trkpt>
      <trkpt lat="47.393710" lon="7.971006">
        <ele>472.813218</ele>
        <time>2021-11-20T18:56:43.972Z</time>
      </trkpt>
      <trkpt lat="47.393658" lon="7.971321">
        <ele>472.247732</ele>
        <time>2021-11-20T18:56:46.263Z</time>
      </trkpt>
      <trkpt lat="47.393629" lon="7.971494">
        <ele>472.005210</ele>
        <time>2021-11-20T18:56:47.502Z</time>
      </trkpt>
      <trkpt lat="47.393539" lon="7.971795">
        <ele>471.557445</ele>
        <time>2021-11-20T18:56:49.864Z</time>
      </trkpt>
      <trkpt lat="47.393415" lon="7.972081">
        <ele>471.095287</ele>
        <time>2021-11-20T18:56:52.251Z</time>
      </trkpt>
      <trkpt lat="47.393308" lon="7.972283">
        <ele>470.746264</ele>
        <time>2021-11-20T18:56:54.134Z</time>
      </trkpt>
      <trkpt lat="47.392665" lon="7.973315">
        <ele>468.902185</ele>
        <time>2021-11-20T18:57:05.005Z</time>
      </trkpt>
      <trkpt lat="47.392611" lon="7.973459">
        <ele>468.886076</ele>
        <time>2021-11-20T18:57:06.395Z</time>
      </trkpt>
      <trkpt lat="47.392597" lon="7.973533">
        <ele>468.878557</ele>
        <time>2021-11-20T18:57:06.958Z</time>
      </trkpt>
      <trkpt lat="47.392585" lon="7.973615">
        <ele>468.870348</ele>
        <time>2021-11-20T18:57:07.699Z</time>
      </trkpt>
      <trkpt lat="47.392451" lon="7.974841">
        <ele>468.748824</ele>
        <time>2021-11-20T18:57:19.485Z</time>
      </trkpt>
      <trkpt lat="47.392425" lon="7.974952">
        <ele>468.737330</ele>
        <time>2021-11-20T18:57:20.704Z</time>
      </trkpt>
      <trkpt lat="47.392385" lon="7.975039">
        <ele>468.727039</ele>
        <time>2021-11-20T18:57:21.697Z</time>
      </trkpt>
      <trkpt lat="47.392426" lon="7.975095">
        <ele>468.718967</ele>
        <time>2021-11-20T18:57:22.476Z</time>
      </trkpt>
      <trkpt lat="47.392462" lon="7.975143">
        <ele>468.711957</ele>
        <time>2021-11-20T18:57:23.279Z</time>
      </trkpt>
      <trkpt lat="47.392493" lon="7.975186">
        <ele>468.705810</ele>
        <time>2021-11-20T18:57:24.164Z</time>
      </trkpt>
      <trkpt lat="47.392777" lon="7.975534">
        <ele>468.652472</ele>
        <time>2021-11-20T18:57:30.348Z</time>
      </trkpt>
      <trkpt lat="47.393306" lon="7.976033">
        <ele>469.452414</ele>
        <time>2021-11-20T18:57:42.264Z</time>
      </trkpt>
      <trkpt lat="47.393999" lon="7.976500">
        <ele>470.489994</ele>
        <time>2021-11-20T18:57:57.520Z</time>
      </trkpt>
      <trkpt lat="47.394194" lon="7.976656">
        <ele>470.792071</ele>
        <time>2021-11-20T18:58:01.967Z</time>
      </trkpt>
      <trkpt lat="47.394203" lon="7.976663">
        <ele>470.805926</ele>
        <time>2021-11-20T18:58:02.253Z</time>
      </trkpt>
      <trkpt lat="47.394377" lon="7.976949">
        <ele>471.303404</ele>
        <time>2021-11-20T18:58:07.313Z</time>
      </trkpt>
      <trkpt lat="47.394736" lon="7.977946">
        <ele>474.697649</ele>
        <time>2021-11-20T18:58:28.488Z</time>
      </trkpt>
      <trkpt lat="47.394840" lon="7.978472">
        <ele>476.344695</ele>
        <time>2021-11-20T18:58:42.298Z</time>
      </trkpt>
      <trkpt lat="47.394888" lon="7.979082">
        <ele>478.190504</ele>
        <time>2021-11-20T18:58:57.603Z</time>
      </trkpt>
      <trkpt lat="47.394891" lon="7.979156">
        <ele>478.413323</ele>
        <time>2021-11-20T18:59:00.003Z</time>
      </trkpt>
      <trkpt lat="47.394904" lon="7.979455">
        <ele>479.385791</ele>
        <time>2021-11-20T18:59:08.180Z</time>
      </trkpt>
      <trkpt lat="47.394933" lon="7.979919">
        <ele>481.223404</ele>
        <time>2021-11-20T18:59:21.079Z</time>
      </trkpt>
      <trkpt lat="47.394968" lon="7.980191">
        <ele>482.315270</ele>
        <time>2021-11-20T18:59:28.478Z</time>
      </trkpt>
      <trkpt lat="47.394979" lon="7.980277">
        <ele>482.660420</ele>
        <time>2021-11-20T18:59:31.991Z</time>
      </trkpt>
      <trkpt lat="47.395249" lon="7.981221">
        <ele>486.701817</ele>
        <time>2021-11-20T19:00:00.246Z</time>
      </trkpt>
      <trkpt lat="47.395545" lon="7.981948">
        <ele>489.515899</ele>
        <time>2021-11-20T19:00:21.163Z</time>
      </trkpt>
      <trkpt lat="47.395636" lon="7.982164">
        <ele>489.421505</ele>
        <time>2021-11-20T19:00:27.588Z</time>
      </trkpt>
      <trkpt lat="47.396175" lon="7.983469">
        <ele>488.854312</ele>
        <time>2021-11-20T19:00:41.535Z</time>
      </trkpt>
      <trkpt lat="47.396416" lon="7.984053">
        <ele>488.600548</ele>
        <time>2021-11-20T19:00:46.103Z</time>
      </trkpt>
      <trkpt lat="47.396579" lon="7.984448">
        <ele>486.838605</ele>
        <time>2021-11-20T19:00:48.980Z</time>
      </trkpt>
      <trkpt lat="47.396615" lon="7.984541">
        <ele>486.368456</ele>
        <time>2021-11-20T19:00:49.624Z</time>
      </trkpt>
      <trkpt lat="47.396807" lon="7.985018">
        <ele>483.933029</ele>
        <time>2021-11-20T19:00:53.025Z</time>
      </trkpt>
      <trkpt lat="47.396909" lon="7.985270">
        <ele>482.644511</ele>
        <time>2021-11-20T19:00:54.833Z</time>
      </trkpt>
      <trkpt lat="47.397138" lon="7.985840">
        <ele>479.735702</ele>
        <time>2021-11-20T19:00:58.840Z</time>
      </trkpt>
      <trkpt lat="47.397211" lon="7.986093">
        <ele>478.528769</ele>
        <time>2021-11-20T19:01:00.494Z</time>
      </trkpt>
      <trkpt lat="47.397256" lon="7.986330">
        <ele>477.448568</ele>
        <time>2021-11-20T19:01:01.967Z</time>
      </trkpt>
      <trkpt lat="47.397286" lon="7.986798">
        <ele>475.538547</ele>
        <time>2021-11-20T19:01:04.803Z</time>
      </trkpt>
      <trkpt lat="47.397242" lon="7.987219">
        <ele>473.856069</ele>
        <time>2021-11-20T19:01:07.445Z</time>
      </trkpt>
      <trkpt lat="47.396961" lon="7.988226">
        <ele>469.554136</ele>
        <time>2021-11-20T19:01:14.248Z</time>
      </trkpt>
      <trkpt lat="47.396918" lon="7.988400">
        <ele>468.822538</ele>
        <time>2021-11-20T19:01:15.405Z</time>
      </trkpt>
      <trkpt lat="47.396863" lon="7.988601">
        <ele>467.966257</ele>
        <time>2021-11-20T19:01:16.823Z</time>
      </trkpt>
      <trkpt lat="47.396806" lon="7.989040">
        <ele>466.255220</ele>
        <time>2021-11-20T19:01:19.729Z</time>
      </trkpt>
      <trkpt lat="47.396806" lon="7.989459">
        <ele>465.010357</ele>
        <time>2021-11-20T19:01:22.436Z</time>
      </trkpt>
      <trkpt lat="47.396851" lon="7.990086">
        <ele>463.137077</ele>
        <time>2021-11-20T19:01:26.494Z</time>
      </trkpt>
      <trkpt lat="47.396903" lon="7.990819">
        <ele>460.947385</ele>
        <time>2021-11-20T19:01:31.231Z</time>
      </trkpt>
      <trkpt lat="47.396939" lon="7.991355">
        <ele>459.347094</ele>
        <time>2021-11-20T19:01:34.846Z</time>
      </trkpt>
      <trkpt lat="47.397030" lon="7.992689">
        <ele>455.928956</ele>
        <time>2021-11-20T19:01:43.812Z</time>
      </trkpt>
      <trkpt lat="47.397042" lon="7.992877">
        <ele>455.468208</ele>
        <time>2021-11-20T19:01:45.160Z</time>
      </trkpt>
      <trkpt lat="47.397063" lon="7.993052">
        <ele>455.034557</ele>
        <time>2021-11-20T19:01:46.312Z</time>
      </trkpt>
      <trkpt lat="47.397136" lon="7.993457">
        <ele>454.011939</ele>
        <time>2021-11-20T19:01:49.247Z</time>
      </trkpt>
      <trkpt lat="47.397565" lon="7.994923">
        <ele>448.977991</ele>
        <time>2021-11-20T19:02:00.002Z</time>
      </trkpt>
      <trkpt lat="47.398318" lon="7.996503">
        <ele>441.413645</ele>
        <time>2021-11-20T19:02:11.847Z</time>
      </trkpt>
      <trkpt lat="47.398472" lon="7.996836">
        <ele>439.423630</ele>
        <time>2021-11-20T19:02:14.286Z</time>
      </trkpt>
      <trkpt lat="47.398801" lon="7.997499">
        <ele>435.367239</ele>
        <time>2021-11-20T19:02:19.231Z</time>
      </trkpt>
      <trkpt lat="47.398904" lon="7.997751">
        <ele>433.914686</ele>
        <time>2021-11-20T19:02:20.992Z</time>
      </trkpt>
      <trkpt lat="47.398936" lon="7.997856">
        <ele>433.346492</ele>
        <time>2021-11-20T19:02:21.684Z</time>
      </trkpt>
      <trkpt lat="47.399028" lon="7.998500">
        <ele>430.098805</ele>
        <time>2021-11-20T19:02:25.663Z</time>
      </trkpt>
      <trkpt lat="47.399063" lon="7.998781">
        <ele>428.688990</ele>
        <time>2021-11-20T19:02:27.376Z</time>
      </trkpt>
      <trkpt lat="47.399152" lon="7.999395">
        <ele>426.008937</ele>
        <time>2021-11-20T19:02:31.243Z</time>
      </trkpt>
      <trkpt lat="47.399265" lon="8.000456">
        <ele>421.439995</ele>
        <time>2021-11-20T19:02:37.893Z</time>
      </trkpt>
      <trkpt lat="47.399261" lon="8.001450">
        <ele>417.230664</ele>
        <time>2021-11-20T19:02:44.076Z</time>
      </trkpt>
      <trkpt lat="47.399255" lon="8.001537">
        <ele>416.923923</ele>
        <time>2021-11-20T19:02:44.581Z</time>
      </trkpt>
      <trkpt lat="47.399243" lon="8.001716">
        <ele>416.292991</ele>
        <time>2021-11-20T19:02:45.755Z</time>
      </trkpt>
      <trkpt lat="47.399217" lon="8.001947">
        <ele>415.471609</ele>
        <time>2021-11-20T19:02:47.265Z</time>
      </trkpt>
      <trkpt lat="47.399213" lon="8.001977">
        <ele>415.364359</ele>
        <time>2021-11-20T19:02:47.446Z</time>
      </trkpt>
      <trkpt lat="47.399102" lon="8.002695">
        <ele>412.781045</ele>
        <time>2021-11-20T19:02:52.034Z</time>
      </trkpt>
      <trkpt lat="47.399046" lon="8.003031">
        <ele>411.567286</ele>
        <time>2021-11-20T19:02:54.210Z</time>
      </trkpt>
      <trkpt lat="47.399018" lon="8.003198">
        <ele>410.963812</ele>
        <time>2021-11-20T19:02:55.281Z</time>
      </trkpt>
      <trkpt lat="47.398985" lon="8.003390">
        <ele>410.268977</ele>
        <time>2021-11-20T19:02:56.585Z</time>
      </trkpt>
      <trkpt lat="47.398962" lon="8.003520">
        <ele>409.797668</ele>
        <time>2021-11-20T19:02:57.436Z</time>
      </trkpt>
      <trkpt lat="47.398916" lon="8.003760">
        <ele>408.922741</ele>
        <time>2021-11-20T19:02:58.997Z</time>
      </trkpt>
      <trkpt lat="47.398736" lon="8.004398">
        <ele>407.348874</ele>
        <time>2021-11-20T19:03:03.707Z</time>
      </trkpt>
      <trkpt lat="47.398532" lon="8.005056">
        <ele>406.248077</ele>
        <time>2021-11-20T19:03:08.833Z</time>
      </trkpt>
      <trkpt lat="47.398478" lon="8.005253">
        <ele>405.924804</ele>
        <time>2021-11-20T19:03:10.392Z</time>
      </trkpt>
      <trkpt lat="47.398456" lon="8.005336">
        <ele>405.789227</ele>
        <time>2021-11-20T19:03:11.056Z</time>
      </trkpt>
      <trkpt lat="47.398434" lon="8.005419">
        <ele>405.653650</ele>
        <time>2021-11-20T19:03:11.740Z</time>
      </trkpt>
      <trkpt lat="47.398366" lon="8.005776">
        <ele>405.089563</ele>
        <time>2021-11-20T19:03:14.572Z</time>
      </trkpt>
      <trkpt lat="47.398340" lon="8.005973">
        <ele>404.784283</ele>
        <time>2021-11-20T19:03:16.130Z</time>
      </trkpt>
      <trkpt lat="47.398325" lon="8.006092">
        <ele>404.600172</ele>
        <time>2021-11-20T19:03:17.106Z</time>
      </trkpt>
      <trkpt lat="47.398315" lon="8.006322">
        <ele>404.249620</ele>
        <time>2021-11-20T19:03:18.922Z</time>
      </trkpt>
      <trkpt lat="47.398309" lon="8.006503">
        <ele>403.973989</ele>
        <time>2021-11-20T19:03:20.442Z</time>
      </trkpt>
      <trkpt lat="47.398305" lon="8.006599">
        <ele>403.966551</ele>
        <time>2021-11-20T19:03:21.274Z</time>
      </trkpt>
      <trkpt lat="47.398332" lon="8.007138">
        <ele>404.017047</ele>
        <time>2021-11-20T19:03:26.103Z</time>
      </trkpt>
      <trkpt lat="47.398342" lon="8.007301">
        <ele>404.032339</ele>
        <time>2021-11-20T19:03:27.627Z</time>
      </trkpt>
      <trkpt lat="47.398355" lon="8.007511">
        <ele>404.052041</ele>
        <time>2021-11-20T19:03:29.781Z</time>
      </trkpt>
      <trkpt lat="47.398361" lon="8.007613">
        <ele>404.061607</ele>
        <time>2021-11-20T19:03:30.914Z</time>
      </trkpt>
      <trkpt lat="47.398369" lon="8.007869">
        <ele>404.085550</ele>
        <time>2021-11-20T19:03:33.580Z</time>
      </trkpt>
      <trkpt lat="47.398359" lon="8.008044">
        <ele>404.101959</ele>
        <time>2021-11-20T19:03:35.477Z</time>
      </trkpt>
      <trkpt lat="47.398326" lon="8.008322">
        <ele>404.128328</ele>
        <time>2021-11-20T19:03:38.736Z</time>
      </trkpt>
      <trkpt lat="47.398321" lon="8.008362">
        <ele>404.132129</ele>
        <time>2021-11-20T19:03:39.071Z</time>
      </trkpt>
      <trkpt lat="47.398514" lon="8.008377">
        <ele>404.158805</ele>
        <time>2021-11-20T19:03:42.429Z</time>
      </trkpt>
      <trkpt lat="47.398777" lon="8.008383">
        <ele>404.195110</ele>
        <time>2021-11-20T19:03:47.173Z</time>
      </trkpt>
      <trkpt lat="47.399079" lon="8.008371">
        <ele>404.745144</ele>
        <time>2021-11-20T19:03:52.886Z</time>
      </trkpt>
      <trkpt lat="47.399120" lon="8.008370">
        <ele>404.846601</ele>
        <time>2021-11-20T19:03:53.723Z</time>
      </trkpt>
      <trkpt lat="47.399318" lon="8.008362">
        <ele>405.336679</ele>
        <time>2021-11-20T19:03:57.642Z</time>
      </trkpt>
      <trkpt lat="47.399363" lon="8.008358">
        <ele>405.448220</ele>
        <time>2021-11-20T19:03:58.635Z</time>
      </trkpt>
      <trkpt lat="47.399521" lon="8.008344">
        <ele>405.839848</ele>
        <time>2021-11-20T19:04:01.870Z</time>
      </trkpt>
      <trkpt lat="47.399704" lon="8.008325">
        <ele>406.293746</ele>
        <time>2021-11-20T19:04:05.833Z</time>
      </trkpt>
      <trkpt lat="47.399749" lon="8.008324">
        <ele>406.405098</ele>
        <time>2021-11-20T19:04:06.953Z</time>
      </trkpt>
      <trkpt lat="47.399904" lon="8.008326">
        <ele>406.788616</ele>
        <time>2021-11-20T19:04:11.125Z</time>
      </trkpt>
      <trkpt lat="47.400262" lon="8.008339">
        <ele>407.674652</ele>
        <time>2021-11-20T19:04:23.334Z</time>
      </trkpt>
      <trkpt lat="47.400342" lon="8.008339">
        <ele>407.872589</ele>
        <time>2021-11-20T19:04:29.885Z</time>
      </trkpt>
      <trkpt lat="47.400495" lon="8.008328">
        <ele>408.251592</ele>
        <time>2021-11-20T19:04:31.607Z</time>
      </trkpt>
      <trkpt lat="47.400645" lon="8.008316">
        <ele>408.623267</ele>
        <time>2021-11-20T19:04:33.183Z</time>
      </trkpt>
      <trkpt lat="47.400970" lon="8.008293">
        <ele>409.511621</ele>
        <time>2021-11-20T19:04:42.350Z</time>
      </trkpt>
      <trkpt lat="47.401050" lon="8.008287">
        <ele>409.731220</ele>
        <time>2021-11-20T19:04:47.610Z</time>
      </trkpt>
      <trkpt lat="47.401162" lon="8.008282">
        <ele>410.038405</ele>
        <time>2021-11-20T19:04:49.920Z</time>
      </trkpt>
      <trkpt lat="47.401334" lon="8.008291">
        <ele>410.510232</ele>
        <time>2021-11-20T19:04:52.013Z</time>
      </trkpt>
      <trkpt lat="47.401361" lon="8.008293">
        <ele>410.584345</ele>
        <time>2021-11-20T19:04:52.242Z</time>
      </trkpt>
      <trkpt lat="47.401439" lon="8.008298">
        <ele>410.798380</ele>
        <time>2021-11-20T19:05:00.585Z</time>
      </trkpt>
      <trkpt lat="47.401679" lon="8.008305">
        <ele>411.456460</ele>
        <time>2021-11-20T19:05:02.970Z</time>
      </trkpt>
      <trkpt lat="47.401893" lon="8.008300">
        <ele>412.043206</ele>
        <time>2021-11-20T19:05:10.769Z</time>
      </trkpt>
      <trkpt lat="47.401904" lon="8.008300">
        <ele>412.073362</ele>
        <time>2021-11-20T19:05:10.922Z</time>
      </trkpt>
      <trkpt lat="47.402040" lon="8.008299">
        <ele>412.446206</ele>
        <time>2021-11-20T19:05:12.583Z</time>
      </trkpt>
      <trkpt lat="47.402104" lon="8.008297">
        <ele>412.621699</ele>
        <time>2021-11-20T19:05:14.957Z</time>
      </trkpt>
      <trkpt lat="47.402278" lon="8.008293">
        <ele>413.098771</ele>
        <time>2021-11-20T19:05:20.958Z</time>
      </trkpt>
      <trkpt lat="47.402363" lon="8.008290">
        <ele>413.331862</ele>
        <time>2021-11-20T19:05:21.949Z</time>
      </trkpt>
      <trkpt lat="47.402426" lon="8.008291">
        <ele>413.504585</ele>
        <time>2021-11-20T19:05:22.655Z</time>
      </trkpt>
      <trkpt lat="47.402695" lon="8.008273">
        <ele>414.235697</ele>
        <time>2021-11-20T19:05:31.825Z</time>
      </trkpt>
      <trkpt lat="47.402781" lon="8.008263">
        <ele>414.469629</ele>
        <time>2021-11-20T19:05:32.947Z</time>
      </trkpt>
      <trkpt lat="47.403133" lon="8.008099">
        <ele>415.470501</ele>
        <time>2021-11-20T19:05:42.595Z</time>
      </trkpt>
      <trkpt lat="47.403304" lon="8.007981">
        <ele>415.982295</ele>
        <time>2021-11-20T19:05:44.928Z</time>
      </trkpt>
      <trkpt lat="47.403452" lon="8.007880">
        <ele>416.424378</ele>
        <time>2021-11-20T19:05:49.700Z</time>
      </trkpt>
      <trkpt lat="47.403520" lon="8.007837">
        <ele>416.624956</ele>
        <time>2021-11-20T19:05:51.679Z</time>
      </trkpt>
      <trkpt lat="47.403562" lon="8.007823">
        <ele>416.741713</ele>
        <time>2021-11-20T19:05:53.153Z</time>
      </trkpt>
      <trkpt lat="47.403653" lon="8.007796">
        <ele>416.993409</ele>
        <time>2021-11-20T19:05:55.726Z</time>
      </trkpt>
      <trkpt lat="47.403772" lon="8.007787">
        <ele>417.316530</ele>
        <time>2021-11-20T19:05:58.947Z</time>
      </trkpt>
      <trkpt lat="47.403792" lon="8.007790">
        <ele>417.371043</ele>
        <time>2021-11-20T19:05:59.779Z</time>
      </trkpt>
      <trkpt lat="47.403985" lon="8.007820">
        <ele>417.897300</ele>
        <time>2021-11-20T19:06:05.355Z</time>
      </trkpt>
      <trkpt lat="47.404137" lon="8.007834">
        <ele>418.310286</ele>
        <time>2021-11-20T19:06:09.482Z</time>
      </trkpt>
      <trkpt lat="47.404271" lon="8.007832">
        <ele>418.658654</ele>
        <time>2021-11-20T19:06:13.515Z</time>
      </trkpt>
      <trkpt lat="47.404646" lon="8.007793">
        <ele>419.604536</ele>
        <time>2021-11-20T19:06:23.877Z</time>
      </trkpt>
      <trkpt lat="47.404814" lon="8.007770">
        <ele>420.029056</ele>
        <time>2021-11-20T19:06:28.327Z</time>
      </trkpt>
      <trkpt lat="47.404973" lon="8.007737">
        <ele>420.433048</ele>
        <time>2021-11-20T19:06:32.605Z</time>
      </trkpt>
      <trkpt lat="47.405164" lon="8.007669">
        <ele>420.927383</ele>
        <time>2021-11-20T19:06:37.474Z</time>
      </trkpt>
      <trkpt lat="47.405336" lon="8.007607">
        <ele>421.372850</ele>
        <time>2021-11-20T19:06:41.846Z</time>
      </trkpt>
      <trkpt lat="47.405463" lon="8.007552">
        <ele>421.705842</ele>
        <time>2021-11-20T19:06:44.758Z</time>
      </trkpt>
      <trkpt lat="47.405495" lon="8.007540">
        <ele>421.788911</ele>
        <time>2021-11-20T19:06:45.533Z</time>
      </trkpt>
      <trkpt lat="47.405569" lon="8.007513">
        <ele>421.980697</ele>
        <time>2021-11-20T19:06:47.240Z</time>
      </trkpt>
      <trkpt lat="47.405697" lon="8.007460">
        <ele>422.315169</ele>
        <time>2021-11-20T19:06:50.198Z</time>
      </trkpt>
      <trkpt lat="47.405857" lon="8.007395">
        <ele>422.732689</ele>
        <time>2021-11-20T19:06:53.757Z</time>
      </trkpt>
      <trkpt lat="47.406049" lon="8.007319">
        <ele>423.184162</ele>
        <time>2021-11-20T19:06:57.800Z</time>
      </trkpt>
      <trkpt lat="47.406056" lon="8.007317">
        <ele>423.198491</ele>
        <time>2021-11-20T19:06:57.867Z</time>
      </trkpt>
      <trkpt lat="47.406348" lon="8.007199">
        <ele>423.806911</ele>
        <time>2021-11-20T19:07:04.751Z</time>
      </trkpt>
      <trkpt lat="47.406380" lon="8.007179">
        <ele>423.876743</ele>
        <time>2021-11-20T19:07:05.462Z</time>
      </trkpt>
      <trkpt lat="47.406542" lon="8.007065">
        <ele>424.237373</ele>
        <time>2021-11-20T19:07:09.565Z</time>
      </trkpt>
      <trkpt lat="47.406591" lon="8.007007">
        <ele>424.363558</ele>
        <time>2021-11-20T19:07:10.985Z</time>
      </trkpt>
      <trkpt lat="47.406616" lon="8.006959">
        <ele>424.445944</ele>
        <time>2021-11-20T19:07:11.900Z</time>
      </trkpt>
      <trkpt lat="47.406711" lon="8.006770">
        <ele>424.766173</ele>
        <time>2021-11-20T19:07:15.344Z</time>
      </trkpt>
      <trkpt lat="47.406797" lon="8.006505">
        <ele>425.165930</ele>
        <time>2021-11-20T19:07:20.187Z</time>
      </trkpt>
      <trkpt lat="47.406827" lon="8.006396">
        <ele>425.325985</ele>
        <time>2021-11-20T19:07:21.832Z</time>
      </trkpt>
      <trkpt lat="47.406834" lon="8.006372">
        <ele>425.361533</ele>
        <time>2021-11-20T19:07:22.065Z</time>
      </trkpt>
      <trkpt lat="47.406875" lon="8.006223">
        <ele>425.580317</ele>
        <time>2021-11-20T19:07:24.786Z</time>
      </trkpt>
      <trkpt lat="47.406945" lon="8.005975">
        <ele>425.945813</ele>
        <time>2021-11-20T19:07:29.004Z</time>
      </trkpt>
      <trkpt lat="47.406968" lon="8.005861">
        <ele>426.107621</ele>
        <time>2021-11-20T19:07:30.484Z</time>
      </trkpt>
      <trkpt lat="47.407034" lon="8.005521">
        <ele>426.588741</ele>
        <time>2021-11-20T19:07:36.658Z</time>
      </trkpt>
      <trkpt lat="47.407096" lon="8.005346">
        <ele>426.967850</ele>
        <time>2021-11-20T19:07:39.528Z</time>
      </trkpt>
      <trkpt lat="47.407161" lon="8.005248">
        <ele>427.236452</ele>
        <time>2021-11-20T19:07:41.853Z</time>
      </trkpt>
      <trkpt lat="47.407210" lon="8.005174">
        <ele>427.439110</ele>
        <time>2021-11-20T19:07:43.743Z</time>
      </trkpt>
      <trkpt lat="47.407258" lon="8.005103">
        <ele>427.635557</ele>
        <time>2021-11-20T19:07:45.638Z</time>
      </trkpt>
      <trkpt lat="47.407343" lon="8.004993">
        <ele>427.962373</ele>
        <time>2021-11-20T19:07:48.205Z</time>
      </trkpt>
      <trkpt lat="47.407434" lon="8.004867">
        <ele>428.323085</ele>
        <time>2021-11-20T19:07:51.404Z</time>
      </trkpt>
      <trkpt lat="47.407533" lon="8.004764">
        <ele>428.673293</ele>
        <time>2021-11-20T19:07:54.889Z</time>
      </trkpt>
      <trkpt lat="47.407827" lon="8.004602">
        <ele>429.580859</ele>
        <time>2021-11-20T19:08:03.330Z</time>
      </trkpt>
      <trkpt lat="47.407861" lon="8.004588">
        <ele>429.682948</ele>
        <time>2021-11-20T19:08:04.322Z</time>
      </trkpt>
      <trkpt lat="47.407996" lon="8.004508">
        <ele>430.103652</ele>
        <time>2021-11-20T19:08:07.999Z</time>
      </trkpt>
      <trkpt lat="47.408121" lon="8.004419">
        <ele>430.504985</ele>
        <time>2021-11-20T19:08:11.868Z</time>
      </trkpt>
      <trkpt lat="47.408160" lon="8.004389">
        <ele>430.632158</ele>
        <time>2021-11-20T19:08:13.425Z</time>
      </trkpt>
      <trkpt lat="47.408375" lon="8.004118">
        <ele>431.449544</ele>
        <time>2021-11-20T19:08:20.932Z</time>
      </trkpt>
      <trkpt lat="47.408524" lon="8.003903">
        <ele>432.072818</ele>
        <time>2021-11-20T19:08:26.946Z</time>
      </trkpt>
      <trkpt lat="47.408562" lon="8.003845">
        <ele>432.244397</ele>
        <time>2021-11-20T19:08:28.398Z</time>
      </trkpt>
      <trkpt lat="47.408698" lon="8.003619">
        <ele>432.887176</ele>
        <time>2021-11-20T19:08:34.134Z</time>
      </trkpt>
      <trkpt lat="47.408816" lon="8.003405">
        <ele>433.473877</ele>
        <time>2021-11-20T19:08:39.047Z</time>
      </trkpt>
      <trkpt lat="47.408857" lon="8.003323">
        <ele>433.690568</ele>
        <time>2021-11-20T19:08:40.813Z</time>
      </trkpt>
      <trkpt lat="47.408990" lon="8.003018">
        <ele>434.461739</ele>
        <time>2021-11-20T19:08:47.943Z</time>
      </trkpt>
      <trkpt lat="47.409165" lon="8.002620">
        <ele>435.470518</ele>
        <time>2021-11-20T19:08:57.171Z</time>
      </trkpt>
      <trkpt lat="47.409346" lon="8.002206">
        <ele>436.518081</ele>
        <time>2021-11-20T19:09:06.710Z</time>
      </trkpt>
      <trkpt lat="47.409631" lon="8.001555">
        <ele>438.076193</ele>
        <time>2021-11-20T19:09:20.825Z</time>
      </trkpt>
      <trkpt lat="47.409658" lon="8.001493">
        <ele>438.213044</ele>
        <time>2021-11-20T19:09:21.279Z</time>
      </trkpt>
      <trkpt lat="47.409988" lon="8.000760">
        <ele>439.847175</ele>
        <time>2021-11-20T19:09:36.814Z</time>
      </trkpt>
      <trkpt lat="47.410086" lon="8.000529">
        <ele>440.353234</ele>
        <time>2021-11-20T19:09:39.117Z</time>
      </trkpt>
      <trkpt lat="47.410265" lon="8.000090">
        <ele>441.304560</ele>
        <time>2021-11-20T19:09:49.038Z</time>
      </trkpt>
      <trkpt lat="47.410314" lon="7.999955">
        <ele>441.588906</ele>
        <time>2021-11-20T19:09:52.179Z</time>
      </trkpt>
      <trkpt lat="47.410374" lon="7.999735">
        <ele>442.029172</ele>
        <time>2021-11-20T19:09:59.549Z</time>
      </trkpt>
      <trkpt lat="47.410419" lon="7.999549">
        <ele>442.400378</ele>
        <time>2021-11-20T19:10:00.795Z</time>
      </trkpt>
      <trkpt lat="47.410469" lon="7.999337">
        <ele>443.166067</ele>
        <time>2021-11-20T19:10:08.963Z</time>
      </trkpt>
      <trkpt lat="47.410539" lon="7.998750">
        <ele>445.198907</ele>
        <time>2021-11-20T19:10:20.815Z</time>
      </trkpt>
      <trkpt lat="47.410563" lon="7.998432">
        <ele>446.290185</ele>
        <time>2021-11-20T19:10:24.119Z</time>
      </trkpt>
      <trkpt lat="47.410573" lon="7.998302">
        <ele>446.736412</ele>
        <time>2021-11-20T19:10:29.150Z</time>
      </trkpt>
      <trkpt lat="47.410730" lon="7.996495">
        <ele>453.498605</ele>
        <time>2021-11-20T19:11:17.764Z</time>
      </trkpt>
      <trkpt lat="47.410789" lon="7.995936">
        <ele>456.136444</ele>
        <time>2021-11-20T19:11:34.236Z</time>
      </trkpt>
      <trkpt lat="47.410842" lon="7.995586">
        <ele>457.808668</ele>
        <time>2021-11-20T19:11:44.425Z</time>
      </trkpt>
      <trkpt lat="47.410895" lon="7.995177">
        <ele>459.750267</ele>
        <time>2021-11-20T19:11:56.373Z</time>
      </trkpt>
      <trkpt lat="47.410955" lon="7.994799">
        <ele>461.560513</ele>
        <time>2021-11-20T19:12:08.006Z</time>
      </trkpt>
      <trkpt lat="47.410996" lon="7.994555">
        <ele>462.732700</ele>
        <time>2021-11-20T19:12:14.687Z</time>
      </trkpt>
      <trkpt lat="47.411029" lon="7.994255">
        <ele>464.149501</ele>
        <time>2021-11-20T19:12:23.704Z</time>
      </trkpt>
      <trkpt lat="47.411035" lon="7.994069">
        <ele>465.016855</ele>
        <time>2021-11-20T19:12:29.349Z</time>
      </trkpt>
      <trkpt lat="47.411038" lon="7.993958">
        <ele>465.534294</ele>
        <time>2021-11-20T19:12:34.830Z</time>
      </trkpt>
      <trkpt lat="47.411014" lon="7.993793">
        <ele>466.320401</ele>
        <time>2021-11-20T19:12:39.626Z</time>
      </trkpt>
      <trkpt lat="47.410860" lon="7.992731">
        <ele>471.379392</ele>
        <time>2021-11-20T19:13:11.786Z</time>
      </trkpt>
      <trkpt lat="47.410870" lon="7.992113">
        <ele>474.258808</ele>
        <time>2021-11-20T19:13:28.484Z</time>
      </trkpt>
      <trkpt lat="47.410911" lon="7.991894">
        <ele>475.317206</ele>
        <time>2021-11-20T19:13:35.089Z</time>
      </trkpt>
      <trkpt lat="47.410918" lon="7.991867">
        <ele>475.451883</ele>
        <time>2021-11-20T19:13:36.940Z</time>
      </trkpt>
      <trkpt lat="47.411034" lon="7.991612">
        <ele>476.856614</ele>
        <time>2021-11-20T19:13:43.350Z</time>
      </trkpt>
      <trkpt lat="47.411178" lon="7.991293">
        <ele>478.570739</ele>
        <time>2021-11-20T19:13:52.167Z</time>
      </trkpt>
      <trkpt lat="47.411641" lon="7.990682">
        <ele>482.671156</ele>
        <time>2021-11-20T19:14:16.047Z</time>
      </trkpt>
      <trkpt lat="47.411782" lon="7.990459">
        <ele>484.035400</ele>
        <time>2021-11-20T19:14:24.046Z</time>
      </trkpt>
      <trkpt lat="47.411896" lon="7.990275">
        <ele>485.150554</ele>
        <time>2021-11-20T19:14:33.356Z</time>
      </trkpt>
      <trkpt lat="47.411911" lon="7.990245">
        <ele>485.317291</ele>
        <time>2021-11-20T19:14:33.615Z</time>
      </trkpt>
      <trkpt lat="47.412444" lon="7.989410">
        <ele>491.308975</ele>
        <time>2021-11-20T19:15:09.292Z</time>
      </trkpt>
      <trkpt lat="47.412686" lon="7.989032">
        <ele>494.490343</ele>
        <time>2021-11-20T19:15:26.691Z</time>
      </trkpt>
      <trkpt lat="47.412964" lon="7.988572">
        <ele>498.260961</ele>
        <time>2021-11-20T19:15:50.531Z</time>
      </trkpt>
      <trkpt lat="47.413230" lon="7.987852">
        <ele>503.276169</ele>
        <time>2021-11-20T19:16:21.917Z</time>
      </trkpt>
      <trkpt lat="47.413413" lon="7.987069">
        <ele>505.626841</ele>
        <time>2021-11-20T19:16:48.763Z</time>
      </trkpt>
      <trkpt lat="47.413493" lon="7.986726">
        <ele>506.333530</ele>
        <time>2021-11-20T19:16:57.313Z</time>
      </trkpt>
      <trkpt lat="47.413557" lon="7.986404">
        <ele>506.987237</ele>
        <time>2021-11-20T19:17:01.237Z</time>
      </trkpt>
      <trkpt lat="47.413708" lon="7.985860">
        <ele>508.132552</ele>
        <time>2021-11-20T19:17:08.257Z</time>
      </trkpt>
      <trkpt lat="47.413842" lon="7.985578">
        <ele>508.803745</ele>
        <time>2021-11-20T19:17:11.772Z</time>
      </trkpt>
      <trkpt lat="47.414004" lon="7.985427">
        <ele>509.355067</ele>
        <time>2021-11-20T19:17:14.414Z</time>
      </trkpt>
      <trkpt lat="47.414079" lon="7.985396">
        <ele>509.510273</ele>
        <time>2021-11-20T19:17:15.243Z</time>
      </trkpt>
      <trkpt lat="47.414120" lon="7.985383">
        <ele>509.441817</ele>
        <time>2021-11-20T19:17:15.659Z</time>
      </trkpt>
      <trkpt lat="47.414177" lon="7.985372">
        <ele>509.347974</ele>
        <time>2021-11-20T19:17:16.366Z</time>
      </trkpt>
      <trkpt lat="47.414264" lon="7.985381">
        <ele>509.205598</ele>
        <time>2021-11-20T19:17:17.199Z</time>
      </trkpt>
      <trkpt lat="47.414423" lon="7.985446">
        <ele>508.936280</ele>
        <time>2021-11-20T19:17:19.624Z</time>
      </trkpt>
      <trkpt lat="47.414626" lon="7.985681">
        <ele>508.515304</ele>
        <time>2021-11-20T19:17:22.132Z</time>
      </trkpt>
      <trkpt lat="47.415025" lon="7.986604">
        <ele>507.305371</ele>
        <time>2021-11-20T19:17:29.652Z</time>
      </trkpt>
      <trkpt lat="47.415239" lon="7.986924">
        <ele>506.808366</ele>
        <time>2021-11-20T19:17:32.853Z</time>
      </trkpt>
      <trkpt lat="47.416321" lon="7.987699">
        <ele>510.828780</ele>
        <time>2021-11-20T19:18:05.775Z</time>
      </trkpt>
      <trkpt lat="47.416569" lon="7.988004">
        <ele>512.099360</ele>
        <time>2021-11-20T19:18:17.792Z</time>
      </trkpt>
      <trkpt lat="47.416912" lon="7.988562">
        <ele>514.646177</ele>
        <time>2021-11-20T19:18:39.353Z</time>
      </trkpt>
      <trkpt lat="47.417382" lon="7.989029">
        <ele>519.692229</ele>
        <time>2021-11-20T19:19:03.181Z</time>
      </trkpt>
      <trkpt lat="47.417566" lon="7.989166">
        <ele>521.527928</ele>
        <time>2021-11-20T19:19:14.161Z</time>
      </trkpt>
      <trkpt lat="47.418513" lon="7.989916">
        <ele>531.266250</ele>
        <time>2021-11-20T19:20:15.107Z</time>
      </trkpt>
      <trkpt lat="47.418705" lon="7.990069">
        <ele>533.440840</ele>
        <time>2021-11-20T19:20:25.692Z</time>
      </trkpt>
      <trkpt lat="47.418912" lon="7.990235">
        <ele>535.788677</ele>
        <time>2021-11-20T19:20:41.600Z</time>
      </trkpt>
      <trkpt lat="47.419400" lon="7.990631">
        <ele>541.338718</ele>
        <time>2021-11-20T19:21:11.777Z</time>
      </trkpt>
      <trkpt lat="47.419679" lon="7.990928">
        <ele>544.766496</ele>
        <time>2021-11-20T19:21:28.932Z</time>
      </trkpt>
      <trkpt lat="47.419718" lon="7.990996">
        <ele>545.367790</ele>
        <time>2021-11-20T19:21:34.625Z</time>
      </trkpt>
      <trkpt lat="47.419738" lon="7.991038">
        <ele>545.714222</ele>
        <time>2021-11-20T19:21:35.913Z</time>
      </trkpt>
      <trkpt lat="47.419820" lon="7.991499">
        <ele>548.766684</ele>
        <time>2021-11-20T19:21:52.230Z</time>
      </trkpt>
      <trkpt lat="47.419715" lon="7.992327">
        <ele>553.732522</ele>
        <time>2021-11-20T19:22:19.995Z</time>
      </trkpt>
      <trkpt lat="47.419740" lon="7.992744">
        <ele>556.200267</ele>
        <time>2021-11-20T19:22:34.892Z</time>
      </trkpt>
      <trkpt lat="47.419883" lon="7.993141">
        <ele>558.851432</ele>
        <time>2021-11-20T19:22:50.401Z</time>
      </trkpt>
      <trkpt lat="47.420316" lon="7.993737">
        <ele>564.155723</ele>
        <time>2021-11-20T19:23:15.825Z</time>
      </trkpt>
      <trkpt lat="47.420355" lon="7.993802">
        <ele>564.777405</ele>
        <time>2021-11-20T19:23:20.805Z</time>
      </trkpt>
      <trkpt lat="47.420739" lon="7.994556">
        <ele>571.530656</ele>
        <time>2021-11-20T19:23:52.154Z</time>
      </trkpt>
      <trkpt lat="47.420938" lon="7.994912">
        <ele>574.835112</ele>
        <time>2021-11-20T19:24:10.013Z</time>
      </trkpt>
      <trkpt lat="47.421186" lon="7.995163">
        <ele>578.014054</ele>
        <time>2021-11-20T19:24:31.882Z</time>
      </trkpt>
      <trkpt lat="47.421448" lon="7.995189">
        <ele>580.791256</ele>
        <time>2021-11-20T19:24:48.057Z</time>
      </trkpt>
      <trkpt lat="47.422055" lon="7.994874">
        <ele>588.131614</ele>
        <time>2021-11-20T19:25:29.001Z</time>
      </trkpt>
      <trkpt lat="47.422322" lon="7.994923">
        <ele>591.267086</ele>
        <time>2021-11-20T19:25:46.434Z</time>
      </trkpt>
      <trkpt lat="47.422492" lon="7.995090">
        <ele>593.645921</ele>
        <time>2021-11-20T19:25:56.725Z</time>
      </trkpt>
      <trkpt lat="47.422522" lon="7.995131">
        <ele>594.122093</ele>
        <time>2021-11-20T19:26:01.154Z</time>
      </trkpt>
      <trkpt lat="47.422611" lon="7.995359">
        <ele>596.197579</ele>
        <time>2021-11-20T19:26:09.890Z</time>
      </trkpt>
      <trkpt lat="47.422741" lon="7.996312">
        <ele>603.843857</ele>
        <time>2021-11-20T19:26:49.453Z</time>
      </trkpt>
      <trkpt lat="47.423493" lon="7.997325">
        <ele>615.303390</ele>
        <time>2021-11-20T19:27:48.770Z</time>
      </trkpt>
      <trkpt lat="47.423739" lon="7.997914">
        <ele>620.577927</ele>
        <time>2021-11-20T19:28:15.840Z</time>
      </trkpt>
      <trkpt lat="47.423827" lon="7.998389">
        <ele>624.559276</ele>
        <time>2021-11-20T19:28:36.935Z</time>
      </trkpt>
      <trkpt lat="47.423910" lon="7.999342">
        <ele>634.024633</ele>
        <time>2021-11-20T19:29:20.747Z</time>
      </trkpt>
      <trkpt lat="47.424255" lon="8.000417">
        <ele>645.745282</ele>
        <time>2021-11-20T19:30:25.308Z</time>
      </trkpt>
      <trkpt lat="47.424533" lon="8.002308">
        <ele>662.762631</ele>
        <time>2021-11-20T19:32:04.637Z</time>
      </trkpt>
      <trkpt lat="47.424554" lon="8.002464">
        <ele>664.116827</ele>
        <time>2021-11-20T19:32:15.057Z</time>
      </trkpt>
      <trkpt lat="47.424559" lon="8.002506">
        <ele>664.479902</ele>
        <time>2021-11-20T19:32:15.491Z</time>
      </trkpt>
      <trkpt lat="47.424743" lon="8.004017">
        <ele>672.846212</ele>
        <time>2021-11-20T19:33:06.429Z</time>
      </trkpt>
      <trkpt lat="47.424829" lon="8.004199">
        <ele>673.019122</ele>
        <time>2021-11-20T19:33:07.670Z</time>
      </trkpt>
      <trkpt lat="47.424958" lon="8.004297">
        <ele>673.186101</ele>
        <time>2021-11-20T19:33:22.586Z</time>
      </trkpt>
      <trkpt lat="47.425003" lon="8.004300">
        <ele>673.237960</ele>
        <time>2021-11-20T19:33:25.523Z</time>
      </trkpt>
      <trkpt lat="47.425046" lon="8.004288">
        <ele>673.288338</ele>
        <time>2021-11-20T19:33:25.891Z</time>
      </trkpt>
      <trkpt lat="47.425181" lon="8.004177">
        <ele>673.466186</ele>
        <time>2021-11-20T19:33:27.203Z</time>
      </trkpt>
      <trkpt lat="47.425237" lon="8.004043">
        <ele>673.588862</ele>
        <time>2021-11-20T19:33:36.201Z</time>
      </trkpt>
      <trkpt lat="47.425435" lon="8.002187">
        <ele>673.495460</ele>
        <time>2021-11-20T19:33:48.576Z</time>
      </trkpt>
      <trkpt lat="47.425404" lon="8.001972">
        <ele>673.229101</ele>
        <time>2021-11-20T19:33:50.086Z</time>
      </trkpt>
      <trkpt lat="47.425173" lon="8.001272">
        <ele>672.285414</ele>
        <time>2021-11-20T19:33:55.897Z</time>
      </trkpt>
      <trkpt lat="47.425088" lon="8.000815">
        <ele>671.711134</ele>
        <time>2021-11-20T19:34:00.225Z</time>
      </trkpt>
      <trkpt lat="47.425059" lon="8.000259">
        <ele>671.635142</ele>
        <time>2021-11-20T19:34:06.714Z</time>
      </trkpt>
      <trkpt lat="47.425127" lon="7.999299">
        <ele>674.228089</ele>
        <time>2021-11-20T19:34:20.461Z</time>
      </trkpt>
      <trkpt lat="47.425108" lon="7.999100">
        <ele>674.767960</ele>
        <time>2021-11-20T19:34:25.139Z</time>
      </trkpt>
      <trkpt lat="47.425056" lon="7.998898">
        <ele>675.348547</ele>
        <time>2021-11-20T19:34:29.316Z</time>
      </trkpt>
      <trkpt lat="47.424895" lon="7.998348">
        <ele>676.958384</ele>
        <time>2021-11-20T19:34:41.512Z</time>
      </trkpt>
      <trkpt lat="47.424738" lon="7.997183">
        <ele>683.024805</ele>
        <time>2021-11-20T19:35:22.027Z</time>
      </trkpt>
      <trkpt lat="47.424702" lon="7.997032">
        <ele>684.147331</ele>
        <time>2021-11-20T19:35:29.633Z</time>
      </trkpt>
      <trkpt lat="47.424674" lon="7.996943">
        <ele>684.835509</ele>
        <time>2021-11-20T19:35:32.893Z</time>
      </trkpt>
      <trkpt lat="47.424582" lon="7.996654">
        <ele>687.074894</ele>
        <time>2021-11-20T19:35:44.162Z</time>
      </trkpt>
      <trkpt lat="47.424477" lon="7.996317">
        <ele>689.676250</ele>
        <time>2021-11-20T19:35:56.877Z</time>
      </trkpt>
      <trkpt lat="47.424460" lon="7.996091">
        <ele>691.270588</ele>
        <time>2021-11-20T19:36:08.121Z</time>
      </trkpt>
      <trkpt lat="47.424477" lon="7.995840">
        <ele>693.039243</ele>
        <time>2021-11-20T19:36:16.766Z</time>
      </trkpt>
      <trkpt lat="47.424630" lon="7.995489">
        <ele>695.966795</ele>
        <time>2021-11-20T19:36:37.781Z</time>
      </trkpt>
      <trkpt lat="47.424872" lon="7.995320">
        <ele>699.024215</ele>
        <time>2021-11-20T19:36:54.208Z</time>
      </trkpt>
      <trkpt lat="47.425494" lon="7.995217">
        <ele>706.569670</ele>
        <time>2021-11-20T19:37:32.612Z</time>
      </trkpt>
      <trkpt lat="47.425660" lon="7.995044">
        <ele>709.018309</ele>
        <time>2021-11-20T19:37:47.012Z</time>
      </trkpt>
      <trkpt lat="47.425783" lon="7.994718">
        <ele>712.062730</ele>
        <time>2021-11-20T19:38:00.676Z</time>
      </trkpt>
      <trkpt lat="47.425804" lon="7.994602">
        <ele>713.042125</ele>
        <time>2021-11-20T19:38:06.786Z</time>
      </trkpt>
      <trkpt lat="47.425818" lon="7.994422">
        <ele>714.519893</ele>
        <time>2021-11-20T19:38:14.841Z</time>
      </trkpt>
      <trkpt lat="47.425771" lon="7.994045">
        <ele>717.646515</ele>
        <time>2021-11-20T19:38:30.336Z</time>
      </trkpt>
      <trkpt lat="47.425777" lon="7.993636">
        <ele>720.817911</ele>
        <time>2021-11-20T19:38:47.107Z</time>
      </trkpt>
      <trkpt lat="47.425816" lon="7.993454">
        <ele>722.262953</ele>
        <time>2021-11-20T19:38:56.748Z</time>
      </trkpt>
      <trkpt lat="47.425870" lon="7.993341">
        <ele>723.310125</ele>
        <time>2021-11-20T19:39:03.168Z</time>
      </trkpt>
      <trkpt lat="47.425963" lon="7.993206">
        <ele>724.768467</ele>
        <time>2021-11-20T19:39:10.003Z</time>
      </trkpt>
      <trkpt lat="47.426028" lon="7.993134">
        <ele>725.677232</ele>
        <time>2021-11-20T19:39:16.343Z</time>
      </trkpt>
      <trkpt lat="47.426113" lon="7.993088">
        <ele>726.689948</ele>
        <time>2021-11-20T19:39:23.147Z</time>
      </trkpt>
      <trkpt lat="47.426466" lon="7.993064">
        <ele>730.643493</ele>
        <time>2021-11-20T19:39:44.828Z</time>
      </trkpt>
      <trkpt lat="47.426829" lon="7.993140">
        <ele>734.745280</ele>
        <time>2021-11-20T19:40:05.646Z</time>
      </trkpt>
      <trkpt lat="47.427455" lon="7.993289">
        <ele>740.678893</ele>
        <time>2021-11-20T19:40:38.693Z</time>
      </trkpt>
      <trkpt lat="47.427837" lon="7.993254">
        <ele>743.320634</ele>
        <time>2021-11-20T19:40:57.841Z</time>
      </trkpt>
      <trkpt lat="47.428028" lon="7.993079">
        <ele>744.871693</ele>
        <time>2021-11-20T19:41:07.612Z</time>
      </trkpt>
      <trkpt lat="47.428129" lon="7.992884">
        <ele>746.018473</ele>
        <time>2021-11-20T19:41:14.113Z</time>
      </trkpt>
      <trkpt lat="47.428176" lon="7.992702">
        <ele>746.928136</ele>
        <time>2021-11-20T19:41:19.385Z</time>
      </trkpt>
      <trkpt lat="47.428198" lon="7.992515">
        <ele>747.814438</ele>
        <time>2021-11-20T19:41:23.485Z</time>
      </trkpt>
      <trkpt lat="47.428198" lon="7.992286">
        <ele>748.883755</ele>
        <time>2021-11-20T19:41:28.717Z</time>
      </trkpt>
      <trkpt lat="47.428179" lon="7.991656">
        <ele>751.770595</ele>
        <time>2021-11-20T19:41:43.811Z</time>
      </trkpt>
      <trkpt lat="47.428177" lon="7.991445">
        <ele>752.661472</ele>
        <time>2021-11-20T19:41:48.011Z</time>
      </trkpt>
      <trkpt lat="47.428160" lon="7.991096">
        <ele>754.138677</ele>
        <time>2021-11-20T19:41:56.226Z</time>
      </trkpt>
      <trkpt lat="47.428136" lon="7.990193">
        <ele>757.953861</ele>
        <time>2021-11-20T19:42:15.673Z</time>
      </trkpt>
      <trkpt lat="47.428133" lon="7.989996">
        <ele>758.785757</ele>
        <time>2021-11-20T19:42:21.895Z</time>
      </trkpt>
      <trkpt lat="47.428196" lon="7.988995">
        <ele>763.392785</ele>
        <time>2021-11-20T19:42:55.134Z</time>
      </trkpt>
      <trkpt lat="47.428340" lon="7.988229">
        <ele>768.846246</ele>
        <time>2021-11-20T19:43:23.456Z</time>
      </trkpt>
      <trkpt lat="47.428505" lon="7.987540">
        <ele>773.859798</ele>
        <time>2021-11-20T19:43:55.103Z</time>
      </trkpt>
      <trkpt lat="47.428588" lon="7.987191">
        <ele>776.397364</ele>
        <time>2021-11-20T19:44:08.934Z</time>
      </trkpt>
      <trkpt lat="47.428625" lon="7.987034">
        <ele>777.537772</ele>
        <time>2021-11-20T19:44:17.347Z</time>
      </trkpt>
      <trkpt lat="47.428661" lon="7.986875">
        <ele>778.687885</ele>
        <time>2021-11-20T19:44:21.173Z</time>
      </trkpt>
      <trkpt lat="47.428672" lon="7.986831">
        <ele>779.009649</ele>
        <time>2021-11-20T19:44:23.685Z</time>
      </trkpt>
      <trkpt lat="47.428725" lon="7.986611">
        <ele>780.611554</ele>
        <time>2021-11-20T19:44:34.401Z</time>
      </trkpt>
      <trkpt lat="47.428769" lon="7.986424">
        <ele>781.012198</ele>
        <time>2021-11-20T19:44:38.816Z</time>
      </trkpt>
      <trkpt lat="47.428790" lon="7.986347">
        <ele>781.156710</ele>
        <time>2021-11-20T19:44:42.186Z</time>
      </trkpt>
      <trkpt lat="47.428874" lon="7.986072">
        <ele>781.681924</ele>
        <time>2021-11-20T19:44:55.537Z</time>
      </trkpt>
      <trkpt lat="47.428926" lon="7.985968">
        <ele>781.907030</ele>
        <time>2021-11-20T19:44:56.548Z</time>
      </trkpt>
      <trkpt lat="47.429061" lon="7.985728">
        <ele>782.450333</ele>
        <time>2021-11-20T19:45:08.591Z</time>
      </trkpt>
      <trkpt lat="47.429168" lon="7.985548">
        <ele>782.867424</ele>
        <time>2021-11-20T19:45:10.160Z</time>
      </trkpt>
      <trkpt lat="47.429235" lon="7.985450">
        <ele>783.109947</ele>
        <time>2021-11-20T19:45:15.517Z</time>
      </trkpt>
      <trkpt lat="47.429305" lon="7.985346">
        <ele>783.365311</ele>
        <time>2021-11-20T19:45:16.854Z</time>
      </trkpt>
      <trkpt lat="47.429731" lon="7.984658">
        <ele>784.988762</ele>
        <time>2021-11-20T19:45:24.241Z</time>
      </trkpt>
      <trkpt lat="47.429895" lon="7.984539">
        <ele>784.956727</ele>
        <time>2021-11-20T19:45:25.813Z</time>
      </trkpt>
      <trkpt lat="47.430199" lon="7.984483">
        <ele>783.001820</ele>
        <time>2021-11-20T19:45:29.617Z</time>
      </trkpt>
      <trkpt lat="47.430233" lon="7.984472">
        <ele>782.779721</ele>
        <time>2021-11-20T19:45:29.905Z</time>
      </trkpt>
      <trkpt lat="47.430267" lon="7.984456">
        <ele>782.552030</ele>
        <time>2021-11-20T19:45:30.204Z</time>
      </trkpt>
      <trkpt lat="47.430461" lon="7.984320">
        <ele>781.181909</ele>
        <time>2021-11-20T19:45:32.792Z</time>
      </trkpt>
      <trkpt lat="47.430499" lon="7.984297">
        <ele>780.919882</ele>
        <time>2021-11-20T19:45:33.127Z</time>
      </trkpt>
      <trkpt lat="47.431170" lon="7.984115">
        <ele>776.566575</ele>
        <time>2021-11-20T19:45:39.165Z</time>
      </trkpt>
      <trkpt lat="47.431322" lon="7.983937">
        <ele>775.329151</ele>
        <time>2021-11-20T19:45:40.832Z</time>
      </trkpt>
      <trkpt lat="47.431475" lon="7.983571">
        <ele>773.578375</ele>
        <time>2021-11-20T19:45:43.411Z</time>
      </trkpt>
      <trkpt lat="47.431599" lon="7.983256">
        <ele>772.464028</ele>
        <time>2021-11-20T19:45:45.655Z</time>
      </trkpt>
      <trkpt lat="47.431777" lon="7.982815">
        <ele>770.893849</ele>
        <time>2021-11-20T19:45:49.016Z</time>
      </trkpt>
      <trkpt lat="47.431846" lon="7.982640">
        <ele>770.274517</ele>
        <time>2021-11-20T19:45:50.533Z</time>
      </trkpt>
      <trkpt lat="47.431868" lon="7.982566">
        <ele>770.027370</ele>
        <time>2021-11-20T19:45:51.115Z</time>
      </trkpt>
      <trkpt lat="47.431877" lon="7.982519">
        <ele>769.878017</ele>
        <time>2021-11-20T19:45:51.427Z</time>
      </trkpt>
      <trkpt lat="47.431888" lon="7.982446">
        <ele>769.649344</ele>
        <time>2021-11-20T19:45:51.871Z</time>
      </trkpt>
      <trkpt lat="47.431828" lon="7.981811">
        <ele>767.688935</ele>
        <time>2021-11-20T19:45:56.262Z</time>
      </trkpt>
      <trkpt lat="47.431857" lon="7.981543">
        <ele>766.859087</ele>
        <time>2021-11-20T19:45:58.301Z</time>
      </trkpt>
      <trkpt lat="47.431876" lon="7.981495">
        <ele>766.689044</ele>
        <time>2021-11-20T19:45:58.682Z</time>
      </trkpt>
      <trkpt lat="47.431915" lon="7.981428">
        <ele>766.418785</ele>
        <time>2021-11-20T19:45:59.202Z</time>
      </trkpt>
      <trkpt lat="47.432020" lon="7.981325">
        <ele>765.849208</ele>
        <time>2021-11-20T19:46:00.385Z</time>
      </trkpt>
      <trkpt lat="47.432188" lon="7.981293">
        <ele>765.144465</ele>
        <time>2021-11-20T19:46:02.341Z</time>
      </trkpt>
      <trkpt lat="47.433123" lon="7.981545">
        <ele>761.268038</ele>
        <time>2021-11-20T19:46:11.583Z</time>
      </trkpt>
      <trkpt lat="47.433227" lon="7.981456">
        <ele>760.777908</ele>
        <time>2021-11-20T19:46:12.944Z</time>
      </trkpt>
      <trkpt lat="47.433251" lon="7.981321">
        <ele>760.392792</ele>
        <time>2021-11-20T19:46:13.800Z</time>
      </trkpt>
      <trkpt lat="47.433244" lon="7.981277">
        <ele>760.268083</ele>
        <time>2021-11-20T19:46:14.056Z</time>
      </trkpt>
      <trkpt lat="47.433235" lon="7.981249">
        <ele>760.182553</ele>
        <time>2021-11-20T19:46:14.239Z</time>
      </trkpt>
      <trkpt lat="47.433139" lon="7.981160">
        <ele>759.720373</ele>
        <time>2021-11-20T19:46:15.385Z</time>
      </trkpt>
      <trkpt lat="47.432724" lon="7.981066">
        <ele>757.848148</ele>
        <time>2021-11-20T19:46:19.515Z</time>
      </trkpt>
      <trkpt lat="47.432171" lon="7.980388">
        <ele>753.628296</ele>
        <time>2021-11-20T19:46:26.342Z</time>
      </trkpt>
      <trkpt lat="47.432096" lon="7.980282">
        <ele>753.018836</ele>
        <time>2021-11-20T19:46:27.380Z</time>
      </trkpt>
      <trkpt lat="47.432006" lon="7.980108">
        <ele>752.148542</ele>
        <time>2021-11-20T19:46:28.675Z</time>
      </trkpt>
      <trkpt lat="47.431692" lon="7.978805">
        <ele>745.685971</ele>
        <time>2021-11-20T19:46:37.169Z</time>
      </trkpt>
      <trkpt lat="47.431606" lon="7.978215">
        <ele>741.279097</ele>
        <time>2021-11-20T19:46:40.699Z</time>
      </trkpt>
      <trkpt lat="47.431600" lon="7.977440">
        <ele>735.619908</ele>
        <time>2021-11-20T19:46:45.156Z</time>
      </trkpt>
      <trkpt lat="47.431738" lon="7.976680">
        <ele>729.874186</ele>
        <time>2021-11-20T19:46:49.649Z</time>
      </trkpt>
      <trkpt lat="47.431696" lon="7.976161">
        <ele>725.329105</ele>
        <time>2021-11-20T19:46:52.623Z</time>
      </trkpt>
      <trkpt lat="47.431567" lon="7.975556">
        <ele>719.252131</ele>
        <time>2021-11-20T19:46:56.183Z</time>
      </trkpt>
      <trkpt lat="47.431648" lon="7.975443">
        <ele>717.674881</ele>
        <time>2021-11-20T19:46:57.122Z</time>
      </trkpt>
      <trkpt lat="47.431773" lon="7.975449">
        <ele>715.903734</ele>
        <time>2021-11-20T19:46:58.151Z</time>
      </trkpt>
      <trkpt lat="47.432098" lon="7.976005">
        <ele>708.864250</ele>
        <time>2021-11-20T19:47:02.285Z</time>
      </trkpt>
      <trkpt lat="47.432203" lon="7.976081">
        <ele>707.208595</ele>
        <time>2021-11-20T19:47:03.285Z</time>
      </trkpt>
      <trkpt lat="47.432376" lon="7.976074">
        <ele>704.757702</ele>
        <time>2021-11-20T19:47:04.701Z</time>
      </trkpt>
      <trkpt lat="47.432536" lon="7.975879">
        <ele>702.001315</ele>
        <time>2021-11-20T19:47:06.487Z</time>
      </trkpt>
      <trkpt lat="47.432583" lon="7.975764">
        <ele>700.925206</ele>
        <time>2021-11-20T19:47:07.226Z</time>
      </trkpt>
      <trkpt lat="47.432600" lon="7.975672">
        <ele>700.161365</ele>
        <time>2021-11-20T19:47:07.774Z</time>
      </trkpt>
      <trkpt lat="47.432621" lon="7.975362">
        <ele>697.666100</ele>
        <time>2021-11-20T19:47:09.600Z</time>
      </trkpt>
      <trkpt lat="47.432566" lon="7.974989">
        <ele>694.608525</ele>
        <time>2021-11-20T19:47:11.774Z</time>
      </trkpt>
      <trkpt lat="47.432533" lon="7.974869">
        <ele>693.571039</ele>
        <time>2021-11-20T19:47:12.538Z</time>
      </trkpt>
      <trkpt lat="47.432488" lon="7.974763">
        <ele>692.568727</ele>
        <time>2021-11-20T19:47:13.232Z</time>
      </trkpt>
      <trkpt lat="47.432052" lon="7.973957">
        <ele>684.303075</ele>
        <time>2021-11-20T19:47:19.153Z</time>
      </trkpt>
      <trkpt lat="47.431630" lon="7.972434">
        <ele>675.017435</ele>
        <time>2021-11-20T19:47:28.892Z</time>
      </trkpt>
      <trkpt lat="47.431599" lon="7.972246">
        <ele>674.042491</ele>
        <time>2021-11-20T19:47:30.050Z</time>
      </trkpt>
      <trkpt lat="47.431594" lon="7.972217">
        <ele>673.891708</ele>
        <time>2021-11-20T19:47:30.214Z</time>
      </trkpt>
      <trkpt lat="47.431585" lon="7.971539">
        <ele>670.475046</ele>
        <time>2021-11-20T19:47:34.482Z</time>
      </trkpt>
      <trkpt lat="47.431712" lon="7.971054">
        <ele>668.104532</ele>
        <time>2021-11-20T19:47:37.764Z</time>
      </trkpt>
      <trkpt lat="47.431927" lon="7.970836">
        <ele>667.460699</ele>
        <time>2021-11-20T19:47:40.218Z</time>
      </trkpt>
      <trkpt lat="47.432214" lon="7.970755">
        <ele>666.739154</ele>
        <time>2021-11-20T19:47:43.224Z</time>
      </trkpt>
      <trkpt lat="47.432959" lon="7.971039">
        <ele>664.839199</ele>
        <time>2021-11-20T19:47:52.365Z</time>
      </trkpt>
      <trkpt lat="47.433359" lon="7.971344">
        <ele>663.616475</ele>
        <time>2021-11-20T19:47:57.910Z</time>
      </trkpt>
      <trkpt lat="47.433652" lon="7.971751">
        <ele>660.749553</ele>
        <time>2021-11-20T19:48:03.140Z</time>
      </trkpt>
      <trkpt lat="47.433985" lon="7.972481">
        <ele>656.502560</ele>
        <time>2021-11-20T19:48:08.492Z</time>
      </trkpt>
      <trkpt lat="47.433999" lon="7.972513">
        <ele>656.318738</ele>
        <time>2021-11-20T19:48:08.714Z</time>
      </trkpt>
      <trkpt lat="47.434066" lon="7.972679">
        <ele>655.386337</ele>
        <time>2021-11-20T19:48:09.983Z</time>
      </trkpt>
      <trkpt lat="47.434139" lon="7.972983">
        <ele>653.830345</ele>
        <time>2021-11-20T19:48:11.850Z</time>
      </trkpt>
      <trkpt lat="47.434124" lon="7.973362">
        <ele>651.999120</ele>
        <time>2021-11-20T19:48:14.040Z</time>
      </trkpt>
      <trkpt lat="47.434160" lon="7.973499">
        <ele>651.290193</ele>
        <time>2021-11-20T19:48:14.890Z</time>
      </trkpt>
      <trkpt lat="47.434197" lon="7.973559">
        <ele>650.812333</ele>
        <time>2021-11-20T19:48:15.351Z</time>
      </trkpt>
      <trkpt lat="47.434245" lon="7.973591">
        <ele>649.918933</ele>
        <time>2021-11-20T19:48:15.795Z</time>
      </trkpt>
      <trkpt lat="47.434264" lon="7.973594">
        <ele>649.594726</ele>
        <time>2021-11-20T19:48:15.965Z</time>
      </trkpt>
      <trkpt lat="47.434299" lon="7.973598">
        <ele>648.999108</ele>
        <time>2021-11-20T19:48:16.269Z</time>
      </trkpt>
      <trkpt lat="47.434340" lon="7.973566">
        <ele>648.212462</ele>
        <time>2021-11-20T19:48:16.689Z</time>
      </trkpt>
      <trkpt lat="47.434376" lon="7.973524">
        <ele>647.434353</ele>
        <time>2021-11-20T19:48:17.075Z</time>
      </trkpt>
      <trkpt lat="47.434644" lon="7.972421">
        <ele>633.983259</ele>
        <time>2021-11-20T19:48:23.630Z</time>
      </trkpt>
      <trkpt lat="47.434713" lon="7.971956">
        <ele>628.519543</ele>
        <time>2021-11-20T19:48:26.261Z</time>
      </trkpt>
      <trkpt lat="47.434732" lon="7.971724">
        <ele>625.837433</ele>
        <time>2021-11-20T19:48:27.549Z</time>
      </trkpt>
      <trkpt lat="47.434760" lon="7.971172">
        <ele>619.674805</ele>
        <time>2021-11-20T19:48:30.607Z</time>
      </trkpt>
      <trkpt lat="47.434817" lon="7.970756">
        <ele>615.770816</ele>
        <time>2021-11-20T19:48:33.002Z</time>
      </trkpt>
      <trkpt lat="47.434835" lon="7.970711">
        <ele>615.289964</ele>
        <time>2021-11-20T19:48:33.294Z</time>
      </trkpt>
      <trkpt lat="47.434854" lon="7.970659">
        <ele>614.746362</ele>
        <time>2021-11-20T19:48:33.627Z</time>
      </trkpt>
      <trkpt lat="47.435033" lon="7.970303">
        <ele>610.666424</ele>
        <time>2021-11-20T19:48:36.139Z</time>
      </trkpt>
      <trkpt lat="47.435217" lon="7.969930">
        <ele>606.420270</ele>
        <time>2021-11-20T19:48:38.731Z</time>
      </trkpt>
      <trkpt lat="47.435499" lon="7.969359">
        <ele>599.917522</ele>
        <time>2021-11-20T19:48:42.773Z</time>
      </trkpt>
      <trkpt lat="47.435592" lon="7.969165">
        <ele>597.730507</ele>
        <time>2021-11-20T19:48:44.244Z</time>
      </trkpt>
      <trkpt lat="47.435622" lon="7.969103">
        <ele>597.029369</ele>
        <time>2021-11-20T19:48:44.704Z</time>
      </trkpt>
      <trkpt lat="47.435945" lon="7.968713">
        <ele>593.971683</ele>
        <time>2021-11-20T19:48:48.458Z</time>
      </trkpt>
      <trkpt lat="47.436171" lon="7.968569">
        <ele>592.514895</ele>
        <time>2021-11-20T19:48:50.740Z</time>
      </trkpt>
      <trkpt lat="47.436210" lon="7.968545">
        <ele>592.264829</ele>
        <time>2021-11-20T19:48:51.116Z</time>
      </trkpt>
      <trkpt lat="47.436240" lon="7.968528">
        <ele>592.074643</ele>
        <time>2021-11-20T19:48:51.409Z</time>
      </trkpt>
      <trkpt lat="47.436435" lon="7.968422">
        <ele>590.844768</ele>
        <time>2021-11-20T19:48:53.496Z</time>
      </trkpt>
      <trkpt lat="47.436936" lon="7.968257">
        <ele>587.806360</ele>
        <time>2021-11-20T19:48:58.312Z</time>
      </trkpt>
      <trkpt lat="47.437006" lon="7.968207">
        <ele>587.346161</ele>
        <time>2021-11-20T19:49:00.200Z</time>
      </trkpt>
      <trkpt lat="47.437098" lon="7.968128">
        <ele>586.716362</ele>
        <time>2021-11-20T19:49:01.158Z</time>
      </trkpt>
      <trkpt lat="47.437561" lon="7.967616">
        <ele>582.082127</ele>
        <time>2021-11-20T19:49:06.468Z</time>
      </trkpt>
      <trkpt lat="47.437738" lon="7.967468">
        <ele>580.165337</ele>
        <time>2021-11-20T19:49:08.259Z</time>
      </trkpt>
      <trkpt lat="47.438044" lon="7.967266">
        <ele>577.006459</ele>
        <time>2021-11-20T19:49:11.190Z</time>
      </trkpt>
      <trkpt lat="47.438462" lon="7.967152">
        <ele>572.999840</ele>
        <time>2021-11-20T19:49:14.821Z</time>
      </trkpt>
      <trkpt lat="47.438609" lon="7.967099">
        <ele>571.573585</ele>
        <time>2021-11-20T19:49:16.135Z</time>
      </trkpt>
      <trkpt lat="47.438790" lon="7.967000">
        <ele>569.754435</ele>
        <time>2021-11-20T19:49:17.729Z</time>
      </trkpt>
      <trkpt lat="47.439287" lon="7.966643">
        <ele>563.667171</ele>
        <time>2021-11-20T19:49:22.404Z</time>
      </trkpt>
      <trkpt lat="47.439547" lon="7.966322">
        <ele>559.743274</ele>
        <time>2021-11-20T19:49:25.281Z</time>
      </trkpt>
      <trkpt lat="47.439608" lon="7.966261">
        <ele>558.890188</ele>
        <time>2021-11-20T19:49:25.884Z</time>
      </trkpt>
      <trkpt lat="47.439678" lon="7.966197">
        <ele>557.936780</ele>
        <time>2021-11-20T19:49:26.579Z</time>
      </trkpt>
      <trkpt lat="47.439737" lon="7.966170">
        <ele>557.221327</ele>
        <time>2021-11-20T19:49:27.115Z</time>
      </trkpt>
      <trkpt lat="47.439807" lon="7.966143">
        <ele>556.383299</ele>
        <time>2021-11-20T19:49:27.754Z</time>
      </trkpt>
      <trkpt lat="47.439942" lon="7.966121">
        <ele>554.809974</ele>
        <time>2021-11-20T19:49:28.884Z</time>
      </trkpt>
      <trkpt lat="47.440012" lon="7.966095">
        <ele>553.973890</ele>
        <time>2021-11-20T19:49:29.471Z</time>
      </trkpt>
      <trkpt lat="47.440543" lon="7.965818">
        <ele>547.478566</ele>
        <time>2021-11-20T19:49:34.391Z</time>
      </trkpt>
      <trkpt lat="47.440933" lon="7.965666">
        <ele>544.117013</ele>
        <time>2021-11-20T19:49:37.850Z</time>
      </trkpt>
      <trkpt lat="47.441204" lon="7.965554">
        <ele>541.771742</ele>
        <time>2021-11-20T19:49:40.275Z</time>
      </trkpt>
      <trkpt lat="47.441328" lon="7.965473">
        <ele>540.641872</ele>
        <time>2021-11-20T19:49:41.493Z</time>
      </trkpt>
      <trkpt lat="47.441371" lon="7.965446">
        <ele>540.252502</ele>
        <time>2021-11-20T19:49:41.871Z</time>
      </trkpt>
      <trkpt lat="47.442282" lon="7.964392">
        <ele>531.284165</ele>
        <time>2021-11-20T19:49:52.284Z</time>
      </trkpt>
      <trkpt lat="47.443115" lon="7.964042">
        <ele>526.561233</ele>
        <time>2021-11-20T19:50:00.389Z</time>
      </trkpt>
      <trkpt lat="47.443282" lon="7.963930">
        <ele>525.561128</ele>
        <time>2021-11-20T19:50:02.143Z</time>
      </trkpt>
      <trkpt lat="47.443323" lon="7.963902">
        <ele>525.314821</ele>
        <time>2021-11-20T19:50:02.533Z</time>
      </trkpt>
      <trkpt lat="47.444267" lon="7.962981">
        <ele>519.967765</ele>
        <time>2021-11-20T19:50:13.253Z</time>
      </trkpt>
      <trkpt lat="47.444826" lon="7.962406">
        <ele>517.100609</ele>
        <time>2021-11-20T19:50:19.814Z</time>
      </trkpt>
      <trkpt lat="47.444976" lon="7.962255">
        <ele>516.336565</ele>
        <time>2021-11-20T19:50:21.635Z</time>
      </trkpt>
      <trkpt lat="47.444993" lon="7.962238">
        <ele>516.250155</ele>
        <time>2021-11-20T19:50:21.844Z</time>
      </trkpt>
      <trkpt lat="47.445186" lon="7.962043">
        <ele>515.265942</ele>
        <time>2021-11-20T19:50:24.184Z</time>
      </trkpt>
      <trkpt lat="47.445405" lon="7.961813">
        <ele>514.807925</ele>
        <time>2021-11-20T19:50:26.950Z</time>
      </trkpt>
      <trkpt lat="47.445632" lon="7.961583">
        <ele>514.398780</ele>
        <time>2021-11-20T19:50:29.823Z</time>
      </trkpt>
      <trkpt lat="47.445731" lon="7.961482">
        <ele>514.219948</ele>
        <time>2021-11-20T19:50:31.066Z</time>
      </trkpt>
      <trkpt lat="47.446265" lon="7.961081">
        <ele>513.329462</ele>
        <time>2021-11-20T19:50:37.953Z</time>
      </trkpt>
      <trkpt lat="47.446978" lon="7.960776">
        <ele>512.642131</ele>
        <time>2021-11-20T19:50:48.583Z</time>
      </trkpt>
      <trkpt lat="47.448152" lon="7.960399">
        <ele>513.558095</ele>
        <time>2021-11-20T19:51:13.857Z</time>
      </trkpt>
      <trkpt lat="47.449168" lon="7.960272">
        <ele>512.672402</ele>
        <time>2021-11-20T19:51:28.697Z</time>
      </trkpt>
      <trkpt lat="47.449207" lon="7.960269">
        <ele>512.595250</ele>
        <time>2021-11-20T19:51:29.896Z</time>
      </trkpt>
      <trkpt lat="47.450176" lon="7.960171">
        <ele>510.676426</ele>
        <time>2021-11-20T19:51:40.147Z</time>
      </trkpt>
      <trkpt lat="47.453337" lon="7.959692">
        <ele>494.447838</ele>
        <time>2021-11-20T19:52:09.810Z</time>
      </trkpt>
      <trkpt lat="47.454626" lon="7.959663">
        <ele>487.592627</ele>
        <time>2021-11-20T19:52:21.663Z</time>
      </trkpt>
      <trkpt lat="47.454959" lon="7.959615">
        <ele>485.884364</ele>
        <time>2021-11-20T19:52:24.798Z</time>
      </trkpt>
      <trkpt lat="47.455065" lon="7.959595">
        <ele>485.338770</ele>
        <time>2021-11-20T19:52:25.800Z</time>
      </trkpt>
      <trkpt lat="47.455234" lon="7.959555">
        <ele>484.464923</ele>
        <time>2021-11-20T19:52:27.443Z</time>
      </trkpt>
      <trkpt lat="47.455967" lon="7.959329">
        <ele>481.031743</ele>
        <time>2021-11-20T19:52:34.637Z</time>
      </trkpt>
      <trkpt lat="47.456734" lon="7.959350">
        <ele>478.305341</ele>
        <time>2021-11-20T19:52:42.278Z</time>
      </trkpt>
      <trkpt lat="47.457199" lon="7.959536">
        <ele>476.593344</ele>
        <time>2021-11-20T19:52:47.247Z</time>
      </trkpt>
      <trkpt lat="47.458898" lon="7.960485">
        <ele>470.537043</ele>
        <time>2021-11-20T19:53:05.452Z</time>
      </trkpt>
      <trkpt lat="47.459074" lon="7.960615">
        <ele>469.889498</ele>
        <time>2021-11-20T19:53:07.422Z</time>
      </trkpt>
      <trkpt lat="47.459280" lon="7.960788">
        <ele>469.284173</ele>
        <time>2021-11-20T19:53:09.895Z</time>
      </trkpt>
      <trkpt lat="47.459416" lon="7.960954">
        <ele>468.905457</ele>
        <time>2021-11-20T19:53:11.726Z</time>
      </trkpt>
      <trkpt lat="47.459581" lon="7.961147">
        <ele>468.453648</ele>
        <time>2021-11-20T19:53:13.937Z</time>
      </trkpt>
      <trkpt lat="47.460083" lon="7.961991">
        <ele>466.821313</ele>
        <time>2021-11-20T19:53:22.141Z</time>
      </trkpt>
      <trkpt lat="47.460405" lon="7.962956">
        <ele>465.438645</ele>
        <time>2021-11-20T19:53:30.680Z</time>
      </trkpt>
      <trkpt lat="47.460489" lon="7.963238">
        <ele>465.155541</ele>
        <time>2021-11-20T19:53:33.159Z</time>
      </trkpt>
      <trkpt lat="47.460551" lon="7.963411">
        <ele>464.975657</ele>
        <time>2021-11-20T19:53:34.935Z</time>
      </trkpt>
      <trkpt lat="47.460768" lon="7.963901">
        <ele>464.437519</ele>
        <time>2021-11-20T19:53:39.752Z</time>
      </trkpt>
      <trkpt lat="47.461085" lon="7.964391">
        <ele>463.814470</ele>
        <time>2021-11-20T19:53:45.056Z</time>
      </trkpt>
      <trkpt lat="47.461753" lon="7.965074">
        <ele>462.423252</ele>
        <time>2021-11-20T19:53:54.244Z</time>
      </trkpt>
      <trkpt lat="47.462208" lon="7.965649">
        <ele>461.215826</ele>
        <time>2021-11-20T19:54:00.763Z</time>
      </trkpt>
      <trkpt lat="47.462416" lon="7.966027">
        <ele>460.551027</ele>
        <time>2021-11-20T19:54:04.262Z</time>
      </trkpt>
      <trkpt lat="47.462955" lon="7.967287">
        <ele>458.545900</ele>
        <time>2021-11-20T19:54:15.237Z</time>
      </trkpt>
      <trkpt lat="47.463153" lon="7.967669">
        <ele>457.905593</ele>
        <time>2021-11-20T19:54:18.786Z</time>
      </trkpt>
      <trkpt lat="47.463389" lon="7.968088">
        <ele>457.180140</ele>
        <time>2021-11-20T19:54:22.888Z</time>
      </trkpt>
      <trkpt lat="47.463713" lon="7.968547">
        <ele>456.297411</ele>
        <time>2021-11-20T19:54:27.913Z</time>
      </trkpt>
      <trkpt lat="47.463869" lon="7.968734">
        <ele>455.922206</ele>
        <time>2021-11-20T19:54:30.094Z</time>
      </trkpt>
      <trkpt lat="47.464851" lon="7.969824">
        <ele>453.711443</ele>
        <time>2021-11-20T19:54:43.880Z</time>
      </trkpt>
      <trkpt lat="47.465273" lon="7.970155">
        <ele>452.847477</ele>
        <time>2021-11-20T19:54:49.122Z</time>
      </trkpt>
      <trkpt lat="47.465838" lon="7.970388">
        <ele>451.703791</ele>
        <time>2021-11-20T19:54:55.895Z</time>
      </trkpt>
      <trkpt lat="47.466209" lon="7.970465">
        <ele>450.973305</ele>
        <time>2021-11-20T19:54:59.902Z</time>
      </trkpt>
      <trkpt lat="47.466575" lon="7.970455">
        <ele>450.259532</ele>
        <time>2021-11-20T19:55:03.837Z</time>
      </trkpt>
      <trkpt lat="47.467243" lon="7.970284">
        <ele>449.339597</ele>
        <time>2021-11-20T19:55:11.274Z</time>
      </trkpt>
      <trkpt lat="47.467356" lon="7.970255">
        <ele>449.314343</ele>
        <time>2021-11-20T19:55:12.643Z</time>
      </trkpt>
      <trkpt lat="47.467469" lon="7.970226">
        <ele>449.289088</ele>
        <time>2021-11-20T19:55:13.782Z</time>
      </trkpt>
      <trkpt lat="47.468142" lon="7.970113">
        <ele>449.139942</ele>
        <time>2021-11-20T19:55:23.386Z</time>
      </trkpt>
      <trkpt lat="47.469022" lon="7.970240">
        <ele>449.458374</ele>
        <time>2021-11-20T19:55:39.415Z</time>
      </trkpt>
      <trkpt lat="47.469339" lon="7.970255">
        <ele>450.113103</ele>
        <time>2021-11-20T19:55:47.404Z</time>
      </trkpt>
      <trkpt lat="47.469542" lon="7.970235">
        <ele>450.533092</ele>
        <time>2021-11-20T19:55:53.433Z</time>
      </trkpt>
      <trkpt lat="47.471196" lon="7.969654">
        <ele>451.523473</ele>
        <time>2021-11-20T19:56:33.751Z</time>
      </trkpt>
      <trkpt lat="47.471877" lon="7.969497">
        <ele>450.261110</ele>
        <time>2021-11-20T19:56:40.965Z</time>
      </trkpt>
      <trkpt lat="47.472626" lon="7.969301">
        <ele>447.182332</ele>
        <time>2021-11-20T19:56:48.034Z</time>
      </trkpt>
      <trkpt lat="47.473628" lon="7.969058">
        <ele>439.574713</ele>
        <time>2021-11-20T19:56:56.973Z</time>
      </trkpt>
      <trkpt lat="47.474238" lon="7.968922">
        <ele>435.279500</ele>
        <time>2021-11-20T19:57:02.385Z</time>
      </trkpt>
      <trkpt lat="47.474555" lon="7.968862">
        <ele>433.679893</ele>
        <time>2021-11-20T19:57:05.227Z</time>
      </trkpt>
      <trkpt lat="47.474879" lon="7.968783">
        <ele>432.036305</ele>
        <time>2021-11-20T19:57:08.231Z</time>
      </trkpt>
      <trkpt lat="47.475312" lon="7.968548">
        <ele>429.727795</ele>
        <time>2021-11-20T19:57:12.691Z</time>
      </trkpt>
      <trkpt lat="47.475616" lon="7.968229">
        <ele>427.862325</ele>
        <time>2021-11-20T19:57:16.496Z</time>
      </trkpt>
      <trkpt lat="47.475684" lon="7.968334">
        <ele>427.370361</ele>
        <time>2021-11-20T19:57:17.585Z</time>
      </trkpt>
      <trkpt lat="47.475729" lon="7.968403">
        <ele>427.045980</ele>
        <time>2021-11-20T19:57:18.291Z</time>
      </trkpt>
      <trkpt lat="47.475871" lon="7.968576">
        <ele>426.760745</ele>
        <time>2021-11-20T19:57:20.305Z</time>
      </trkpt>
      <trkpt lat="47.476103" lon="7.968806">
        <ele>426.460739</ele>
        <time>2021-11-20T19:57:23.323Z</time>
      </trkpt>
      <trkpt lat="47.476327" lon="7.969094">
        <ele>426.141939</ele>
        <time>2021-11-20T19:57:26.826Z</time>
      </trkpt>
      <trkpt lat="47.476396" lon="7.969182">
        <ele>426.044077</ele>
        <time>2021-11-20T19:57:28.018Z</time>
      </trkpt>
      <trkpt lat="47.476670" lon="7.969631">
        <ele>425.604846</ele>
        <time>2021-11-20T19:57:33.236Z</time>
      </trkpt>
      <trkpt lat="47.476944" lon="7.970103">
        <ele>425.153083</ele>
        <time>2021-11-20T19:57:40.084Z</time>
      </trkpt>
      <trkpt lat="47.477029" lon="7.970212">
        <ele>425.032247</ele>
        <time>2021-11-20T19:57:41.561Z</time>
      </trkpt>
      <trkpt lat="47.477135" lon="7.970342">
        <ele>424.775532</ele>
        <time>2021-11-20T19:57:43.986Z</time>
      </trkpt>
      <trkpt lat="47.477203" lon="7.970445">
        <ele>424.574473</ele>
        <time>2021-11-20T19:57:45.252Z</time>
      </trkpt>
      <trkpt lat="47.477262" lon="7.970548">
        <ele>424.385937</ele>
        <time>2021-11-20T19:57:46.332Z</time>
      </trkpt>
      <trkpt lat="47.477284" lon="7.970600">
        <ele>424.300271</ele>
        <time>2021-11-20T19:57:46.830Z</time>
      </trkpt>
      <trkpt lat="47.477322" lon="7.970682">
        <ele>424.161436</ele>
        <time>2021-11-20T19:57:47.884Z</time>
      </trkpt>
      <trkpt lat="47.477370" lon="7.970827">
        <ele>423.935975</ele>
        <time>2021-11-20T19:57:49.195Z</time>
      </trkpt>
      <trkpt lat="47.477522" lon="7.971381">
        <ele>423.101058</ele>
        <time>2021-11-20T19:57:53.857Z</time>
      </trkpt>
      <trkpt lat="47.477553" lon="7.971461">
        <ele>422.972288</ele>
        <time>2021-11-20T19:57:54.456Z</time>
      </trkpt>
      <trkpt lat="47.477623" lon="7.971640">
        <ele>422.683509</ele>
        <time>2021-11-20T19:57:55.907Z</time>
      </trkpt>
      <trkpt lat="47.477698" lon="7.971759">
        <ele>422.456301</ele>
        <time>2021-11-20T19:57:57.190Z</time>
      </trkpt>
      <trkpt lat="47.477778" lon="7.971876">
        <ele>422.223898</ele>
        <time>2021-11-20T19:57:58.281Z</time>
      </trkpt>
      <trkpt lat="47.478083" lon="7.972275">
        <ele>421.382763</ele>
        <time>2021-11-20T19:58:02.304Z</time>
      </trkpt>
      <trkpt lat="47.478198" lon="7.972475">
        <ele>420.729016</ele>
        <time>2021-11-20T19:58:04.206Z</time>
      </trkpt>
      <trkpt lat="47.478213" lon="7.972508">
        <ele>420.614444</ele>
        <time>2021-11-20T19:58:04.462Z</time>
      </trkpt>
      <trkpt lat="47.478295" lon="7.972689">
        <ele>419.986681</ele>
        <time>2021-11-20T19:58:05.847Z</time>
      </trkpt>
      <trkpt lat="47.478424" lon="7.973015">
        <ele>418.898361</ele>
        <time>2021-11-20T19:58:08.397Z</time>
      </trkpt>
      <trkpt lat="47.478494" lon="7.973191">
        <ele>418.310035</ele>
        <time>2021-11-20T19:58:09.653Z</time>
      </trkpt>
      <trkpt lat="47.478606" lon="7.973396">
        <ele>417.550614</ele>
        <time>2021-11-20T19:58:11.464Z</time>
      </trkpt>
      <trkpt lat="47.478952" lon="7.973850">
        <ele>415.579342</ele>
        <time>2021-11-20T19:58:15.844Z</time>
      </trkpt>
      <trkpt lat="47.479061" lon="7.974014">
        <ele>414.916694</ele>
        <time>2021-11-20T19:58:17.340Z</time>
      </trkpt>
      <trkpt lat="47.479095" lon="7.974066">
        <ele>414.708256</ele>
        <time>2021-11-20T19:58:17.866Z</time>
      </trkpt>
      <trkpt lat="47.479172" lon="7.974215">
        <ele>414.167897</ele>
        <time>2021-11-20T19:58:19.069Z</time>
      </trkpt>
      <trkpt lat="47.479198" lon="7.974266">
        <ele>413.983859</ele>
        <time>2021-11-20T19:58:19.461Z</time>
      </trkpt>
      <trkpt lat="47.479256" lon="7.974388">
        <ele>413.565934</ele>
        <time>2021-11-20T19:58:20.396Z</time>
      </trkpt>
      <trkpt lat="47.479521" lon="7.975122">
        <ele>411.602782</ele>
        <time>2021-11-20T19:58:25.809Z</time>
      </trkpt>
      <trkpt lat="47.479548" lon="7.975187">
        <ele>411.422795</ele>
        <time>2021-11-20T19:58:26.304Z</time>
      </trkpt>
      <trkpt lat="47.479650" lon="7.975428">
        <ele>410.751976</ele>
        <time>2021-11-20T19:58:28.194Z</time>
      </trkpt>
      <trkpt lat="47.479662" lon="7.975458">
        <ele>410.669737</ele>
        <time>2021-11-20T19:58:28.443Z</time>
      </trkpt>
      <trkpt lat="47.479744" lon="7.975611">
        <ele>410.209084</ele>
        <time>2021-11-20T19:58:29.735Z</time>
      </trkpt>
      <trkpt lat="47.479931" lon="7.975917">
        <ele>409.235861</ele>
        <time>2021-11-20T19:58:32.626Z</time>
      </trkpt>
      <trkpt lat="47.480019" lon="7.976061">
        <ele>408.777874</ele>
        <time>2021-11-20T19:58:34.016Z</time>
      </trkpt>
      <trkpt lat="47.480172" lon="7.976321">
        <ele>407.964599</ele>
        <time>2021-11-20T19:58:36.489Z</time>
      </trkpt>
      <trkpt lat="47.480258" lon="7.976521">
        <ele>407.405387</ele>
        <time>2021-11-20T19:58:38.302Z</time>
      </trkpt>
      <trkpt lat="47.480294" lon="7.976615">
        <ele>407.220095</ele>
        <time>2021-11-20T19:58:39.041Z</time>
      </trkpt>
      <trkpt lat="47.480540" lon="7.977249">
        <ele>406.125466</ele>
        <time>2021-11-20T19:58:44.302Z</time>
      </trkpt>
      <trkpt lat="47.481057" lon="7.978315">
        <ele>404.160877</ele>
        <time>2021-11-20T19:58:53.841Z</time>
      </trkpt>
      <trkpt lat="47.481075" lon="7.978353">
        <ele>404.091396</ele>
        <time>2021-11-20T19:58:54.136Z</time>
      </trkpt>
      <trkpt lat="47.481331" lon="7.978796">
        <ele>403.255953</ele>
        <time>2021-11-20T19:58:58.462Z</time>
      </trkpt>
      <trkpt lat="47.481417" lon="7.978989">
        <ele>403.003698</ele>
        <time>2021-11-20T19:59:00.281Z</time>
      </trkpt>
      <trkpt lat="47.481508" lon="7.979190">
        <ele>402.739704</ele>
        <time>2021-11-20T19:59:02.076Z</time>
      </trkpt>
      <trkpt lat="47.481627" lon="7.979494">
        <ele>402.356357</ele>
        <time>2021-11-20T19:59:04.885Z</time>
      </trkpt>
      <trkpt lat="47.481673" lon="7.979611">
        <ele>402.208656</ele>
        <time>2021-11-20T19:59:05.913Z</time>
      </trkpt>
      <trkpt lat="47.481757" lon="7.979824">
        <ele>401.939557</ele>
        <time>2021-11-20T19:59:07.811Z</time>
      </trkpt>
      <trkpt lat="47.481977" lon="7.980334">
        <ele>401.279354</ele>
        <time>2021-11-20T19:59:12.506Z</time>
      </trkpt>
      <trkpt lat="47.482025" lon="7.980480">
        <ele>401.102191</ele>
        <time>2021-11-20T19:59:13.733Z</time>
      </trkpt>
      <trkpt lat="47.482099" lon="7.980698">
        <ele>400.835995</ele>
        <time>2021-11-20T19:59:15.636Z</time>
      </trkpt>
      <trkpt lat="47.482159" lon="7.980898">
        <ele>400.597224</ele>
        <time>2021-11-20T19:59:17.350Z</time>
      </trkpt>
      <trkpt lat="47.482458" lon="7.981897">
        <ele>399.581583</ele>
        <time>2021-11-20T19:59:25.883Z</time>
      </trkpt>
      <trkpt lat="47.482472" lon="7.981944">
        <ele>399.534989</ele>
        <time>2021-11-20T19:59:26.277Z</time>
      </trkpt>
      <trkpt lat="47.482563" lon="7.982231">
        <ele>399.247401</ele>
        <time>2021-11-20T19:59:28.887Z</time>
      </trkpt>
      <trkpt lat="47.482594" lon="7.982339">
        <ele>399.140956</ele>
        <time>2021-11-20T19:59:29.816Z</time>
      </trkpt>
      <trkpt lat="47.482652" lon="7.982524">
        <ele>398.955951</ele>
        <time>2021-11-20T19:59:31.426Z</time>
      </trkpt>
      <trkpt lat="47.482704" lon="7.982687">
        <ele>398.792436</ele>
        <time>2021-11-20T19:59:32.947Z</time>
      </trkpt>
      <trkpt lat="47.482729" lon="7.982770">
        <ele>398.710002</ele>
        <time>2021-11-20T19:59:33.682Z</time>
      </trkpt>
      <trkpt lat="47.482840" lon="7.983205">
        <ele>398.288193</ele>
        <time>2021-11-20T19:59:37.458Z</time>
      </trkpt>
      <trkpt lat="47.482897" lon="7.983529">
        <ele>397.970853</ele>
        <time>2021-11-20T19:59:40.094Z</time>
      </trkpt>
      <trkpt lat="47.483001" lon="7.984129">
        <ele>397.265047</ele>
        <time>2021-11-20T19:59:44.890Z</time>
      </trkpt>
      <trkpt lat="47.483130" lon="7.984873">
        <ele>396.389833</ele>
        <time>2021-11-20T19:59:50.673Z</time>
      </trkpt>
      <trkpt lat="47.483153" lon="7.984996">
        <ele>396.244413</ele>
        <time>2021-11-20T19:59:51.628Z</time>
      </trkpt>
      <trkpt lat="47.483173" lon="7.985106">
        <ele>396.114616</ele>
        <time>2021-11-20T19:59:52.501Z</time>
      </trkpt>
      <trkpt lat="47.483274" lon="7.985553">
        <ele>395.577566</ele>
        <time>2021-11-20T19:59:56.060Z</time>
      </trkpt>
      <trkpt lat="47.483382" lon="7.985915">
        <ele>395.126677</ele>
        <time>2021-11-20T19:59:59.097Z</time>
      </trkpt>
      <trkpt lat="47.483462" lon="7.986151">
        <ele>394.788452</ele>
        <time>2021-11-20T20:00:01.106Z</time>
      </trkpt>
      <trkpt lat="47.483550" lon="7.986378">
        <ele>394.428062</ele>
        <time>2021-11-20T20:00:03.072Z</time>
      </trkpt>
      <trkpt lat="47.483677" lon="7.986678">
        <ele>393.940561</ele>
        <time>2021-11-20T20:00:05.718Z</time>
      </trkpt>
      <trkpt lat="47.483775" lon="7.986910">
        <ele>393.563791</ele>
        <time>2021-11-20T20:00:07.732Z</time>
      </trkpt>
      <trkpt lat="47.484569" lon="7.988582">
        <ele>390.907129</ele>
        <time>2021-11-20T20:00:22.633Z</time>
      </trkpt>
      <trkpt lat="47.485480" lon="7.990116">
        <ele>388.845358</ele>
        <time>2021-11-20T20:00:38.690Z</time>
      </trkpt>
      <trkpt lat="47.485638" lon="7.990371">
        <ele>388.587379</ele>
        <time>2021-11-20T20:00:41.547Z</time>
      </trkpt>
      <trkpt lat="47.485781" lon="7.990604">
        <ele>388.454839</ele>
        <time>2021-11-20T20:00:44.171Z</time>
      </trkpt>
      <trkpt lat="47.486196" lon="7.991276">
        <ele>388.071500</ele>
        <time>2021-11-20T20:00:52.143Z</time>
      </trkpt>
      <trkpt lat="47.486319" lon="7.991471">
        <ele>387.959174</ele>
        <time>2021-11-20T20:00:54.581Z</time>
      </trkpt>
      <trkpt lat="47.486334" lon="7.991668">
        <ele>387.875694</ele>
        <time>2021-11-20T20:00:57.131Z</time>
      </trkpt>
      <trkpt lat="47.486383" lon="7.991737">
        <ele>387.833545</ele>
        <time>2021-11-20T20:00:58.417Z</time>
      </trkpt>
      <trkpt lat="47.486573" lon="7.992029">
        <ele>387.662852</ele>
        <time>2021-11-20T20:01:03.768Z</time>
      </trkpt>
      <trkpt lat="47.487213" lon="7.993014">
        <ele>386.839620</ele>
        <time>2021-11-20T20:01:20.769Z</time>
      </trkpt>
      <trkpt lat="47.487633" lon="7.993524">
        <ele>386.312295</ele>
        <time>2021-11-20T20:01:30.139Z</time>
      </trkpt>
      <trkpt lat="47.488246" lon="7.994102">
        <ele>385.466354</ele>
        <time>2021-11-20T20:01:42.197Z</time>
      </trkpt>
      <trkpt lat="47.488959" lon="7.994757">
        <ele>384.013928</ele>
        <time>2021-11-20T20:01:55.735Z</time>
      </trkpt>
      <trkpt lat="47.489284" lon="7.995053">
        <ele>383.353459</ele>
        <time>2021-11-20T20:02:01.860Z</time>
      </trkpt>
      <trkpt lat="47.490780" lon="7.996642">
        <ele>379.877503</ele>
        <time>2021-11-20T20:02:31.179Z</time>
      </trkpt>
      <trkpt lat="47.491680" lon="7.997343">
        <ele>377.742234</ele>
        <time>2021-11-20T20:02:46.989Z</time>
      </trkpt>
      <trkpt lat="47.491748" lon="7.997367">
        <ele>377.589248</ele>
        <time>2021-11-20T20:02:47.952Z</time>
      </trkpt>
      <trkpt lat="47.491854" lon="7.997405">
        <ele>377.350567</ele>
        <time>2021-11-20T20:02:49.678Z</time>
      </trkpt>
      <trkpt lat="47.491886" lon="7.997365">
        <ele>377.258901</ele>
        <time>2021-11-20T20:02:50.307Z</time>
      </trkpt>
      <trkpt lat="47.492317" lon="7.997637">
        <ele>376.233515</ele>
        <time>2021-11-20T20:02:55.383Z</time>
      </trkpt>
      <trkpt lat="47.492477" lon="7.997747">
        <ele>375.847431</ele>
        <time>2021-11-20T20:02:57.260Z</time>
      </trkpt>
      <trkpt lat="47.492617" lon="7.997908">
        <ele>375.459430</ele>
        <time>2021-11-20T20:02:59.218Z</time>
      </trkpt>
      <trkpt lat="47.492722" lon="7.998050">
        <ele>375.206588</ele>
        <time>2021-11-20T20:03:00.742Z</time>
      </trkpt>
      <trkpt lat="47.492747" lon="7.998084">
        <ele>375.169360</ele>
        <time>2021-11-20T20:03:01.137Z</time>
      </trkpt>
      <trkpt lat="47.492877" lon="7.998257">
        <ele>374.977668</ele>
        <time>2021-11-20T20:03:03.058Z</time>
      </trkpt>
      <trkpt lat="47.493144" lon="7.998645">
        <ele>374.567376</ele>
        <time>2021-11-20T20:03:07.189Z</time>
      </trkpt>
      <trkpt lat="47.493296" lon="7.998833">
        <ele>374.350174</ele>
        <time>2021-11-20T20:03:09.698Z</time>
      </trkpt>
      <trkpt lat="47.493358" lon="7.998911">
        <ele>374.260951</ele>
        <time>2021-11-20T20:03:10.628Z</time>
      </trkpt>
      <trkpt lat="47.493433" lon="7.998996">
        <ele>374.157373</ele>
        <time>2021-11-20T20:03:11.832Z</time>
      </trkpt>
      <trkpt lat="47.493502" lon="7.999071">
        <ele>374.063504</ele>
        <time>2021-11-20T20:03:12.973Z</time>
      </trkpt>
      <trkpt lat="47.493603" lon="7.999152">
        <ele>373.937546</ele>
        <time>2021-11-20T20:03:14.411Z</time>
      </trkpt>
      <trkpt lat="47.493742" lon="7.999216">
        <ele>373.777930</ele>
        <time>2021-11-20T20:03:16.235Z</time>
      </trkpt>
      <trkpt lat="47.493937" lon="7.999285">
        <ele>373.558092</ele>
        <time>2021-11-20T20:03:18.928Z</time>
      </trkpt>
      <trkpt lat="47.493961" lon="7.999292">
        <ele>373.531270</ele>
        <time>2021-11-20T20:03:19.201Z</time>
      </trkpt>
      <trkpt lat="47.494272" lon="7.999381">
        <ele>373.256405</ele>
        <time>2021-11-20T20:03:23.703Z</time>
      </trkpt>
      <trkpt lat="47.494489" lon="7.999417">
        <ele>373.175929</ele>
        <time>2021-11-20T20:03:26.974Z</time>
      </trkpt>
      <trkpt lat="47.494643" lon="7.999430">
        <ele>373.119079</ele>
        <time>2021-11-20T20:03:29.397Z</time>
      </trkpt>
      <trkpt lat="47.494812" lon="7.999457">
        <ele>373.056432</ele>
        <time>2021-11-20T20:03:31.809Z</time>
      </trkpt>
      <trkpt lat="47.495197" lon="7.999589">
        <ele>372.910783</ele>
        <time>2021-11-20T20:03:37.367Z</time>
      </trkpt>
      <trkpt lat="47.495430" lon="7.999752">
        <ele>372.815801</ele>
        <time>2021-11-20T20:03:40.877Z</time>
      </trkpt>
      <trkpt lat="47.495718" lon="8.000005">
        <ele>372.692370</ele>
        <time>2021-11-20T20:03:45.387Z</time>
      </trkpt>
      <trkpt lat="47.496011" lon="8.000286">
        <ele>372.388378</ele>
        <time>2021-11-20T20:03:49.845Z</time>
      </trkpt>
      <trkpt lat="47.496234" lon="8.000584">
        <ele>371.985732</ele>
        <time>2021-11-20T20:03:53.496Z</time>
      </trkpt>
      <trkpt lat="47.496272" lon="8.000651">
        <ele>371.906523</ele>
        <time>2021-11-20T20:03:54.382Z</time>
      </trkpt>
      <trkpt lat="47.496280" lon="8.000664">
        <ele>371.890602</ele>
        <time>2021-11-20T20:03:54.520Z</time>
      </trkpt>
      <trkpt lat="47.496429" lon="8.000925">
        <ele>371.581208</ele>
        <time>2021-11-20T20:03:57.166Z</time>
      </trkpt>
      <trkpt lat="47.496517" lon="8.001077">
        <ele>371.399959</ele>
        <time>2021-11-20T20:03:58.918Z</time>
      </trkpt>
      <trkpt lat="47.496533" lon="8.001104">
        <ele>371.367441</ele>
        <time>2021-11-20T20:03:59.152Z</time>
      </trkpt>
      <trkpt lat="47.496535" lon="8.001108">
        <ele>371.362935</ele>
        <time>2021-11-20T20:03:59.191Z</time>
      </trkpt>
      <trkpt lat="47.496585" lon="8.001187">
        <ele>371.264920</ele>
        <time>2021-11-20T20:04:00.022Z</time>
      </trkpt>
      <trkpt lat="47.496820" lon="8.001547">
        <ele>370.811664</ele>
        <time>2021-11-20T20:04:03.901Z</time>
      </trkpt>
      <trkpt lat="47.496861" lon="8.001608">
        <ele>370.733755</ele>
        <time>2021-11-20T20:04:04.541Z</time>
      </trkpt>
      <trkpt lat="47.496908" lon="8.001680">
        <ele>370.643104</ele>
        <time>2021-11-20T20:04:05.297Z</time>
      </trkpt>
      <trkpt lat="47.496932" lon="8.001715">
        <ele>370.597950</ele>
        <time>2021-11-20T20:04:05.662Z</time>
      </trkpt>
      <trkpt lat="47.497207" lon="8.002132">
        <ele>370.012638</ele>
        <time>2021-11-20T20:04:09.967Z</time>
      </trkpt>
      <trkpt lat="47.497264" lon="8.002219">
        <ele>369.860535</ele>
        <time>2021-11-20T20:04:10.925Z</time>
      </trkpt>
      <trkpt lat="47.497307" lon="8.002279">
        <ele>369.750754</ele>
        <time>2021-11-20T20:04:11.539Z</time>
      </trkpt>
      <trkpt lat="47.497390" lon="8.002409">
        <ele>369.526265</ele>
        <time>2021-11-20T20:04:12.916Z</time>
      </trkpt>
      <trkpt lat="47.497540" lon="8.002634">
        <ele>369.129536</ele>
        <time>2021-11-20T20:04:15.290Z</time>
      </trkpt>
      <trkpt lat="47.497607" lon="8.002710">
        <ele>368.972724</ele>
        <time>2021-11-20T20:04:16.239Z</time>
      </trkpt>
      <trkpt lat="47.497951" lon="8.003094">
        <ele>368.172318</ele>
        <time>2021-11-20T20:04:21.069Z</time>
      </trkpt>
      <trkpt lat="47.498072" lon="8.003250">
        <ele>367.874224</ele>
        <time>2021-11-20T20:04:22.800Z</time>
      </trkpt>
      <trkpt lat="47.498166" lon="8.003383">
        <ele>367.632653</ele>
        <time>2021-11-20T20:04:24.279Z</time>
      </trkpt>
      <trkpt lat="47.498213" lon="8.003454">
        <ele>367.507898</ele>
        <time>2021-11-20T20:04:25.050Z</time>
      </trkpt>
      <trkpt lat="47.498450" lon="8.003874">
        <ele>366.835269</ele>
        <time>2021-11-20T20:04:29.170Z</time>
      </trkpt>
      <trkpt lat="47.498698" lon="8.004313">
        <ele>366.294689</ele>
        <time>2021-11-20T20:04:33.427Z</time>
      </trkpt>
      <trkpt lat="47.498753" lon="8.004410">
        <ele>366.175063</ele>
        <time>2021-11-20T20:04:34.379Z</time>
      </trkpt>
      <trkpt lat="47.498898" lon="8.004636">
        <ele>365.880640</ele>
        <time>2021-11-20T20:04:36.764Z</time>
      </trkpt>
      <trkpt lat="47.498965" lon="8.004710">
        <ele>365.763751</ele>
        <time>2021-11-20T20:04:37.768Z</time>
      </trkpt>
      <trkpt lat="47.499012" lon="8.004762">
        <ele>365.681704</ele>
        <time>2021-11-20T20:04:38.460Z</time>
      </trkpt>
      <trkpt lat="47.499183" lon="8.004875">
        <ele>365.419858</ele>
        <time>2021-11-20T20:04:40.690Z</time>
      </trkpt>
      <trkpt lat="47.499333" lon="8.004958">
        <ele>365.195946</ele>
        <time>2021-11-20T20:04:42.602Z</time>
      </trkpt>
      <trkpt lat="47.499409" lon="8.005000">
        <ele>365.082515</ele>
        <time>2021-11-20T20:04:43.634Z</time>
      </trkpt>
      <trkpt lat="47.499429" lon="8.005013">
        <ele>365.051972</ele>
        <time>2021-11-20T20:04:44.185Z</time>
      </trkpt>
      <trkpt lat="47.499496" lon="8.005059">
        <ele>364.948703</ele>
        <time>2021-11-20T20:04:45.096Z</time>
      </trkpt>
      <trkpt lat="47.499523" lon="8.005078">
        <ele>364.906901</ele>
        <time>2021-11-20T20:04:45.361Z</time>
      </trkpt>
      <trkpt lat="47.499770" lon="8.005268">
        <ele>364.517683</ele>
        <time>2021-11-20T20:04:49.087Z</time>
      </trkpt>
      <trkpt lat="47.499856" lon="8.005338">
        <ele>364.380452</ele>
        <time>2021-11-20T20:04:50.066Z</time>
      </trkpt>
      <trkpt lat="47.499880" lon="8.005358">
        <ele>364.353369</ele>
        <time>2021-11-20T20:04:50.406Z</time>
      </trkpt>
      <trkpt lat="47.499991" lon="8.005468">
        <ele>364.265700</ele>
        <time>2021-11-20T20:04:52.107Z</time>
      </trkpt>
      <trkpt lat="47.500009" lon="8.005488">
        <ele>364.250928</ele>
        <time>2021-11-20T20:04:52.420Z</time>
      </trkpt>
      <trkpt lat="47.500207" lon="8.005727">
        <ele>364.083249</ele>
        <time>2021-11-20T20:04:55.492Z</time>
      </trkpt>
      <trkpt lat="47.500252" lon="8.005784">
        <ele>364.044377</ele>
        <time>2021-11-20T20:04:56.388Z</time>
      </trkpt>
      <trkpt lat="47.500310" lon="8.005852">
        <ele>363.995817</ele>
        <time>2021-11-20T20:04:57.385Z</time>
      </trkpt>
      <trkpt lat="47.500540" lon="8.006079">
        <ele>363.814389</ele>
        <time>2021-11-20T20:05:00.878Z</time>
      </trkpt>
      <trkpt lat="47.500647" lon="8.006180">
        <ele>363.731100</ele>
        <time>2021-11-20T20:05:03.093Z</time>
      </trkpt>
      <trkpt lat="47.500764" lon="8.006290">
        <ele>363.640133</ele>
        <time>2021-11-20T20:05:04.598Z</time>
      </trkpt>
      <trkpt lat="47.500997" lon="8.006551">
        <ele>363.448361</ele>
        <time>2021-11-20T20:05:08.789Z</time>
      </trkpt>
      <trkpt lat="47.501276" lon="8.006911">
        <ele>363.205448</ele>
        <time>2021-11-20T20:05:14.041Z</time>
      </trkpt>
      <trkpt lat="47.501293" lon="8.006936">
        <ele>363.189720</ele>
        <time>2021-11-20T20:05:14.366Z</time>
      </trkpt>
      <trkpt lat="47.501496" lon="8.007247">
        <ele>362.935607</ele>
        <time>2021-11-20T20:05:18.320Z</time>
      </trkpt>
      <trkpt lat="47.501537" lon="8.007308">
        <ele>362.884594</ele>
        <time>2021-11-20T20:05:19.064Z</time>
      </trkpt>
      <trkpt lat="47.501943" lon="8.008353">
        <ele>362.169941</ele>
        <time>2021-11-20T20:05:29.537Z</time>
      </trkpt>
      <trkpt lat="47.502062" lon="8.008650">
        <ele>361.965232</ele>
        <time>2021-11-20T20:05:32.477Z</time>
      </trkpt>
      <trkpt lat="47.502158" lon="8.008808">
        <ele>361.839254</ele>
        <time>2021-11-20T20:05:34.020Z</time>
      </trkpt>
      <trkpt lat="47.502267" lon="8.008979">
        <ele>361.699877</ele>
        <time>2021-11-20T20:05:35.959Z</time>
      </trkpt>
      <trkpt lat="47.502773" lon="8.009928">
        <ele>359.947822</ele>
        <time>2021-11-20T20:05:45.239Z</time>
      </trkpt>
      <trkpt lat="47.502959" lon="8.010415">
        <ele>359.063667</ele>
        <time>2021-11-20T20:05:49.152Z</time>
      </trkpt>
      <trkpt lat="47.502991" lon="8.010405">
        <ele>358.987155</ele>
        <time>2021-11-20T20:05:49.445Z</time>
      </trkpt>
      <trkpt lat="47.503467" lon="8.010296">
        <ele>357.860331</ele>
        <time>2021-11-20T20:05:54.435Z</time>
      </trkpt>
      <trkpt lat="47.504018" lon="8.010447">
        <ele>356.686695</ele>
        <time>2021-11-20T20:06:00.368Z</time>
      </trkpt>
      <trkpt lat="47.504178" lon="8.010516">
        <ele>356.359992</ele>
        <time>2021-11-20T20:06:02.016Z</time>
      </trkpt>
      <trkpt lat="47.504256" lon="8.010566">
        <ele>356.193360</ele>
        <time>2021-11-20T20:06:02.900Z</time>
      </trkpt>
      <trkpt lat="47.504446" lon="8.010688">
        <ele>355.787353</ele>
        <time>2021-11-20T20:06:05.104Z</time>
      </trkpt>
      <trkpt lat="47.505237" lon="8.011270">
        <ele>354.055695</ele>
        <time>2021-11-20T20:06:15.105Z</time>
      </trkpt>
      <trkpt lat="47.505388" lon="8.011390">
        <ele>353.878807</ele>
        <time>2021-11-20T20:06:17.310Z</time>
      </trkpt>
      <trkpt lat="47.505808" lon="8.011926">
        <ele>353.936752</ele>
        <time>2021-11-20T20:06:25.132Z</time>
      </trkpt>
      <trkpt lat="47.506101" lon="8.012240">
        <ele>353.974550</ele>
        <time>2021-11-20T20:06:31.516Z</time>
      </trkpt>
      <trkpt lat="47.506308" lon="8.012429">
        <ele>353.999964</ele>
        <time>2021-11-20T20:06:35.842Z</time>
      </trkpt>
      <trkpt lat="47.506346" lon="8.012464">
        <ele>354.004640</ele>
        <time>2021-11-20T20:06:36.615Z</time>
      </trkpt>
      <trkpt lat="47.506389" lon="8.012514">
        <ele>354.010354</ele>
        <time>2021-11-20T20:06:37.566Z</time>
      </trkpt>
      <trkpt lat="47.506472" lon="8.012743">
        <ele>354.028698</ele>
        <time>2021-11-20T20:06:40.654Z</time>
      </trkpt>
      <trkpt lat="47.506492" lon="8.012798">
        <ele>354.033107</ele>
        <time>2021-11-20T20:06:41.457Z</time>
      </trkpt>
      <trkpt lat="47.506533" lon="8.012868">
        <ele>354.039647</ele>
        <time>2021-11-20T20:06:42.451Z</time>
      </trkpt>
      <trkpt lat="47.506633" lon="8.012949">
        <ele>354.051559</ele>
        <time>2021-11-20T20:06:44.324Z</time>
      </trkpt>
      <trkpt lat="47.506663" lon="8.012973">
        <ele>354.055122</ele>
        <time>2021-11-20T20:06:44.841Z</time>
      </trkpt>
      <trkpt lat="47.506697" lon="8.013001">
        <ele>354.054869</ele>
        <time>2021-11-20T20:06:45.429Z</time>
      </trkpt>
      <trkpt lat="47.506760" lon="8.013057">
        <ele>353.993790</ele>
        <time>2021-11-20T20:06:46.611Z</time>
      </trkpt>
      <trkpt lat="47.506825" lon="8.013107">
        <ele>353.932904</ele>
        <time>2021-11-20T20:06:47.806Z</time>
      </trkpt>
      <trkpt lat="47.506890" lon="8.013159">
        <ele>353.871493</ele>
        <time>2021-11-20T20:06:48.988Z</time>
      </trkpt>
      <trkpt lat="47.506929" lon="8.013191">
        <ele>353.834430</ele>
        <time>2021-11-20T20:06:49.636Z</time>
      </trkpt>
      <trkpt lat="47.506955" lon="8.013213">
        <ele>353.809539</ele>
        <time>2021-11-20T20:06:50.069Z</time>
      </trkpt>
      <trkpt lat="47.506989" lon="8.013246">
        <ele>353.775746</ele>
        <time>2021-11-20T20:06:50.667Z</time>
      </trkpt>
      <trkpt lat="47.507007" lon="8.013263">
        <ele>353.757999</ele>
        <time>2021-11-20T20:06:50.976Z</time>
      </trkpt>
      <trkpt lat="47.507038" lon="8.013279">
        <ele>353.730711</ele>
        <time>2021-11-20T20:06:51.501Z</time>
      </trkpt>
      <trkpt lat="47.507084" lon="8.013290">
        <ele>353.691981</ele>
        <time>2021-11-20T20:06:52.181Z</time>
      </trkpt>
      <trkpt lat="47.507106" lon="8.013288">
        <ele>353.673661</ele>
        <time>2021-11-20T20:06:52.545Z</time>
      </trkpt>
      <trkpt lat="47.507191" lon="8.013279">
        <ele>353.602829</ele>
        <time>2021-11-20T20:06:53.712Z</time>
      </trkpt>
      <trkpt lat="47.507231" lon="8.013292">
        <ele>353.568790</ele>
        <time>2021-11-20T20:06:54.316Z</time>
      </trkpt>
      <trkpt lat="47.507559" lon="8.013585">
        <ele>353.250373</ele>
        <time>2021-11-20T20:06:59.275Z</time>
      </trkpt>
      <trkpt lat="47.507595" lon="8.013616">
        <ele>353.215757</ele>
        <time>2021-11-20T20:06:59.728Z</time>
      </trkpt>
      <trkpt lat="47.508011" lon="8.013995">
        <ele>352.809752</ele>
        <time>2021-11-20T20:07:05.632Z</time>
      </trkpt>
      <trkpt lat="47.508075" lon="8.014054">
        <ele>352.747086</ele>
        <time>2021-11-20T20:07:06.482Z</time>
      </trkpt>
      <trkpt lat="47.508214" lon="8.014183">
        <ele>352.610726</ele>
        <time>2021-11-20T20:07:08.261Z</time>
      </trkpt>
      <trkpt lat="47.508281" lon="8.014277">
        <ele>352.470267</ele>
        <time>2021-11-20T20:07:09.329Z</time>
      </trkpt>
      <trkpt lat="47.508333" lon="8.014419">
        <ele>352.184958</ele>
        <time>2021-11-20T20:07:10.475Z</time>
      </trkpt>
      <trkpt lat="47.508333" lon="8.014419">
        <ele>352.184958</ele>
        <time>2021-11-20T20:07:10.515Z</time>
      </trkpt>
      <trkpt lat="47.508333" lon="8.014419">
        <ele>352.184958</ele>
        <time>2021-11-20T20:07:10.519Z</time>
      </trkpt>
      <trkpt lat="47.508352" lon="8.014580">
        <ele>351.896269</ele>
        <time>2021-11-20T20:07:11.690Z</time>
      </trkpt>
      <trkpt lat="47.508352" lon="8.014580">
        <ele>351.896269</ele>
        <time>2021-11-20T20:07:11.694Z</time>
      </trkpt>
      <trkpt lat="47.508337" lon="8.014821">
        <ele>351.468776</ele>
        <time>2021-11-20T20:07:13.457Z</time>
      </trkpt>
      <trkpt lat="47.508294" lon="8.015081">
        <ele>350.995961</ele>
        <time>2021-11-20T20:07:15.284Z</time>
      </trkpt>
      <trkpt lat="47.508285" lon="8.015139">
        <ele>350.890844</ele>
        <time>2021-11-20T20:07:15.685Z</time>
      </trkpt>
      <trkpt lat="47.508270" lon="8.015229">
        <ele>350.727105</ele>
        <time>2021-11-20T20:07:16.372Z</time>
      </trkpt>
      <trkpt lat="47.508213" lon="8.015549">
        <ele>350.142551</ele>
        <time>2021-11-20T20:07:18.690Z</time>
      </trkpt>
      <trkpt lat="47.508171" lon="8.015782">
        <ele>349.716589</ele>
        <time>2021-11-20T20:07:20.363Z</time>
      </trkpt>
      <trkpt lat="47.508111" lon="8.016120">
        <ele>349.099289</ele>
        <time>2021-11-20T20:07:22.775Z</time>
      </trkpt>
      <trkpt lat="47.508068" lon="8.016380">
        <ele>348.626472</ele>
        <time>2021-11-20T20:07:24.685Z</time>
      </trkpt>
      <trkpt lat="47.508091" lon="8.016430">
        <ele>348.519621</ele>
        <time>2021-11-20T20:07:25.090Z</time>
      </trkpt>
      <trkpt lat="47.508279" lon="8.016640">
        <ele>347.903771</ele>
        <time>2021-11-20T20:07:27.497Z</time>
      </trkpt>
      <trkpt lat="47.508354" lon="8.016748">
        <ele>347.716452</ele>
        <time>2021-11-20T20:07:28.624Z</time>
      </trkpt>
      <trkpt lat="47.508497" lon="8.016922">
        <ele>347.413843</ele>
        <time>2021-11-20T20:07:30.533Z</time>
      </trkpt>
      <trkpt lat="47.508730" lon="8.017178">
        <ele>346.939492</ele>
        <time>2021-11-20T20:07:33.719Z</time>
      </trkpt>
      <trkpt lat="47.508854" lon="8.017281">
        <ele>346.707047</ele>
        <time>2021-11-20T20:07:35.263Z</time>
      </trkpt>
      <trkpt lat="47.509074" lon="8.017428">
        <ele>346.312453</ele>
        <time>2021-11-20T20:07:37.992Z</time>
      </trkpt>
      <trkpt lat="47.509098" lon="8.017446">
        <ele>346.268470</ele>
        <time>2021-11-20T20:07:38.278Z</time>
      </trkpt>
      <trkpt lat="47.509338" lon="8.017622">
        <ele>345.830618</ele>
        <time>2021-11-20T20:07:41.445Z</time>
      </trkpt>
      <trkpt lat="47.509437" lon="8.017668">
        <ele>345.660988</ele>
        <time>2021-11-20T20:07:42.592Z</time>
      </trkpt>
      <trkpt lat="47.509596" lon="8.017609">
        <ele>345.393013</ele>
        <time>2021-11-20T20:07:44.673Z</time>
      </trkpt>
      <trkpt lat="47.509728" lon="8.017576">
        <ele>345.174163</ele>
        <time>2021-11-20T20:07:46.329Z</time>
      </trkpt>
      <trkpt lat="47.509872" lon="8.017541">
        <ele>344.935599</ele>
        <time>2021-11-20T20:07:48.121Z</time>
      </trkpt>
      <trkpt lat="47.510117" lon="8.017458">
        <ele>344.907279</ele>
        <time>2021-11-20T20:07:51.558Z</time>
      </trkpt>
      <trkpt lat="47.510624" lon="8.017217">
        <ele>344.879436</ele>
        <time>2021-11-20T20:07:59.660Z</time>
      </trkpt>
      <trkpt lat="47.511079" lon="8.016999">
        <ele>344.854430</ele>
        <time>2021-11-20T20:08:07.314Z</time>
      </trkpt>
      <trkpt lat="47.511835" lon="8.016624">
        <ele>344.699285</ele>
        <time>2021-11-20T20:08:19.371Z</time>
      </trkpt>
      <trkpt lat="47.511937" lon="8.016578">
        <ele>344.645538</ele>
        <time>2021-11-20T20:08:21.043Z</time>
      </trkpt>
      <trkpt lat="47.512292" lon="8.016407">
        <ele>344.457359</ele>
        <time>2021-11-20T20:08:26.205Z</time>
      </trkpt>
      <trkpt lat="47.512572" lon="8.016270">
        <ele>344.308711</ele>
        <time>2021-11-20T20:08:30.109Z</time>
      </trkpt>
      <trkpt lat="47.512748" lon="8.016153">
        <ele>344.211462</ele>
        <time>2021-11-20T20:08:32.721Z</time>
      </trkpt>
      <trkpt lat="47.512943" lon="8.015998">
        <ele>344.099898</ele>
        <time>2021-11-20T20:08:35.580Z</time>
      </trkpt>
      <trkpt lat="47.513615" lon="8.015346">
        <ele>343.315386</ele>
        <time>2021-11-20T20:08:45.138Z</time>
      </trkpt>
      <trkpt lat="47.513872" lon="8.015092">
        <ele>342.896105</ele>
        <time>2021-11-20T20:08:48.645Z</time>
      </trkpt>
      <trkpt lat="47.513919" lon="8.015052">
        <ele>342.822545</ele>
        <time>2021-11-20T20:08:49.290Z</time>
      </trkpt>
      <trkpt lat="47.514036" lon="8.014936">
        <ele>342.631480</ele>
        <time>2021-11-20T20:08:50.916Z</time>
      </trkpt>
      <trkpt lat="47.514162" lon="8.014813">
        <ele>342.426693</ele>
        <time>2021-11-20T20:08:52.619Z</time>
      </trkpt>
      <trkpt lat="47.514464" lon="8.014550">
        <ele>341.951279</ele>
        <time>2021-11-20T20:08:56.698Z</time>
      </trkpt>
      <trkpt lat="47.514628" lon="8.014407">
        <ele>341.693024</ele>
        <time>2021-11-20T20:08:58.913Z</time>
      </trkpt>
      <trkpt lat="47.514746" lon="8.014292">
        <ele>341.501336</ele>
        <time>2021-11-20T20:09:00.557Z</time>
      </trkpt>
      <trkpt lat="47.515054" lon="8.014017">
        <ele>341.124309</ele>
        <time>2021-11-20T20:09:04.785Z</time>
      </trkpt>
      <trkpt lat="47.515263" lon="8.013836">
        <ele>340.874142</ele>
        <time>2021-11-20T20:09:07.674Z</time>
      </trkpt>
      <trkpt lat="47.515468" lon="8.013643">
        <ele>340.623141</ele>
        <time>2021-11-20T20:09:10.573Z</time>
      </trkpt>
      <trkpt lat="47.515487" lon="8.013682">
        <ele>340.589585</ele>
        <time>2021-11-20T20:09:10.942Z</time>
      </trkpt>
      <trkpt lat="47.515592" lon="8.013719">
        <ele>340.478068</ele>
        <time>2021-11-20T20:09:12.270Z</time>
      </trkpt>
      <trkpt lat="47.515625" lon="8.013694">
        <ele>340.439768</ele>
        <time>2021-11-20T20:09:12.695Z</time>
      </trkpt>
      <trkpt lat="47.515640" lon="8.013674">
        <ele>340.418912</ele>
        <time>2021-11-20T20:09:12.953Z</time>
      </trkpt>
      <trkpt lat="47.515666" lon="8.013522">
        <ele>340.309495</ele>
        <time>2021-11-20T20:09:14.262Z</time>
      </trkpt>
      <trkpt lat="47.515654" lon="8.013483">
        <ele>340.279589</ele>
        <time>2021-11-20T20:09:14.641Z</time>
      </trkpt>
      <trkpt lat="47.515686" lon="8.013458">
        <ele>340.242206</ele>
        <time>2021-11-20T20:09:15.040Z</time>
      </trkpt>
      <trkpt lat="47.516968" lon="8.012240">
        <ele>339.068879</ele>
        <time>2021-11-20T20:09:34.762Z</time>
      </trkpt>
      <trkpt lat="47.517220" lon="8.011958">
        <ele>338.879827</ele>
        <time>2021-11-20T20:09:39.004Z</time>
      </trkpt>
      <trkpt lat="47.517559" lon="8.011519">
        <ele>338.610285</ele>
        <time>2021-11-20T20:09:44.933Z</time>
      </trkpt>
      <trkpt lat="47.517842" lon="8.011140">
        <ele>338.319370</ele>
        <time>2021-11-20T20:09:49.826Z</time>
      </trkpt>
      <trkpt lat="47.518886" lon="8.009691">
        <ele>337.132075</ele>
        <time>2021-11-20T20:10:07.656Z</time>
      </trkpt>
      <trkpt lat="47.520570" lon="8.007346">
        <ele>334.965157</ele>
        <time>2021-11-20T20:10:35.719Z</time>
      </trkpt>
      <trkpt lat="47.520725" lon="8.007132">
        <ele>334.860589</ele>
        <time>2021-11-20T20:10:38.313Z</time>
      </trkpt>
      <trkpt lat="47.524655" lon="8.001699">
        <ele>332.298760</ele>
        <time>2021-11-20T20:11:51.299Z</time>
      </trkpt>
      <trkpt lat="47.524855" lon="8.001439">
        <ele>332.115650</ele>
        <time>2021-11-20T20:11:54.657Z</time>
      </trkpt>
      <trkpt lat="47.525162" lon="8.001004">
        <ele>331.823305</ele>
        <time>2021-11-20T20:11:59.747Z</time>
      </trkpt>
      <trkpt lat="47.526084" lon="8.000015">
        <ele>331.370108</ele>
        <time>2021-11-20T20:12:14.365Z</time>
      </trkpt>
      <trkpt lat="47.526401" lon="7.999417">
        <ele>331.282096</ele>
        <time>2021-11-20T20:12:21.677Z</time>
      </trkpt>
      <trkpt lat="47.526473" lon="7.999201">
        <ele>331.254211</ele>
        <time>2021-11-20T20:12:24.682Z</time>
      </trkpt>
      <trkpt lat="47.526730" lon="7.998233">
        <ele>331.213648</ele>
        <time>2021-11-20T20:12:35.538Z</time>
      </trkpt>
      <trkpt lat="47.526915" lon="7.997856">
        <ele>331.274576</ele>
        <time>2021-11-20T20:12:40.462Z</time>
      </trkpt>
      <trkpt lat="47.527213" lon="7.997459">
        <ele>331.352181</ele>
        <time>2021-11-20T20:12:47.386Z</time>
      </trkpt>
      <trkpt lat="47.527614" lon="7.997121">
        <ele>331.441513</ele>
        <time>2021-11-20T20:12:54.780Z</time>
      </trkpt>
      <trkpt lat="47.528128" lon="7.996500">
        <ele>331.400559</ele>
        <time>2021-11-20T20:13:04.519Z</time>
      </trkpt>
      <trkpt lat="47.528880" lon="7.995091">
        <ele>330.846369</ele>
        <time>2021-11-20T20:13:20.227Z</time>
      </trkpt>
      <trkpt lat="47.529180" lon="7.994531">
        <ele>330.610981</ele>
        <time>2021-11-20T20:13:26.711Z</time>
      </trkpt>
      <trkpt lat="47.529261" lon="7.994394">
        <ele>330.543198</ele>
        <time>2021-11-20T20:13:28.221Z</time>
      </trkpt>
      <trkpt lat="47.529350" lon="7.994228">
        <ele>330.464297</ele>
        <time>2021-11-20T20:13:30.053Z</time>
      </trkpt>
      <trkpt lat="47.530141" lon="7.992757">
        <ele>329.764327</ele>
        <time>2021-11-20T20:13:46.447Z</time>
      </trkpt>
      <trkpt lat="47.530495" lon="7.992103">
        <ele>329.860903</ele>
        <time>2021-11-20T20:13:54.575Z</time>
      </trkpt>
      <trkpt lat="47.530776" lon="7.991586">
        <ele>330.011717</ele>
        <time>2021-11-20T20:14:02.135Z</time>
      </trkpt>
      <trkpt lat="47.530933" lon="7.991310">
        <ele>330.093724</ele>
        <time>2021-11-20T20:14:05.857Z</time>
      </trkpt>
      <trkpt lat="47.530979" lon="7.991211">
        <ele>330.121032</ele>
        <time>2021-11-20T20:14:07.392Z</time>
      </trkpt>
      <trkpt lat="47.531065" lon="7.991037">
        <ele>330.170032</ele>
        <time>2021-11-20T20:14:09.906Z</time>
      </trkpt>
      <trkpt lat="47.531093" lon="7.990981">
        <ele>330.185866</ele>
        <time>2021-11-20T20:14:10.629Z</time>
      </trkpt>
      <trkpt lat="47.531363" lon="7.990436">
        <ele>330.352237</ele>
        <time>2021-11-20T20:14:18.552Z</time>
      </trkpt>
      <trkpt lat="47.531667" lon="7.989873">
        <ele>330.590436</ele>
        <time>2021-11-20T20:14:27.815Z</time>
      </trkpt>
      <trkpt lat="47.531823" lon="7.989607">
        <ele>330.706854</ele>
        <time>2021-11-20T20:14:31.795Z</time>
      </trkpt>
      <trkpt lat="47.531897" lon="7.989450">
        <ele>330.770119</ele>
        <time>2021-11-20T20:14:35.076Z</time>
      </trkpt>
      <trkpt lat="47.532014" lon="7.989225">
        <ele>330.863957</ele>
        <time>2021-11-20T20:14:37.856Z</time>
      </trkpt>
      <trkpt lat="47.532299" lon="7.988577">
        <ele>331.119487</ele>
        <time>2021-11-20T20:14:47.264Z</time>
      </trkpt>
      <trkpt lat="47.532373" lon="7.988399">
        <ele>331.188556</ele>
        <time>2021-11-20T20:14:50.141Z</time>
      </trkpt>
      <trkpt lat="47.532401" lon="7.988331">
        <ele>331.109169</ele>
        <time>2021-11-20T20:14:50.623Z</time>
      </trkpt>
      <trkpt lat="47.532464" lon="7.988171">
        <ele>330.892810</ele>
        <time>2021-11-20T20:14:52.320Z</time>
      </trkpt>
      <trkpt lat="47.532544" lon="7.987973">
        <ele>330.623272</ele>
        <time>2021-11-20T20:14:54.887Z</time>
      </trkpt>
      <trkpt lat="47.532621" lon="7.987826">
        <ele>330.405942</ele>
        <time>2021-11-20T20:14:56.089Z</time>
      </trkpt>
      <trkpt lat="47.532716" lon="7.987667">
        <ele>330.157930</ele>
        <time>2021-11-20T20:14:58.180Z</time>
      </trkpt>
      <trkpt lat="47.532879" lon="7.987447">
        <ele>329.776396</ele>
        <time>2021-11-20T20:15:00.451Z</time>
      </trkpt>
      <trkpt lat="47.533114" lon="7.987128">
        <ele>329.224896</ele>
        <time>2021-11-20T20:15:03.939Z</time>
      </trkpt>
      <trkpt lat="47.533142" lon="7.987165">
        <ele>329.159975</ele>
        <time>2021-11-20T20:15:04.295Z</time>
      </trkpt>
      <trkpt lat="47.533195" lon="7.987215">
        <ele>329.051259</ele>
        <time>2021-11-20T20:15:05.236Z</time>
      </trkpt>
      <trkpt lat="47.533509" lon="7.987411">
        <ele>328.461734</ele>
        <time>2021-11-20T20:15:08.841Z</time>
      </trkpt>
      <trkpt lat="47.533728" lon="7.987557">
        <ele>328.039149</ele>
        <time>2021-11-20T20:15:11.639Z</time>
      </trkpt>
      <trkpt lat="47.534072" lon="7.987749">
        <ele>327.268711</ele>
        <time>2021-11-20T20:15:15.510Z</time>
      </trkpt>
      <trkpt lat="47.534280" lon="7.987862">
        <ele>326.804390</ele>
        <time>2021-11-20T20:15:17.807Z</time>
      </trkpt>
      <trkpt lat="47.534363" lon="7.987895">
        <ele>326.624282</ele>
        <time>2021-11-20T20:15:18.684Z</time>
      </trkpt>
      <trkpt lat="47.534466" lon="7.987626">
        <ele>326.186706</ele>
        <time>2021-11-20T20:15:20.848Z</time>
      </trkpt>
      <trkpt lat="47.534590" lon="7.987330">
        <ele>325.693804</ele>
        <time>2021-11-20T20:15:23.326Z</time>
      </trkpt>
      <trkpt lat="47.534974" lon="7.986602">
        <ele>324.386614</ele>
        <time>2021-11-20T20:15:30.306Z</time>
      </trkpt>
      <trkpt lat="47.535270" lon="7.985985">
        <ele>324.207708</ele>
        <time>2021-11-20T20:15:36.807Z</time>
      </trkpt>
      <trkpt lat="47.535614" lon="7.985212">
        <ele>324.072754</ele>
        <time>2021-11-20T20:15:45.288Z</time>
      </trkpt>
      <trkpt lat="47.536026" lon="7.984206">
        <ele>324.136422</ele>
        <time>2021-11-20T20:15:58.029Z</time>
      </trkpt>
      <trkpt lat="47.536199" lon="7.983737">
        <ele>324.948700</ele>
        <time>2021-11-20T20:16:05.130Z</time>
      </trkpt>
      <trkpt lat="47.536410" lon="7.983244">
        <ele>325.835874</ele>
        <time>2021-11-20T20:16:14.287Z</time>
      </trkpt>
      <trkpt lat="47.536530" lon="7.982859">
        <ele>326.480372</ele>
        <time>2021-11-20T20:16:21.624Z</time>
      </trkpt>
      <trkpt lat="47.536764" lon="7.982225">
        <ele>327.578558</ele>
        <time>2021-11-20T20:16:35.295Z</time>
      </trkpt>
      <trkpt lat="47.536775" lon="7.982096">
        <ele>327.776177</ele>
        <time>2021-11-20T20:16:37.708Z</time>
      </trkpt>
      <trkpt lat="47.536842" lon="7.981878">
        <ele>328.145699</ele>
        <time>2021-11-20T20:16:42.449Z</time>
      </trkpt>
      <trkpt lat="47.536896" lon="7.981697">
        <ele>328.456191</ele>
        <time>2021-11-20T20:16:46.286Z</time>
      </trkpt>
      <trkpt lat="47.536959" lon="7.981602">
        <ele>328.665134</ele>
        <time>2021-11-20T20:16:48.660Z</time>
      </trkpt>
      <trkpt lat="47.537107" lon="7.981082">
        <ele>329.550578</ele>
        <time>2021-11-20T20:16:59.382Z</time>
      </trkpt>
      <trkpt lat="47.537461" lon="7.980118">
        <ele>331.272409</ele>
        <time>2021-11-20T20:17:17.935Z</time>
      </trkpt>
      <trkpt lat="47.537583" lon="7.979760">
        <ele>331.901628</ele>
        <time>2021-11-20T20:17:23.939Z</time>
      </trkpt>
      <trkpt lat="47.537955" lon="7.978125">
        <ele>331.449903</ele>
        <time>2021-11-20T20:17:40.282Z</time>
      </trkpt>
      <trkpt lat="47.538107" lon="7.977240">
        <ele>331.040983</ele>
        <time>2021-11-20T20:17:47.188Z</time>
      </trkpt>
      <trkpt lat="47.538242" lon="7.976347">
        <ele>329.992732</ele>
        <time>2021-11-20T20:17:54.064Z</time>
      </trkpt>
      <trkpt lat="47.538706" lon="7.974459">
        <ele>327.319834</ele>
        <time>2021-11-20T20:18:08.994Z</time>
      </trkpt>
      <trkpt lat="47.539262" lon="7.971768">
        <ele>322.968236</ele>
        <time>2021-11-20T20:18:29.338Z</time>
      </trkpt>
      <trkpt lat="47.539783" lon="7.969587">
        <ele>319.313769</ele>
        <time>2021-11-20T20:18:45.818Z</time>
      </trkpt>
      <trkpt lat="47.540214" lon="7.967628">
        <ele>317.170222</ele>
        <time>2021-11-20T20:19:01.618Z</time>
      </trkpt>
      <trkpt lat="47.540896" lon="7.964711">
        <ele>315.094223</ele>
        <time>2021-11-20T20:19:27.723Z</time>
      </trkpt>
      <trkpt lat="47.541095" lon="7.964204">
        <ele>314.741821</ele>
        <time>2021-11-20T20:19:32.760Z</time>
      </trkpt>
      <trkpt lat="47.541169" lon="7.964123">
        <ele>314.655220</ele>
        <time>2021-11-20T20:19:33.718Z</time>
      </trkpt>
      <trkpt lat="47.541129" lon="7.964008">
        <ele>314.573022</ele>
        <time>2021-11-20T20:19:35.167Z</time>
      </trkpt>
      <trkpt lat="47.541019" lon="7.963815">
        <ele>314.412533</ele>
        <time>2021-11-20T20:19:37.525Z</time>
      </trkpt>
      <trkpt lat="47.541123" lon="7.963520">
        <ele>314.201075</ele>
        <time>2021-11-20T20:19:40.271Z</time>
      </trkpt>
      <trkpt lat="47.541217" lon="7.963187">
        <ele>313.971741</ele>
        <time>2021-11-20T20:19:43.167Z</time>
      </trkpt>
      <trkpt lat="47.541258" lon="7.962975">
        <ele>313.831623</ele>
        <time>2021-11-20T20:19:45.567Z</time>
      </trkpt>
      <trkpt lat="47.541293" lon="7.962730">
        <ele>313.672508</ele>
        <time>2021-11-20T20:19:47.546Z</time>
      </trkpt>
      <trkpt lat="47.541308" lon="7.962513">
        <ele>313.533910</ele>
        <time>2021-11-20T20:19:49.593Z</time>
      </trkpt>
      <trkpt lat="47.541314" lon="7.962377">
        <ele>313.447315</ele>
        <time>2021-11-20T20:19:50.917Z</time>
      </trkpt>
      <trkpt lat="47.541316" lon="7.962197">
        <ele>313.332932</ele>
        <time>2021-11-20T20:19:52.262Z</time>
      </trkpt>
      <trkpt lat="47.541270" lon="7.961631">
        <ele>312.490492</ele>
        <time>2021-11-20T20:19:56.995Z</time>
      </trkpt>
      <trkpt lat="47.541259" lon="7.961498">
        <ele>312.245499</ele>
        <time>2021-11-20T20:19:57.892Z</time>
      </trkpt>
      <trkpt lat="47.541242" lon="7.961294">
        <ele>311.869678</ele>
        <time>2021-11-20T20:19:59.433Z</time>
      </trkpt>
      <trkpt lat="47.541153" lon="7.960814">
        <ele>310.959551</ele>
        <time>2021-11-20T20:20:02.965Z</time>
      </trkpt>
      <trkpt lat="47.541060" lon="7.960321">
        <ele>310.023623</ele>
        <time>2021-11-20T20:20:06.555Z</time>
      </trkpt>
      <trkpt lat="47.541027" lon="7.959944">
        <ele>309.328550</ele>
        <time>2021-11-20T20:20:09.061Z</time>
      </trkpt>
      <trkpt lat="47.541019" lon="7.959792">
        <ele>309.049792</ele>
        <time>2021-11-20T20:20:10.102Z</time>
      </trkpt>
      <trkpt lat="47.541012" lon="7.959578">
        <ele>308.658057</ele>
        <time>2021-11-20T20:20:11.575Z</time>
      </trkpt>
      <trkpt lat="47.541016" lon="7.959388">
        <ele>308.298723</ele>
        <time>2021-11-20T20:20:12.780Z</time>
      </trkpt>
      <trkpt lat="47.541081" lon="7.958828">
        <ele>306.984328</ele>
        <time>2021-11-20T20:20:16.543Z</time>
      </trkpt>
      <trkpt lat="47.541226" lon="7.958150">
        <ele>305.339165</ele>
        <time>2021-11-20T20:20:21.304Z</time>
      </trkpt>
      <trkpt lat="47.541305" lon="7.957787">
        <ele>304.456923</ele>
        <time>2021-11-20T20:20:23.788Z</time>
      </trkpt>
      <trkpt lat="47.541355" lon="7.957559">
        <ele>303.902387</ele>
        <time>2021-11-20T20:20:25.490Z</time>
      </trkpt>
      <trkpt lat="47.541450" lon="7.956897">
        <ele>302.336847</ele>
        <time>2021-11-20T20:20:30.124Z</time>
      </trkpt>
      <trkpt lat="47.541464" lon="7.956698">
        <ele>302.088405</ele>
        <time>2021-11-20T20:20:31.529Z</time>
      </trkpt>
      <trkpt lat="47.541533" lon="7.955526">
        <ele>301.204114</ele>
        <time>2021-11-20T20:20:40.364Z</time>
      </trkpt>
      <trkpt lat="47.541554" lon="7.955311">
        <ele>301.040824</ele>
        <time>2021-11-20T20:20:42.401Z</time>
      </trkpt>
      <trkpt lat="47.541735" lon="7.953892">
        <ele>300.241240</ele>
        <time>2021-11-20T20:20:56.610Z</time>
      </trkpt>
      <trkpt lat="47.541773" lon="7.953695">
        <ele>300.275798</ele>
        <time>2021-11-20T20:20:58.858Z</time>
      </trkpt>
      <trkpt lat="47.541791" lon="7.953601">
        <ele>300.292278</ele>
        <time>2021-11-20T20:20:59.892Z</time>
      </trkpt>
      <trkpt lat="47.541991" lon="7.952667">
        <ele>300.457551</ele>
        <time>2021-11-20T20:21:10.748Z</time>
      </trkpt>
      <trkpt lat="47.542169" lon="7.951815">
        <ele>300.607982</ele>
        <time>2021-11-20T20:21:20.486Z</time>
      </trkpt>
      <trkpt lat="47.542192" lon="7.951713">
        <ele>300.626121</ele>
        <time>2021-11-20T20:21:21.749Z</time>
      </trkpt>
      <trkpt lat="47.542357" lon="7.951037">
        <ele>300.742515</ele>
        <time>2021-11-20T20:21:29.213Z</time>
      </trkpt>
      <trkpt lat="47.542444" lon="7.950687">
        <ele>300.802628</ele>
        <time>2021-11-20T20:21:33.044Z</time>
      </trkpt>
      <trkpt lat="47.542546" lon="7.950274">
        <ele>300.873506</ele>
        <time>2021-11-20T20:21:37.391Z</time>
      </trkpt>
      <trkpt lat="47.542554" lon="7.950231">
        <ele>300.880695</ele>
        <time>2021-11-20T20:21:37.878Z</time>
      </trkpt>
      <trkpt lat="47.542560" lon="7.950202">
        <ele>300.885584</ele>
        <time>2021-11-20T20:21:38.211Z</time>
      </trkpt>
      <trkpt lat="47.542609" lon="7.949914">
        <ele>300.933452</ele>
        <time>2021-11-20T20:21:41.210Z</time>
      </trkpt>
      <trkpt lat="47.542719" lon="7.949175">
        <ele>301.055418</ele>
        <time>2021-11-20T20:21:49.113Z</time>
      </trkpt>
      <trkpt lat="47.542826" lon="7.948298">
        <ele>301.753930</ele>
        <time>2021-11-20T20:22:00.056Z</time>
      </trkpt>
      <trkpt lat="47.542838" lon="7.948225">
        <ele>301.817189</ele>
        <time>2021-11-20T20:22:00.884Z</time>
      </trkpt>
      <trkpt lat="47.542875" lon="7.948001">
        <ele>302.011350</ele>
        <time>2021-11-20T20:22:03.767Z</time>
      </trkpt>
      <trkpt lat="47.542928" lon="7.947798">
        <ele>302.194605</ele>
        <time>2021-11-20T20:22:06.690Z</time>
      </trkpt>
      <trkpt lat="47.542957" lon="7.947651">
        <ele>302.323549</ele>
        <time>2021-11-20T20:22:08.398Z</time>
      </trkpt>
      <trkpt lat="47.543050" lon="7.947411">
        <ele>302.556544</ele>
        <time>2021-11-20T20:22:12.762Z</time>
      </trkpt>
      <trkpt lat="47.543087" lon="7.947317">
        <ele>302.648159</ele>
        <time>2021-11-20T20:22:14.041Z</time>
      </trkpt>
      <trkpt lat="47.543092" lon="7.947257">
        <ele>302.699059</ele>
        <time>2021-11-20T20:22:14.831Z</time>
      </trkpt>
      <trkpt lat="47.543097" lon="7.947186">
        <ele>302.759162</ele>
        <time>2021-11-20T20:22:15.680Z</time>
      </trkpt>
      <trkpt lat="47.543086" lon="7.947052">
        <ele>302.872815</ele>
        <time>2021-11-20T20:22:17.510Z</time>
      </trkpt>
      <trkpt lat="47.543056" lon="7.946935">
        <ele>302.978190</ele>
        <time>2021-11-20T20:22:19.877Z</time>
      </trkpt>
      <trkpt lat="47.543045" lon="7.946881">
        <ele>303.025680</ele>
        <time>2021-11-20T20:22:20.989Z</time>
      </trkpt>
      <trkpt lat="47.542982" lon="7.946547">
        <ele>303.320366</ele>
        <time>2021-11-20T20:22:25.588Z</time>
      </trkpt>
      <trkpt lat="47.542974" lon="7.946495">
        <ele>303.383702</ele>
        <time>2021-11-20T20:22:26.802Z</time>
      </trkpt>
      <trkpt lat="47.542960" lon="7.946400">
        <ele>303.499177</ele>
        <time>2021-11-20T20:22:28.638Z</time>
      </trkpt>
      <trkpt lat="47.542916" lon="7.945730">
        <ele>304.298593</ele>
        <time>2021-11-20T20:22:39.215Z</time>
      </trkpt>
      <trkpt lat="47.542913" lon="7.945267">
        <ele>304.848455</ele>
        <time>2021-11-20T20:22:46.701Z</time>
      </trkpt>
      <trkpt lat="47.543007" lon="7.943867">
        <ele>306.474160</ele>
        <time>2021-11-20T20:23:07.203Z</time>
      </trkpt>
      <trkpt lat="47.543161" lon="7.942213">
        <ele>306.421777</ele>
        <time>2021-11-20T20:23:25.513Z</time>
      </trkpt>
      <trkpt lat="47.543176" lon="7.942129">
        <ele>306.419051</ele>
        <time>2021-11-20T20:23:26.163Z</time>
      </trkpt>
      <trkpt lat="47.543188" lon="7.942059">
        <ele>306.416785</ele>
        <time>2021-11-20T20:23:26.826Z</time>
      </trkpt>
      <trkpt lat="47.543435" lon="7.940670">
        <ele>305.718594</ele>
        <time>2021-11-20T20:23:38.497Z</time>
      </trkpt>
      <trkpt lat="47.543826" lon="7.939433">
        <ele>304.276619</ele>
        <time>2021-11-20T20:23:48.932Z</time>
      </trkpt>
      <trkpt lat="47.544472" lon="7.937932">
        <ele>302.252658</ele>
        <time>2021-11-20T20:24:02.308Z</time>
      </trkpt>
      <trkpt lat="47.544705" lon="7.937395">
        <ele>301.496203</ele>
        <time>2021-11-20T20:24:07.147Z</time>
      </trkpt>
      <trkpt lat="47.544903" lon="7.936917">
        <ele>300.831639</ele>
        <time>2021-11-20T20:24:11.408Z</time>
      </trkpt>
      <trkpt lat="47.545074" lon="7.936484">
        <ele>300.290773</ele>
        <time>2021-11-20T20:24:15.239Z</time>
      </trkpt>
      <trkpt lat="47.545457" lon="7.935110">
        <ele>299.042003</ele>
        <time>2021-11-20T20:24:26.607Z</time>
      </trkpt>
      <trkpt lat="47.545674" lon="7.933625">
        <ele>298.431997</ele>
        <time>2021-11-20T20:24:39.687Z</time>
      </trkpt>
      <trkpt lat="47.545702" lon="7.933290">
        <ele>298.601308</ele>
        <time>2021-11-20T20:24:43.267Z</time>
      </trkpt>
      <trkpt lat="47.545724" lon="7.932758">
        <ele>298.868647</ele>
        <time>2021-11-20T20:24:49.534Z</time>
      </trkpt>
      <trkpt lat="47.545721" lon="7.931992">
        <ele>299.252859</ele>
        <time>2021-11-20T20:24:59.574Z</time>
      </trkpt>
      <trkpt lat="47.545696" lon="7.931497">
        <ele>299.501833</ele>
        <time>2021-11-20T20:25:06.779Z</time>
      </trkpt>
      <trkpt lat="47.545661" lon="7.930955">
        <ele>300.143637</ele>
        <time>2021-11-20T20:25:15.474Z</time>
      </trkpt>
      <trkpt lat="47.545563" lon="7.929641">
        <ele>301.763484</ele>
        <time>2021-11-20T20:25:37.814Z</time>
      </trkpt>
      <trkpt lat="47.545475" lon="7.928419">
        <ele>302.394312</ele>
        <time>2021-11-20T20:25:54.117Z</time>
      </trkpt>
      <trkpt lat="47.545421" lon="7.927686">
        <ele>301.667509</ele>
        <time>2021-11-20T20:26:00.220Z</time>
      </trkpt>
      <trkpt lat="47.545406" lon="7.927306">
        <ele>301.292305</ele>
        <time>2021-11-20T20:26:03.124Z</time>
      </trkpt>
      <trkpt lat="47.545407" lon="7.927001">
        <ele>300.991665</ele>
        <time>2021-11-20T20:26:05.411Z</time>
      </trkpt>
      <trkpt lat="47.545409" lon="7.926773">
        <ele>300.766908</ele>
        <time>2021-11-20T20:26:07.040Z</time>
      </trkpt>
      <trkpt lat="47.545417" lon="7.925848">
        <ele>299.377540</ele>
        <time>2021-11-20T20:26:13.375Z</time>
      </trkpt>
      <trkpt lat="47.545446" lon="7.925350">
        <ele>298.107880</ele>
        <time>2021-11-20T20:26:16.667Z</time>
      </trkpt>
      <trkpt lat="47.545466" lon="7.924880">
        <ele>296.911670</ele>
        <time>2021-11-20T20:26:19.720Z</time>
      </trkpt>
      <trkpt lat="47.545481" lon="7.924396">
        <ele>295.680975</ele>
        <time>2021-11-20T20:26:22.803Z</time>
      </trkpt>
      <trkpt lat="47.545521" lon="7.923709">
        <ele>293.929459</ele>
        <time>2021-11-20T20:26:27.329Z</time>
      </trkpt>
      <trkpt lat="47.545536" lon="7.923407">
        <ele>293.283588</ele>
        <time>2021-11-20T20:26:29.718Z</time>
      </trkpt>
      <trkpt lat="47.545553" lon="7.923142">
        <ele>292.971196</ele>
        <time>2021-11-20T20:26:31.439Z</time>
      </trkpt>
      <trkpt lat="47.545587" lon="7.922895">
        <ele>292.675364</ele>
        <time>2021-11-20T20:26:33.840Z</time>
      </trkpt>
      <trkpt lat="47.545641" lon="7.922610">
        <ele>292.327977</ele>
        <time>2021-11-20T20:26:35.839Z</time>
      </trkpt>
      <trkpt lat="47.545690" lon="7.922369">
        <ele>292.032601</ele>
        <time>2021-11-20T20:26:38.530Z</time>
      </trkpt>
      <trkpt lat="47.545699" lon="7.922325">
        <ele>291.978646</ele>
        <time>2021-11-20T20:26:38.791Z</time>
      </trkpt>
      <trkpt lat="47.545714" lon="7.922249">
        <ele>291.885722</ele>
        <time>2021-11-20T20:26:39.381Z</time>
      </trkpt>
      <trkpt lat="47.545778" lon="7.921947">
        <ele>291.514256</ele>
        <time>2021-11-20T20:26:42.537Z</time>
      </trkpt>
      <trkpt lat="47.545810" lon="7.921755">
        <ele>291.282169</ele>
        <time>2021-11-20T20:26:43.895Z</time>
      </trkpt>
      <trkpt lat="47.545881" lon="7.921096">
        <ele>290.499016</ele>
        <time>2021-11-20T20:26:49.243Z</time>
      </trkpt>
      <trkpt lat="47.545913" lon="7.920765">
        <ele>290.226394</ele>
        <time>2021-11-20T20:26:52.110Z</time>
      </trkpt>
      <trkpt lat="47.545973" lon="7.920313">
        <ele>290.101459</ele>
        <time>2021-11-20T20:26:57.258Z</time>
      </trkpt>
      <trkpt lat="47.546128" lon="7.919617">
        <ele>289.902689</ele>
        <time>2021-11-20T20:27:03.720Z</time>
      </trkpt>
      <trkpt lat="47.546262" lon="7.919081">
        <ele>289.747671</ele>
        <time>2021-11-20T20:27:09.719Z</time>
      </trkpt>
      <trkpt lat="47.546821" lon="7.916867">
        <ele>288.994639</ele>
        <time>2021-11-20T20:27:30.472Z</time>
      </trkpt>
      <trkpt lat="47.547032" lon="7.916218">
        <ele>288.748779</ele>
        <time>2021-11-20T20:27:36.963Z</time>
      </trkpt>
      <trkpt lat="47.547091" lon="7.916039">
        <ele>288.680791</ele>
        <time>2021-11-20T20:27:38.780Z</time>
      </trkpt>
      <trkpt lat="47.547113" lon="7.915971">
        <ele>288.655054</ele>
        <time>2021-11-20T20:27:39.379Z</time>
      </trkpt>
      <trkpt lat="47.547423" lon="7.915080">
        <ele>288.702974</ele>
        <time>2021-11-20T20:27:49.023Z</time>
      </trkpt>
      <trkpt lat="47.547994" lon="7.913433">
        <ele>288.915851</ele>
        <time>2021-11-20T20:28:08.743Z</time>
      </trkpt>
      <trkpt lat="47.548027" lon="7.913334">
        <ele>288.988957</ele>
        <time>2021-11-20T20:28:10.102Z</time>
      </trkpt>
      <trkpt lat="47.548412" lon="7.912168">
        <ele>289.848394</ele>
        <time>2021-11-20T20:28:26.505Z</time>
      </trkpt>
      <trkpt lat="47.549012" lon="7.910340">
        <ele>291.361176</ele>
        <time>2021-11-20T20:28:53.474Z</time>
      </trkpt>
      <trkpt lat="47.549102" lon="7.910058">
        <ele>291.626031</ele>
        <time>2021-11-20T20:28:57.585Z</time>
      </trkpt>
      <trkpt lat="47.549195" lon="7.909756">
        <ele>291.907878</ele>
        <time>2021-11-20T20:29:01.902Z</time>
      </trkpt>
      <trkpt lat="47.549302" lon="7.909402">
        <ele>292.237210</ele>
        <time>2021-11-20T20:29:06.889Z</time>
      </trkpt>
      <trkpt lat="47.549520" lon="7.908678">
        <ele>292.942100</ele>
        <time>2021-11-20T20:29:17.183Z</time>
      </trkpt>
      <trkpt lat="47.549539" lon="7.908625">
        <ele>293.029311</ele>
        <time>2021-11-20T20:29:17.919Z</time>
      </trkpt>
      <trkpt lat="47.550497" lon="7.905558">
        <ele>298.630633</ele>
        <time>2021-11-20T20:30:12.802Z</time>
      </trkpt>
      <trkpt lat="47.550283" lon="7.905413">
        <ele>299.428155</ele>
        <time>2021-11-20T20:30:20.895Z</time>
      </trkpt>
      <trkpt lat="47.550067" lon="7.905245">
        <ele>300.254950</ele>
        <time>2021-11-20T20:30:29.451Z</time>
      </trkpt>
      <trkpt lat="47.549867" lon="7.905155">
        <ele>300.963354</ele>
        <time>2021-11-20T20:30:37.168Z</time>
      </trkpt>
      <trkpt lat="47.549868" lon="7.905010">
        <ele>301.295058</ele>
        <time>2021-11-20T20:30:40.530Z</time>
      </trkpt>
      <trkpt lat="47.550025" lon="7.904774">
        <ele>302.053057</ele>
        <time>2021-11-20T20:30:48.742Z</time>
      </trkpt>
      <trkpt lat="47.550302" lon="7.904164">
        <ele>303.813230</ele>
        <time>2021-11-20T20:31:06.981Z</time>
      </trkpt>
      <trkpt lat="47.550498" lon="7.903445">
        <ele>305.741400</ele>
        <time>2021-11-20T20:31:26.399Z</time>
      </trkpt>
      <trkpt lat="47.550498" lon="7.903445">
        <ele>305.741400</ele>
        <time>2021-11-20T20:31:26.464Z</time>
      </trkpt>
      <trkpt lat="47.550688" lon="7.902451">
        <ele>308.310263</ele>
        <time>2021-11-20T20:31:48.803Z</time>
      </trkpt>
      <trkpt lat="47.550757" lon="7.901591">
        <ele>310.606763</ele>
        <time>2021-11-20T20:32:08.720Z</time>
      </trkpt>
      <trkpt lat="47.550769" lon="7.901362">
        <ele>311.259317</ele>
        <time>2021-11-20T20:32:14.560Z</time>
      </trkpt>
      <trkpt lat="47.550801" lon="7.900244">
        <ele>314.438441</ele>
        <time>2021-11-20T20:32:39.186Z</time>
      </trkpt>
      <trkpt lat="47.550819" lon="7.898109">
        <ele>319.732920</ele>
        <time>2021-11-20T20:33:26.226Z</time>
      </trkpt>
      <trkpt lat="47.550648" lon="7.896481">
        <ele>323.093390</ele>
        <time>2021-11-20T20:33:53.881Z</time>
      </trkpt>
      <trkpt lat="47.550639" lon="7.896345">
        <ele>323.208504</ele>
        <time>2021-11-20T20:33:56.257Z</time>
      </trkpt>
      <trkpt lat="47.550660" lon="7.896255">
        <ele>323.288722</ele>
        <time>2021-11-20T20:33:57.057Z</time>
      </trkpt>
      <trkpt lat="47.550838" lon="7.895509">
        <ele>323.955255</ele>
        <time>2021-11-20T20:34:07.225Z</time>
      </trkpt>
      <trkpt lat="47.550878" lon="7.895158">
        <ele>324.255117</ele>
        <time>2021-11-20T20:34:11.288Z</time>
      </trkpt>
      <trkpt lat="47.550908" lon="7.894308">
        <ele>324.972122</ele>
        <time>2021-11-20T20:34:21.760Z</time>
      </trkpt>
      <trkpt lat="47.550892" lon="7.893176">
        <ele>327.271629</ele>
        <time>2021-11-20T20:34:36.477Z</time>
      </trkpt>
      <trkpt lat="47.550904" lon="7.891725">
        <ele>330.657417</ele>
        <time>2021-11-20T20:35:07.920Z</time>
      </trkpt>
      <trkpt lat="47.550915" lon="7.890600">
        <ele>334.743605</ele>
        <time>2021-11-20T20:35:36.636Z</time>
      </trkpt>
      <trkpt lat="47.550910" lon="7.890507">
        <ele>335.128742</ele>
        <time>2021-11-20T20:35:40.604Z</time>
      </trkpt>
      <trkpt lat="47.550905" lon="7.890401">
        <ele>335.567397</ele>
        <time>2021-11-20T20:35:42.932Z</time>
      </trkpt>
      <trkpt lat="47.550833" lon="7.889069">
        <ele>341.083751</ele>
        <time>2021-11-20T20:36:19.404Z</time>
      </trkpt>
      <trkpt lat="47.550831" lon="7.888611">
        <ele>342.932274</ele>
        <time>2021-11-20T20:36:32.212Z</time>
      </trkpt>
      <trkpt lat="47.550789" lon="7.887816">
        <ele>345.988539</ele>
        <time>2021-11-20T20:36:52.185Z</time>
      </trkpt>
      <trkpt lat="47.550758" lon="7.887295">
        <ele>347.993087</ele>
        <time>2021-11-20T20:37:05.091Z</time>
      </trkpt>
      <trkpt lat="47.550677" lon="7.886476">
        <ele>351.165542</ele>
        <time>2021-11-20T20:37:26.206Z</time>
      </trkpt>
      <trkpt lat="47.550548" lon="7.885799">
        <ele>353.638721</ele>
        <time>2021-11-20T20:37:43.409Z</time>
      </trkpt>
      <trkpt lat="47.550391" lon="7.885109">
        <ele>355.937005</ele>
        <time>2021-11-20T20:38:01.046Z</time>
      </trkpt>
      <trkpt lat="47.550332" lon="7.884727">
        <ele>357.173885</ele>
        <time>2021-11-20T20:38:09.737Z</time>
      </trkpt>
      <trkpt lat="47.550234" lon="7.883221">
        <ele>361.713707</ele>
        <time>2021-11-20T20:38:42.568Z</time>
      </trkpt>
      <trkpt lat="47.549927" lon="7.881490">
        <ele>365.946386</ele>
        <time>2021-11-20T20:39:14.832Z</time>
      </trkpt>
      <trkpt lat="47.549726" lon="7.880786">
        <ele>367.848644</ele>
        <time>2021-11-20T20:39:30.808Z</time>
      </trkpt>
      <trkpt lat="47.549327" lon="7.879547">
        <ele>371.788848</ele>
        <time>2021-11-20T20:40:00.592Z</time>
      </trkpt>
      <trkpt lat="47.549318" lon="7.879398">
        <ele>372.218218</ele>
        <time>2021-11-20T20:40:03.781Z</time>
      </trkpt>
      <trkpt lat="47.549140" lon="7.879391">
        <ele>372.975418</ele>
        <time>2021-11-20T20:40:10.651Z</time>
      </trkpt>
      <trkpt lat="47.548718" lon="7.879258">
        <ele>374.810100</ele>
        <time>2021-11-20T20:40:24.322Z</time>
      </trkpt>
      <trkpt lat="47.548422" lon="7.878959">
        <ele>375.605452</ele>
        <time>2021-11-20T20:40:34.969Z</time>
      </trkpt>
      <trkpt lat="47.548234" lon="7.878638">
        <ele>376.178486</ele>
        <time>2021-11-20T20:40:43.401Z</time>
      </trkpt>
      <trkpt lat="47.547992" lon="7.877974">
        <ele>377.195960</ele>
        <time>2021-11-20T20:40:56.498Z</time>
      </trkpt>
      <trkpt lat="47.547574" lon="7.876801">
        <ele>377.953522</ele>
        <time>2021-11-20T20:41:10.261Z</time>
      </trkpt>
      <trkpt lat="47.547126" lon="7.875801">
        <ele>375.701259</ele>
        <time>2021-11-20T20:41:19.044Z</time>
      </trkpt>
      <trkpt lat="47.546309" lon="7.874154">
        <ele>369.895013</ele>
        <time>2021-11-20T20:41:32.232Z</time>
      </trkpt>
      <trkpt lat="47.546135" lon="7.873859">
        <ele>368.301176</ele>
        <time>2021-11-20T20:41:34.614Z</time>
      </trkpt>
      <trkpt lat="47.546077" lon="7.873763">
        <ele>367.777008</ele>
        <time>2021-11-20T20:41:35.425Z</time>
      </trkpt>
      <trkpt lat="47.545934" lon="7.873549">
        <ele>366.551895</ele>
        <time>2021-11-20T20:41:37.230Z</time>
      </trkpt>
      <trkpt lat="47.545746" lon="7.873302">
        <ele>365.037356</ele>
        <time>2021-11-20T20:41:39.518Z</time>
      </trkpt>
      <trkpt lat="47.545515" lon="7.873015">
        <ele>363.220236</ele>
        <time>2021-11-20T20:41:42.219Z</time>
      </trkpt>
      <trkpt lat="47.545478" lon="7.872968">
        <ele>362.926471</ele>
        <time>2021-11-20T20:41:42.661Z</time>
      </trkpt>
      <trkpt lat="47.545375" lon="7.872836">
        <ele>362.711941</ele>
        <time>2021-11-20T20:41:43.856Z</time>
      </trkpt>
      <trkpt lat="47.545131" lon="7.872664">
        <ele>362.711941</ele>
        <time>2021-11-20T20:41:46.327Z</time>
      </trkpt>
      <trkpt lat="47.544883" lon="7.872555">
        <ele>362.711941</ele>
        <time>2021-11-20T20:41:48.676Z</time>
      </trkpt>
      <trkpt lat="47.544390" lon="7.872423">
        <ele>362.711941</ele>
        <time>2021-11-20T20:41:53.300Z</time>
      </trkpt>
      <trkpt lat="47.543785" lon="7.872316">
        <ele>362.711941</ele>
        <time>2021-11-20T20:41:59.185Z</time>
      </trkpt>
    </trkseg>
  </trk>
</gpx>